<?xml version="1.0" encoding="UTF-8" standalone="no" ?>
<gpx xmlns="http://www.topografix.com/GPX/1/1" creator="https://MapMagic.app" xmlns:xsi="http://www.w3.org/2001/XMLSchema-instance" xsi:schemaLocation="http://www.topografix.com/GPX/1/1 http://www.topografix.com/GPX/1/1/gpx.xsd" version="1.1">
	<wpt lat="54.502546" lon="20.095877">
		<name>КП 1</name>
		<type>Generic</type>
	</wpt>
	<wpt lat="54.386568" lon="20.640382">
		<name>КП 2</name>
		<type>Generic</type>
	</wpt>
	<trk>
		<name>Гравийный Бревет 2</name>
		<desc></desc>
		<trkseg>
			<trkpt lat="54.715120" lon="20.465550"><ele>18.8</ele><time>1970-01-01T00:00:00Z</time></trkpt>
			<trkpt lat="54.712910" lon="20.466230"><ele>13.5</ele><time>1970-01-01T00:00:00Z</time></trkpt>
			<trkpt lat="54.712770" lon="20.466250"><ele>12.8</ele><time>1970-01-01T00:00:00Z</time></trkpt>
			<trkpt lat="54.712590" lon="20.466320"><ele>11.6</ele><time>1970-01-01T00:00:00Z</time></trkpt>
			<trkpt lat="54.712340" lon="20.466490"><ele>9.2</ele><time>1970-01-01T00:00:00Z</time></trkpt>
			<trkpt lat="54.712590" lon="20.468510"><ele>6.6</ele><time>1970-01-01T00:00:00Z</time></trkpt>
			<trkpt lat="54.712630" lon="20.469560"><ele>5.5</ele><time>1970-01-01T00:00:00Z</time></trkpt>
			<trkpt lat="54.712620" lon="20.470130"><ele>5.0</ele><time>1970-01-01T00:00:00Z</time></trkpt>
			<trkpt lat="54.712360" lon="20.472840"><ele>5.0</ele><time>1970-01-01T00:00:00Z</time></trkpt>
			<trkpt lat="54.712380" lon="20.476020"><ele>5.8</ele><time>1970-01-01T00:00:00Z</time></trkpt>
			<trkpt lat="54.712350" lon="20.476010"><ele>5.8</ele><time>1970-01-01T00:00:00Z</time></trkpt>
			<trkpt lat="54.712350" lon="20.477950"><ele>3.6</ele><time>1970-01-01T00:00:00Z</time></trkpt>
			<trkpt lat="54.712050" lon="20.480140"><ele>6.8</ele><time>1970-01-01T00:00:00Z</time></trkpt>
			<trkpt lat="54.712230" lon="20.481960"><ele>8.1</ele><time>1970-01-01T00:00:00Z</time></trkpt>
			<trkpt lat="54.713040" lon="20.486280"><ele>11.6</ele><time>1970-01-01T00:00:00Z</time></trkpt>
			<trkpt lat="54.713230" lon="20.486790"><ele>12.8</ele><time>1970-01-01T00:00:00Z</time></trkpt>
			<trkpt lat="54.713530" lon="20.486940"><ele>13.7</ele><time>1970-01-01T00:00:00Z</time></trkpt>
			<trkpt lat="54.713530" lon="20.486940"><ele>13.7</ele><time>1970-01-01T00:00:00Z</time></trkpt>
			<trkpt lat="54.713540" lon="20.486940"><ele>13.7</ele><time>1970-01-01T00:00:00Z</time></trkpt>
			<trkpt lat="54.713560" lon="20.486980"><ele>13.7</ele><time>1970-01-01T00:00:00Z</time></trkpt>
			<trkpt lat="54.713270" lon="20.487740"><ele>10.8</ele><time>1970-01-01T00:00:00Z</time></trkpt>
			<trkpt lat="54.713270" lon="20.487740"><ele>10.8</ele><time>1970-01-01T00:00:00Z</time></trkpt>
			<trkpt lat="54.713170" lon="20.488020"><ele>10.5</ele><time>1970-01-01T00:00:00Z</time></trkpt>
			<trkpt lat="54.712990" lon="20.488540"><ele>10.6</ele><time>1970-01-01T00:00:00Z</time></trkpt>
			<trkpt lat="54.712910" lon="20.488790"><ele>10.8</ele><time>1970-01-01T00:00:00Z</time></trkpt>
			<trkpt lat="54.712910" lon="20.488790"><ele>10.8</ele><time>1970-01-01T00:00:00Z</time></trkpt>
			<trkpt lat="54.712840" lon="20.489010"><ele>10.8</ele><time>1970-01-01T00:00:00Z</time></trkpt>
			<trkpt lat="54.712720" lon="20.489460"><ele>9.4</ele><time>1970-01-01T00:00:00Z</time></trkpt>
			<trkpt lat="54.712600" lon="20.489930"><ele>7.1</ele><time>1970-01-01T00:00:00Z</time></trkpt>
			<trkpt lat="54.712440" lon="20.490740"><ele>6.0</ele><time>1970-01-01T00:00:00Z</time></trkpt>
			<trkpt lat="54.712400" lon="20.490900"><ele>6.1</ele><time>1970-01-01T00:00:00Z</time></trkpt>
			<trkpt lat="54.712320" lon="20.491280"><ele>6.3</ele><time>1970-01-01T00:00:00Z</time></trkpt>
			<trkpt lat="54.712110" lon="20.492450"><ele>5.7</ele><time>1970-01-01T00:00:00Z</time></trkpt>
			<trkpt lat="54.712060" lon="20.492650"><ele>5.6</ele><time>1970-01-01T00:00:00Z</time></trkpt>
			<trkpt lat="54.712000" lon="20.492820"><ele>5.5</ele><time>1970-01-01T00:00:00Z</time></trkpt>
			<trkpt lat="54.711860" lon="20.493140"><ele>5.1</ele><time>1970-01-01T00:00:00Z</time></trkpt>
			<trkpt lat="54.711560" lon="20.493690"><ele>3.8</ele><time>1970-01-01T00:00:00Z</time></trkpt>
			<trkpt lat="54.711430" lon="20.493860"><ele>3.3</ele><time>1970-01-01T00:00:00Z</time></trkpt>
			<trkpt lat="54.711320" lon="20.493950"><ele>2.8</ele><time>1970-01-01T00:00:00Z</time></trkpt>
			<trkpt lat="54.711090" lon="20.494050"><ele>1.5</ele><time>1970-01-01T00:00:00Z</time></trkpt>
			<trkpt lat="54.710920" lon="20.494010"><ele>0.5</ele><time>1970-01-01T00:00:00Z</time></trkpt>
			<trkpt lat="54.710820" lon="20.493950"><ele>0.1</ele><time>1970-01-01T00:00:00Z</time></trkpt>
			<trkpt lat="54.710690" lon="20.493850"><ele>-0.2</ele><time>1970-01-01T00:00:00Z</time></trkpt>
			<trkpt lat="54.710640" lon="20.493800"><ele>-0.2</ele><time>1970-01-01T00:00:00Z</time></trkpt>
			<trkpt lat="54.710570" lon="20.493670"><ele>-0.3</ele><time>1970-01-01T00:00:00Z</time></trkpt>
			<trkpt lat="54.710570" lon="20.493670"><ele>-0.3</ele><time>1970-01-01T00:00:00Z</time></trkpt>
			<trkpt lat="54.710130" lon="20.492910"><ele>-0.8</ele><time>1970-01-01T00:00:00Z</time></trkpt>
			<trkpt lat="54.709920" lon="20.492550"><ele>-0.9</ele><time>1970-01-01T00:00:00Z</time></trkpt>
			<trkpt lat="54.709410" lon="20.491650"><ele>1.0</ele><time>1970-01-01T00:00:00Z</time></trkpt>
			<trkpt lat="54.708840" lon="20.490740"><ele>3.0</ele><time>1970-01-01T00:00:00Z</time></trkpt>
			<trkpt lat="54.708720" lon="20.490550"><ele>3.1</ele><time>1970-01-01T00:00:00Z</time></trkpt>
			<trkpt lat="54.708450" lon="20.490270"><ele>3.1</ele><time>1970-01-01T00:00:00Z</time></trkpt>
			<trkpt lat="54.708250" lon="20.490110"><ele>3.0</ele><time>1970-01-01T00:00:00Z</time></trkpt>
			<trkpt lat="54.708070" lon="20.489980"><ele>3.0</ele><time>1970-01-01T00:00:00Z</time></trkpt>
			<trkpt lat="54.707960" lon="20.489890"><ele>3.1</ele><time>1970-01-01T00:00:00Z</time></trkpt>
			<trkpt lat="54.707810" lon="20.489730"><ele>3.2</ele><time>1970-01-01T00:00:00Z</time></trkpt>
			<trkpt lat="54.707640" lon="20.489620"><ele>3.4</ele><time>1970-01-01T00:00:00Z</time></trkpt>
			<trkpt lat="54.707460" lon="20.489600"><ele>3.1</ele><time>1970-01-01T00:00:00Z</time></trkpt>
			<trkpt lat="54.707260" lon="20.489680"><ele>2.2</ele><time>1970-01-01T00:00:00Z</time></trkpt>
			<trkpt lat="54.707100" lon="20.489790"><ele>1.3</ele><time>1970-01-01T00:00:00Z</time></trkpt>
			<trkpt lat="54.706830" lon="20.489870"><ele>-0.0</ele><time>1970-01-01T00:00:00Z</time></trkpt>
			<trkpt lat="54.706780" lon="20.489850"><ele>-0.2</ele><time>1970-01-01T00:00:00Z</time></trkpt>
			<trkpt lat="54.706620" lon="20.489650"><ele>-0.6</ele><time>1970-01-01T00:00:00Z</time></trkpt>
			<trkpt lat="54.706480" lon="20.489380"><ele>-0.4</ele><time>1970-01-01T00:00:00Z</time></trkpt>
			<trkpt lat="54.706340" lon="20.488970"><ele>-0.6</ele><time>1970-01-01T00:00:00Z</time></trkpt>
			<trkpt lat="54.706290" lon="20.488960"><ele>-0.6</ele><time>1970-01-01T00:00:00Z</time></trkpt>
			<trkpt lat="54.706240" lon="20.488970"><ele>-0.6</ele><time>1970-01-01T00:00:00Z</time></trkpt>
			<trkpt lat="54.706190" lon="20.489210"><ele>-0.7</ele><time>1970-01-01T00:00:00Z</time></trkpt>
			<trkpt lat="54.705180" lon="20.489820"><ele>6.4</ele><time>1970-01-01T00:00:00Z</time></trkpt>
			<trkpt lat="54.705140" lon="20.489740"><ele>7.0</ele><time>1970-01-01T00:00:00Z</time></trkpt>
			<trkpt lat="54.705020" lon="20.489730"><ele>7.5</ele><time>1970-01-01T00:00:00Z</time></trkpt>
			<trkpt lat="54.704790" lon="20.489650"><ele>6.5</ele><time>1970-01-01T00:00:00Z</time></trkpt>
			<trkpt lat="54.704730" lon="20.489590"><ele>5.9</ele><time>1970-01-01T00:00:00Z</time></trkpt>
			<trkpt lat="54.704450" lon="20.488970"><ele>1.6</ele><time>1970-01-01T00:00:00Z</time></trkpt>
			<trkpt lat="54.704200" lon="20.488680"><ele>-0.1</ele><time>1970-01-01T00:00:00Z</time></trkpt>
			<trkpt lat="54.703900" lon="20.488430"><ele>-0.8</ele><time>1970-01-01T00:00:00Z</time></trkpt>
			<trkpt lat="54.703530" lon="20.488310"><ele>-1.0</ele><time>1970-01-01T00:00:00Z</time></trkpt>
			<trkpt lat="54.703350" lon="20.488290"><ele>-0.9</ele><time>1970-01-01T00:00:00Z</time></trkpt>
			<trkpt lat="54.702600" lon="20.488320"><ele>0.8</ele><time>1970-01-01T00:00:00Z</time></trkpt>
			<trkpt lat="54.701630" lon="20.488420"><ele>-1.8</ele><time>1970-01-01T00:00:00Z</time></trkpt>
			<trkpt lat="54.700400" lon="20.488600"><ele>-1.0</ele><time>1970-01-01T00:00:00Z</time></trkpt>
			<trkpt lat="54.700100" lon="20.488550"><ele>-1.0</ele><time>1970-01-01T00:00:00Z</time></trkpt>
			<trkpt lat="54.699980" lon="20.488450"><ele>-1.1</ele><time>1970-01-01T00:00:00Z</time></trkpt>
			<trkpt lat="54.699830" lon="20.488220"><ele>-1.7</ele><time>1970-01-01T00:00:00Z</time></trkpt>
			<trkpt lat="54.699770" lon="20.488040"><ele>-2.2</ele><time>1970-01-01T00:00:00Z</time></trkpt>
			<trkpt lat="54.698910" lon="20.481530"><ele>-0.3</ele><time>1970-01-01T00:00:00Z</time></trkpt>
			<trkpt lat="54.698830" lon="20.480740"><ele>0.2</ele><time>1970-01-01T00:00:00Z</time></trkpt>
			<trkpt lat="54.698520" lon="20.476310"><ele>1.6</ele><time>1970-01-01T00:00:00Z</time></trkpt>
			<trkpt lat="54.698320" lon="20.474370"><ele>-0.1</ele><time>1970-01-01T00:00:00Z</time></trkpt>
			<trkpt lat="54.697920" lon="20.472200"><ele>-0.5</ele><time>1970-01-01T00:00:00Z</time></trkpt>
			<trkpt lat="54.697690" lon="20.471180"><ele>-2.2</ele><time>1970-01-01T00:00:00Z</time></trkpt>
			<trkpt lat="54.697080" lon="20.468980"><ele>-2.0</ele><time>1970-01-01T00:00:00Z</time></trkpt>
			<trkpt lat="54.694610" lon="20.460990"><ele>-1.6</ele><time>1970-01-01T00:00:00Z</time></trkpt>
			<trkpt lat="54.693580" lon="20.457980"><ele>-2.8</ele><time>1970-01-01T00:00:00Z</time></trkpt>
			<trkpt lat="54.693360" lon="20.457130"><ele>-2.4</ele><time>1970-01-01T00:00:00Z</time></trkpt>
			<trkpt lat="54.693300" lon="20.456600"><ele>-3.1</ele><time>1970-01-01T00:00:00Z</time></trkpt>
			<trkpt lat="54.693650" lon="20.451280"><ele>-3.3</ele><time>1970-01-01T00:00:00Z</time></trkpt>
			<trkpt lat="54.694230" lon="20.448090"><ele>0.9</ele><time>1970-01-01T00:00:00Z</time></trkpt>
			<trkpt lat="54.692640" lon="20.447210"><ele>2.9</ele><time>1970-01-01T00:00:00Z</time></trkpt>
			<trkpt lat="54.691790" lon="20.446520"><ele>2.1</ele><time>1970-01-01T00:00:00Z</time></trkpt>
			<trkpt lat="54.691540" lon="20.446230"><ele>1.7</ele><time>1970-01-01T00:00:00Z</time></trkpt>
			<trkpt lat="54.691400" lon="20.445870"><ele>1.4</ele><time>1970-01-01T00:00:00Z</time></trkpt>
			<trkpt lat="54.691320" lon="20.445290"><ele>0.5</ele><time>1970-01-01T00:00:00Z</time></trkpt>
			<trkpt lat="54.691360" lon="20.444770"><ele>0.0</ele><time>1970-01-01T00:00:00Z</time></trkpt>
			<trkpt lat="54.691480" lon="20.444360"><ele>-0.2</ele><time>1970-01-01T00:00:00Z</time></trkpt>
			<trkpt lat="54.688580" lon="20.438180"><ele>-1.9</ele><time>1970-01-01T00:00:00Z</time></trkpt>
			<trkpt lat="54.688390" lon="20.437540"><ele>-1.1</ele><time>1970-01-01T00:00:00Z</time></trkpt>
			<trkpt lat="54.688170" lon="20.436100"><ele>-0.6</ele><time>1970-01-01T00:00:00Z</time></trkpt>
			<trkpt lat="54.688190" lon="20.436240"><ele>-0.7</ele><time>1970-01-01T00:00:00Z</time></trkpt>
			<trkpt lat="54.687930" lon="20.433850"><ele>-0.2</ele><time>1970-01-01T00:00:00Z</time></trkpt>
			<trkpt lat="54.687530" lon="20.430770"><ele>1.5</ele><time>1970-01-01T00:00:00Z</time></trkpt>
			<trkpt lat="54.687360" lon="20.429260"><ele>5.3</ele><time>1970-01-01T00:00:00Z</time></trkpt>
			<trkpt lat="54.687240" lon="20.427720"><ele>-0.2</ele><time>1970-01-01T00:00:00Z</time></trkpt>
			<trkpt lat="54.687460" lon="20.426500"><ele>-0.2</ele><time>1970-01-01T00:00:00Z</time></trkpt>
			<trkpt lat="54.687550" lon="20.426220"><ele>-0.5</ele><time>1970-01-01T00:00:00Z</time></trkpt>
			<trkpt lat="54.688800" lon="20.423910"><ele>-0.3</ele><time>1970-01-01T00:00:00Z</time></trkpt>
			<trkpt lat="54.689090" lon="20.423600"><ele>-0.0</ele><time>1970-01-01T00:00:00Z</time></trkpt>
			<trkpt lat="54.689460" lon="20.423320"><ele>0.3</ele><time>1970-01-01T00:00:00Z</time></trkpt>
			<trkpt lat="54.689570" lon="20.423010"><ele>0.5</ele><time>1970-01-01T00:00:00Z</time></trkpt>
			<trkpt lat="54.689560" lon="20.422910"><ele>0.5</ele><time>1970-01-01T00:00:00Z</time></trkpt>
			<trkpt lat="54.688790" lon="20.421300"><ele>-0.1</ele><time>1970-01-01T00:00:00Z</time></trkpt>
			<trkpt lat="54.688510" lon="20.420860"><ele>-0.9</ele><time>1970-01-01T00:00:00Z</time></trkpt>
			<trkpt lat="54.688330" lon="20.420480"><ele>-0.6</ele><time>1970-01-01T00:00:00Z</time></trkpt>
			<trkpt lat="54.688280" lon="20.420280"><ele>-0.5</ele><time>1970-01-01T00:00:00Z</time></trkpt>
			<trkpt lat="54.688130" lon="20.419060"><ele>-1.6</ele><time>1970-01-01T00:00:00Z</time></trkpt>
			<trkpt lat="54.687490" lon="20.416570"><ele>-2.2</ele><time>1970-01-01T00:00:00Z</time></trkpt>
			<trkpt lat="54.687500" lon="20.416410"><ele>-2.3</ele><time>1970-01-01T00:00:00Z</time></trkpt>
			<trkpt lat="54.687300" lon="20.416100"><ele>-2.9</ele><time>1970-01-01T00:00:00Z</time></trkpt>
			<trkpt lat="54.686630" lon="20.414490"><ele>-3.5</ele><time>1970-01-01T00:00:00Z</time></trkpt>
			<trkpt lat="54.686370" lon="20.414200"><ele>-3.7</ele><time>1970-01-01T00:00:00Z</time></trkpt>
			<trkpt lat="54.685580" lon="20.413910"><ele>-4.7</ele><time>1970-01-01T00:00:00Z</time></trkpt>
			<trkpt lat="54.684220" lon="20.413470"><ele>-3.8</ele><time>1970-01-01T00:00:00Z</time></trkpt>
			<trkpt lat="54.683950" lon="20.413410"><ele>-3.9</ele><time>1970-01-01T00:00:00Z</time></trkpt>
			<trkpt lat="54.683730" lon="20.413450"><ele>-3.9</ele><time>1970-01-01T00:00:00Z</time></trkpt>
			<trkpt lat="54.683460" lon="20.413450"><ele>-3.8</ele><time>1970-01-01T00:00:00Z</time></trkpt>
			<trkpt lat="54.679630" lon="20.414510"><ele>-4.5</ele><time>1970-01-01T00:00:00Z</time></trkpt>
			<trkpt lat="54.678840" lon="20.414680"><ele>-3.6</ele><time>1970-01-01T00:00:00Z</time></trkpt>
			<trkpt lat="54.678520" lon="20.414710"><ele>-2.8</ele><time>1970-01-01T00:00:00Z</time></trkpt>
			<trkpt lat="54.677800" lon="20.414960"><ele>-2.7</ele><time>1970-01-01T00:00:00Z</time></trkpt>
			<trkpt lat="54.677640" lon="20.414950"><ele>-2.8</ele><time>1970-01-01T00:00:00Z</time></trkpt>
			<trkpt lat="54.677190" lon="20.415110"><ele>-3.4</ele><time>1970-01-01T00:00:00Z</time></trkpt>
			<trkpt lat="54.676490" lon="20.415430"><ele>-3.9</ele><time>1970-01-01T00:00:00Z</time></trkpt>
			<trkpt lat="54.676200" lon="20.415330"><ele>-3.7</ele><time>1970-01-01T00:00:00Z</time></trkpt>
			<trkpt lat="54.676050" lon="20.415230"><ele>-3.4</ele><time>1970-01-01T00:00:00Z</time></trkpt>
			<trkpt lat="54.675960" lon="20.415110"><ele>-3.3</ele><time>1970-01-01T00:00:00Z</time></trkpt>
			<trkpt lat="54.675840" lon="20.414810"><ele>-2.8</ele><time>1970-01-01T00:00:00Z</time></trkpt>
			<trkpt lat="54.675300" lon="20.412920"><ele>-3.0</ele><time>1970-01-01T00:00:00Z</time></trkpt>
			<trkpt lat="54.675190" lon="20.412300"><ele>-2.4</ele><time>1970-01-01T00:00:00Z</time></trkpt>
			<trkpt lat="54.675050" lon="20.412000"><ele>-2.2</ele><time>1970-01-01T00:00:00Z</time></trkpt>
			<trkpt lat="54.674410" lon="20.410870"><ele>-3.0</ele><time>1970-01-01T00:00:00Z</time></trkpt>
			<trkpt lat="54.673750" lon="20.409370"><ele>-3.5</ele><time>1970-01-01T00:00:00Z</time></trkpt>
			<trkpt lat="54.673680" lon="20.409370"><ele>-3.6</ele><time>1970-01-01T00:00:00Z</time></trkpt>
			<trkpt lat="54.673580" lon="20.409300"><ele>-3.7</ele><time>1970-01-01T00:00:00Z</time></trkpt>
			<trkpt lat="54.672620" lon="20.407980"><ele>-1.8</ele><time>1970-01-01T00:00:00Z</time></trkpt>
			<trkpt lat="54.672520" lon="20.407750"><ele>-1.3</ele><time>1970-01-01T00:00:00Z</time></trkpt>
			<trkpt lat="54.672470" lon="20.407750"><ele>-1.3</ele><time>1970-01-01T00:00:00Z</time></trkpt>
			<trkpt lat="54.672430" lon="20.407800"><ele>-1.3</ele><time>1970-01-01T00:00:00Z</time></trkpt>
			<trkpt lat="54.672250" lon="20.407850"><ele>-1.3</ele><time>1970-01-01T00:00:00Z</time></trkpt>
			<trkpt lat="54.672190" lon="20.407900"><ele>-1.3</ele><time>1970-01-01T00:00:00Z</time></trkpt>
			<trkpt lat="54.672170" lon="20.408220"><ele>-1.5</ele><time>1970-01-01T00:00:00Z</time></trkpt>
			<trkpt lat="54.672260" lon="20.410670"><ele>-1.7</ele><time>1970-01-01T00:00:00Z</time></trkpt>
			<trkpt lat="54.672320" lon="20.411140"><ele>-2.1</ele><time>1970-01-01T00:00:00Z</time></trkpt>
			<trkpt lat="54.672340" lon="20.412190"><ele>-3.7</ele><time>1970-01-01T00:00:00Z</time></trkpt>
			<trkpt lat="54.672290" lon="20.413530"><ele>-1.8</ele><time>1970-01-01T00:00:00Z</time></trkpt>
			<trkpt lat="54.672220" lon="20.414070"><ele>-1.1</ele><time>1970-01-01T00:00:00Z</time></trkpt>
			<trkpt lat="54.672070" lon="20.414640"><ele>-1.6</ele><time>1970-01-01T00:00:00Z</time></trkpt>
			<trkpt lat="54.671810" lon="20.415330"><ele>-2.4</ele><time>1970-01-01T00:00:00Z</time></trkpt>
			<trkpt lat="54.671550" lon="20.415650"><ele>-2.8</ele><time>1970-01-01T00:00:00Z</time></trkpt>
			<trkpt lat="54.671360" lon="20.415700"><ele>-3.0</ele><time>1970-01-01T00:00:00Z</time></trkpt>
			<trkpt lat="54.671180" lon="20.415630"><ele>-3.1</ele><time>1970-01-01T00:00:00Z</time></trkpt>
			<trkpt lat="54.671010" lon="20.415430"><ele>-3.3</ele><time>1970-01-01T00:00:00Z</time></trkpt>
			<trkpt lat="54.670530" lon="20.414650"><ele>-3.9</ele><time>1970-01-01T00:00:00Z</time></trkpt>
			<trkpt lat="54.669720" lon="20.413520"><ele>-1.9</ele><time>1970-01-01T00:00:00Z</time></trkpt>
			<trkpt lat="54.668740" lon="20.412330"><ele>-1.3</ele><time>1970-01-01T00:00:00Z</time></trkpt>
			<trkpt lat="54.668670" lon="20.412280"><ele>-1.4</ele><time>1970-01-01T00:00:00Z</time></trkpt>
			<trkpt lat="54.668590" lon="20.412270"><ele>-1.5</ele><time>1970-01-01T00:00:00Z</time></trkpt>
			<trkpt lat="54.668570" lon="20.411860"><ele>-1.1</ele><time>1970-01-01T00:00:00Z</time></trkpt>
			<trkpt lat="54.668760" lon="20.411490"><ele>-0.0</ele><time>1970-01-01T00:00:00Z</time></trkpt>
			<trkpt lat="54.668680" lon="20.411310"><ele>0.2</ele><time>1970-01-01T00:00:00Z</time></trkpt>
			<trkpt lat="54.668640" lon="20.411100"><ele>0.4</ele><time>1970-01-01T00:00:00Z</time></trkpt>
			<trkpt lat="54.669880" lon="20.407390"><ele>-0.0</ele><time>1970-01-01T00:00:00Z</time></trkpt>
			<trkpt lat="54.670060" lon="20.407000"><ele>-0.6</ele><time>1970-01-01T00:00:00Z</time></trkpt>
			<trkpt lat="54.670440" lon="20.405960"><ele>-1.0</ele><time>1970-01-01T00:00:00Z</time></trkpt>
			<trkpt lat="54.670480" lon="20.405740"><ele>-1.1</ele><time>1970-01-01T00:00:00Z</time></trkpt>
			<trkpt lat="54.670240" lon="20.405040"><ele>-2.0</ele><time>1970-01-01T00:00:00Z</time></trkpt>
			<trkpt lat="54.670020" lon="20.403520"><ele>-3.8</ele><time>1970-01-01T00:00:00Z</time></trkpt>
			<trkpt lat="54.669980" lon="20.403330"><ele>-3.9</ele><time>1970-01-01T00:00:00Z</time></trkpt>
			<trkpt lat="54.669890" lon="20.403210"><ele>-3.9</ele><time>1970-01-01T00:00:00Z</time></trkpt>
			<trkpt lat="54.669770" lon="20.403210"><ele>-3.7</ele><time>1970-01-01T00:00:00Z</time></trkpt>
			<trkpt lat="54.669120" lon="20.403720"><ele>-3.5</ele><time>1970-01-01T00:00:00Z</time></trkpt>
			<trkpt lat="54.668940" lon="20.404250"><ele>-3.3</ele><time>1970-01-01T00:00:00Z</time></trkpt>
			<trkpt lat="54.668820" lon="20.404380"><ele>-2.9</ele><time>1970-01-01T00:00:00Z</time></trkpt>
			<trkpt lat="54.668650" lon="20.404440"><ele>-2.5</ele><time>1970-01-01T00:00:00Z</time></trkpt>
			<trkpt lat="54.668460" lon="20.404430"><ele>-2.0</ele><time>1970-01-01T00:00:00Z</time></trkpt>
			<trkpt lat="54.667800" lon="20.404320"><ele>-1.2</ele><time>1970-01-01T00:00:00Z</time></trkpt>
			<trkpt lat="54.667330" lon="20.404470"><ele>-0.9</ele><time>1970-01-01T00:00:00Z</time></trkpt>
			<trkpt lat="54.666740" lon="20.404740"><ele>-0.9</ele><time>1970-01-01T00:00:00Z</time></trkpt>
			<trkpt lat="54.666110" lon="20.405110"><ele>-1.4</ele><time>1970-01-01T00:00:00Z</time></trkpt>
			<trkpt lat="54.665270" lon="20.405700"><ele>-2.8</ele><time>1970-01-01T00:00:00Z</time></trkpt>
			<trkpt lat="54.664380" lon="20.406730"><ele>-3.7</ele><time>1970-01-01T00:00:00Z</time></trkpt>
			<trkpt lat="54.663540" lon="20.407880"><ele>-2.7</ele><time>1970-01-01T00:00:00Z</time></trkpt>
			<trkpt lat="54.663360" lon="20.408050"><ele>-2.4</ele><time>1970-01-01T00:00:00Z</time></trkpt>
			<trkpt lat="54.662650" lon="20.408450"><ele>-0.8</ele><time>1970-01-01T00:00:00Z</time></trkpt>
			<trkpt lat="54.659770" lon="20.399280"><ele>-1.4</ele><time>1970-01-01T00:00:00Z</time></trkpt>
			<trkpt lat="54.662090" lon="20.397820"><ele>-4.0</ele><time>1970-01-01T00:00:00Z</time></trkpt>
			<trkpt lat="54.663460" lon="20.397030"><ele>-3.9</ele><time>1970-01-01T00:00:00Z</time></trkpt>
			<trkpt lat="54.664950" lon="20.396080"><ele>-3.1</ele><time>1970-01-01T00:00:00Z</time></trkpt>
			<trkpt lat="54.665130" lon="20.395820"><ele>-3.1</ele><time>1970-01-01T00:00:00Z</time></trkpt>
			<trkpt lat="54.665480" lon="20.394400"><ele>-2.7</ele><time>1970-01-01T00:00:00Z</time></trkpt>
			<trkpt lat="54.665650" lon="20.393480"><ele>-3.1</ele><time>1970-01-01T00:00:00Z</time></trkpt>
			<trkpt lat="54.665710" lon="20.392870"><ele>-2.2</ele><time>1970-01-01T00:00:00Z</time></trkpt>
			<trkpt lat="54.665750" lon="20.391890"><ele>-0.6</ele><time>1970-01-01T00:00:00Z</time></trkpt>
			<trkpt lat="54.665710" lon="20.391540"><ele>-0.5</ele><time>1970-01-01T00:00:00Z</time></trkpt>
			<trkpt lat="54.665580" lon="20.391120"><ele>-0.7</ele><time>1970-01-01T00:00:00Z</time></trkpt>
			<trkpt lat="54.664960" lon="20.390200"><ele>-2.8</ele><time>1970-01-01T00:00:00Z</time></trkpt>
			<trkpt lat="54.664740" lon="20.389760"><ele>-3.6</ele><time>1970-01-01T00:00:00Z</time></trkpt>
			<trkpt lat="54.664630" lon="20.389400"><ele>-3.9</ele><time>1970-01-01T00:00:00Z</time></trkpt>
			<trkpt lat="54.664580" lon="20.389040"><ele>-3.9</ele><time>1970-01-01T00:00:00Z</time></trkpt>
			<trkpt lat="54.664580" lon="20.388710"><ele>-3.7</ele><time>1970-01-01T00:00:00Z</time></trkpt>
			<trkpt lat="54.664740" lon="20.387830"><ele>-2.6</ele><time>1970-01-01T00:00:00Z</time></trkpt>
			<trkpt lat="54.664640" lon="20.387350"><ele>-2.1</ele><time>1970-01-01T00:00:00Z</time></trkpt>
			<trkpt lat="54.664490" lon="20.385650"><ele>-0.6</ele><time>1970-01-01T00:00:00Z</time></trkpt>
			<trkpt lat="54.664380" lon="20.385310"><ele>-0.7</ele><time>1970-01-01T00:00:00Z</time></trkpt>
			<trkpt lat="54.664360" lon="20.385010"><ele>-0.7</ele><time>1970-01-01T00:00:00Z</time></trkpt>
			<trkpt lat="54.664250" lon="20.384640"><ele>-0.5</ele><time>1970-01-01T00:00:00Z</time></trkpt>
			<trkpt lat="54.664080" lon="20.384330"><ele>-0.6</ele><time>1970-01-01T00:00:00Z</time></trkpt>
			<trkpt lat="54.663690" lon="20.383750"><ele>-1.1</ele><time>1970-01-01T00:00:00Z</time></trkpt>
			<trkpt lat="54.663070" lon="20.382670"><ele>-1.0</ele><time>1970-01-01T00:00:00Z</time></trkpt>
			<trkpt lat="54.662020" lon="20.381080"><ele>-0.5</ele><time>1970-01-01T00:00:00Z</time></trkpt>
			<trkpt lat="54.661150" lon="20.379640"><ele>-0.2</ele><time>1970-01-01T00:00:00Z</time></trkpt>
			<trkpt lat="54.660020" lon="20.377590"><ele>0.9</ele><time>1970-01-01T00:00:00Z</time></trkpt>
			<trkpt lat="54.659380" lon="20.376080"><ele>0.8</ele><time>1970-01-01T00:00:00Z</time></trkpt>
			<trkpt lat="54.658900" lon="20.374770"><ele>1.1</ele><time>1970-01-01T00:00:00Z</time></trkpt>
			<trkpt lat="54.658560" lon="20.373970"><ele>1.1</ele><time>1970-01-01T00:00:00Z</time></trkpt>
			<trkpt lat="54.657670" lon="20.372200"><ele>2.2</ele><time>1970-01-01T00:00:00Z</time></trkpt>
			<trkpt lat="54.657370" lon="20.371510"><ele>2.1</ele><time>1970-01-01T00:00:00Z</time></trkpt>
			<trkpt lat="54.657090" lon="20.371130"><ele>1.8</ele><time>1970-01-01T00:00:00Z</time></trkpt>
			<trkpt lat="54.655880" lon="20.369770"><ele>-1.1</ele><time>1970-01-01T00:00:00Z</time></trkpt>
			<trkpt lat="54.655710" lon="20.369200"><ele>-2.1</ele><time>1970-01-01T00:00:00Z</time></trkpt>
			<trkpt lat="54.655440" lon="20.368770"><ele>-2.5</ele><time>1970-01-01T00:00:00Z</time></trkpt>
			<trkpt lat="54.655230" lon="20.368270"><ele>-2.6</ele><time>1970-01-01T00:00:00Z</time></trkpt>
			<trkpt lat="54.655110" lon="20.367550"><ele>-1.9</ele><time>1970-01-01T00:00:00Z</time></trkpt>
			<trkpt lat="54.655120" lon="20.367440"><ele>-1.8</ele><time>1970-01-01T00:00:00Z</time></trkpt>
			<trkpt lat="54.655020" lon="20.367250"><ele>-1.7</ele><time>1970-01-01T00:00:00Z</time></trkpt>
			<trkpt lat="54.654910" lon="20.366880"><ele>-1.5</ele><time>1970-01-01T00:00:00Z</time></trkpt>
			<trkpt lat="54.654730" lon="20.366120"><ele>-2.2</ele><time>1970-01-01T00:00:00Z</time></trkpt>
			<trkpt lat="54.654210" lon="20.365850"><ele>-3.0</ele><time>1970-01-01T00:00:00Z</time></trkpt>
			<trkpt lat="54.653540" lon="20.365300"><ele>-2.9</ele><time>1970-01-01T00:00:00Z</time></trkpt>
			<trkpt lat="54.653480" lon="20.365150"><ele>-2.8</ele><time>1970-01-01T00:00:00Z</time></trkpt>
			<trkpt lat="54.653450" lon="20.364960"><ele>-2.6</ele><time>1970-01-01T00:00:00Z</time></trkpt>
			<trkpt lat="54.653470" lon="20.364520"><ele>-2.2</ele><time>1970-01-01T00:00:00Z</time></trkpt>
			<trkpt lat="54.653440" lon="20.364470"><ele>-2.1</ele><time>1970-01-01T00:00:00Z</time></trkpt>
			<trkpt lat="54.653240" lon="20.363250"><ele>-1.1</ele><time>1970-01-01T00:00:00Z</time></trkpt>
			<trkpt lat="54.653130" lon="20.363010"><ele>-1.1</ele><time>1970-01-01T00:00:00Z</time></trkpt>
			<trkpt lat="54.653050" lon="20.362640"><ele>-0.9</ele><time>1970-01-01T00:00:00Z</time></trkpt>
			<trkpt lat="54.652530" lon="20.361040"><ele>-1.9</ele><time>1970-01-01T00:00:00Z</time></trkpt>
			<trkpt lat="54.652480" lon="20.360580"><ele>-1.4</ele><time>1970-01-01T00:00:00Z</time></trkpt>
			<trkpt lat="54.652370" lon="20.360170"><ele>-0.4</ele><time>1970-01-01T00:00:00Z</time></trkpt>
			<trkpt lat="54.652140" lon="20.359760"><ele>0.5</ele><time>1970-01-01T00:00:00Z</time></trkpt>
			<trkpt lat="54.652030" lon="20.359170"><ele>2.1</ele><time>1970-01-01T00:00:00Z</time></trkpt>
			<trkpt lat="54.651900" lon="20.358770"><ele>2.5</ele><time>1970-01-01T00:00:00Z</time></trkpt>
			<trkpt lat="54.651760" lon="20.358530"><ele>2.7</ele><time>1970-01-01T00:00:00Z</time></trkpt>
			<trkpt lat="54.651470" lon="20.357540"><ele>3.4</ele><time>1970-01-01T00:00:00Z</time></trkpt>
			<trkpt lat="54.651410" lon="20.356990"><ele>3.0</ele><time>1970-01-01T00:00:00Z</time></trkpt>
			<trkpt lat="54.651250" lon="20.356650"><ele>2.4</ele><time>1970-01-01T00:00:00Z</time></trkpt>
			<trkpt lat="54.651230" lon="20.355730"><ele>0.5</ele><time>1970-01-01T00:00:00Z</time></trkpt>
			<trkpt lat="54.650880" lon="20.354950"><ele>1.1</ele><time>1970-01-01T00:00:00Z</time></trkpt>
			<trkpt lat="54.650740" lon="20.354740"><ele>1.3</ele><time>1970-01-01T00:00:00Z</time></trkpt>
			<trkpt lat="54.651130" lon="20.354440"><ele>1.1</ele><time>1970-01-01T00:00:00Z</time></trkpt>
			<trkpt lat="54.651120" lon="20.354260"><ele>1.3</ele><time>1970-01-01T00:00:00Z</time></trkpt>
			<trkpt lat="54.650830" lon="20.353690"><ele>2.0</ele><time>1970-01-01T00:00:00Z</time></trkpt>
			<trkpt lat="54.650240" lon="20.351690"><ele>1.5</ele><time>1970-01-01T00:00:00Z</time></trkpt>
			<trkpt lat="54.650130" lon="20.351500"><ele>1.7</ele><time>1970-01-01T00:00:00Z</time></trkpt>
			<trkpt lat="54.650140" lon="20.351070"><ele>1.7</ele><time>1970-01-01T00:00:00Z</time></trkpt>
			<trkpt lat="54.649730" lon="20.349130"><ele>2.3</ele><time>1970-01-01T00:00:00Z</time></trkpt>
			<trkpt lat="54.649670" lon="20.348690"><ele>2.4</ele><time>1970-01-01T00:00:00Z</time></trkpt>
			<trkpt lat="54.649700" lon="20.348510"><ele>2.4</ele><time>1970-01-01T00:00:00Z</time></trkpt>
			<trkpt lat="54.649760" lon="20.348390"><ele>2.4</ele><time>1970-01-01T00:00:00Z</time></trkpt>
			<trkpt lat="54.649790" lon="20.347950"><ele>2.7</ele><time>1970-01-01T00:00:00Z</time></trkpt>
			<trkpt lat="54.649610" lon="20.347050"><ele>3.5</ele><time>1970-01-01T00:00:00Z</time></trkpt>
			<trkpt lat="54.649520" lon="20.345440"><ele>3.5</ele><time>1970-01-01T00:00:00Z</time></trkpt>
			<trkpt lat="54.649500" lon="20.345220"><ele>3.5</ele><time>1970-01-01T00:00:00Z</time></trkpt>
			<trkpt lat="54.649430" lon="20.344960"><ele>3.6</ele><time>1970-01-01T00:00:00Z</time></trkpt>
			<trkpt lat="54.649520" lon="20.344750"><ele>3.3</ele><time>1970-01-01T00:00:00Z</time></trkpt>
			<trkpt lat="54.648950" lon="20.341570"><ele>2.2</ele><time>1970-01-01T00:00:00Z</time></trkpt>
			<trkpt lat="54.648720" lon="20.339840"><ele>2.5</ele><time>1970-01-01T00:00:00Z</time></trkpt>
			<trkpt lat="54.648700" lon="20.339200"><ele>2.4</ele><time>1970-01-01T00:00:00Z</time></trkpt>
			<trkpt lat="54.647970" lon="20.335570"><ele>1.6</ele><time>1970-01-01T00:00:00Z</time></trkpt>
			<trkpt lat="54.648000" lon="20.335410"><ele>1.7</ele><time>1970-01-01T00:00:00Z</time></trkpt>
			<trkpt lat="54.648050" lon="20.335350"><ele>1.8</ele><time>1970-01-01T00:00:00Z</time></trkpt>
			<trkpt lat="54.647580" lon="20.331570"><ele>2.4</ele><time>1970-01-01T00:00:00Z</time></trkpt>
			<trkpt lat="54.647470" lon="20.331280"><ele>3.5</ele><time>1970-01-01T00:00:00Z</time></trkpt>
			<trkpt lat="54.646910" lon="20.331110"><ele>5.9</ele><time>1970-01-01T00:00:00Z</time></trkpt>
			<trkpt lat="54.646400" lon="20.330750"><ele>8.0</ele><time>1970-01-01T00:00:00Z</time></trkpt>
			<trkpt lat="54.646200" lon="20.330220"><ele>7.9</ele><time>1970-01-01T00:00:00Z</time></trkpt>
			<trkpt lat="54.645740" lon="20.329540"><ele>7.8</ele><time>1970-01-01T00:00:00Z</time></trkpt>
			<trkpt lat="54.645170" lon="20.328850"><ele>9.7</ele><time>1970-01-01T00:00:00Z</time></trkpt>
			<trkpt lat="54.644940" lon="20.328300"><ele>10.1</ele><time>1970-01-01T00:00:00Z</time></trkpt>
			<trkpt lat="54.643430" lon="20.325430"><ele>12.4</ele><time>1970-01-01T00:00:00Z</time></trkpt>
			<trkpt lat="54.642700" lon="20.323670"><ele>13.5</ele><time>1970-01-01T00:00:00Z</time></trkpt>
			<trkpt lat="54.641670" lon="20.321940"><ele>11.0</ele><time>1970-01-01T00:00:00Z</time></trkpt>
			<trkpt lat="54.641250" lon="20.321310"><ele>11.3</ele><time>1970-01-01T00:00:00Z</time></trkpt>
			<trkpt lat="54.640540" lon="20.319870"><ele>13.8</ele><time>1970-01-01T00:00:00Z</time></trkpt>
			<trkpt lat="54.640220" lon="20.319340"><ele>12.6</ele><time>1970-01-01T00:00:00Z</time></trkpt>
			<trkpt lat="54.639760" lon="20.319050"><ele>10.7</ele><time>1970-01-01T00:00:00Z</time></trkpt>
			<trkpt lat="54.639190" lon="20.318850"><ele>7.5</ele><time>1970-01-01T00:00:00Z</time></trkpt>
			<trkpt lat="54.638940" lon="20.318680"><ele>5.9</ele><time>1970-01-01T00:00:00Z</time></trkpt>
			<trkpt lat="54.639050" lon="20.318470"><ele>5.3</ele><time>1970-01-01T00:00:00Z</time></trkpt>
			<trkpt lat="54.639270" lon="20.318190"><ele>5.1</ele><time>1970-01-01T00:00:00Z</time></trkpt>
			<trkpt lat="54.639400" lon="20.318160"><ele>5.3</ele><time>1970-01-01T00:00:00Z</time></trkpt>
			<trkpt lat="54.640290" lon="20.317050"><ele>4.5</ele><time>1970-01-01T00:00:00Z</time></trkpt>
			<trkpt lat="54.640370" lon="20.316880"><ele>4.2</ele><time>1970-01-01T00:00:00Z</time></trkpt>
			<trkpt lat="54.640450" lon="20.316580"><ele>3.4</ele><time>1970-01-01T00:00:00Z</time></trkpt>
			<trkpt lat="54.642390" lon="20.314530"><ele>7.9</ele><time>1970-01-01T00:00:00Z</time></trkpt>
			<trkpt lat="54.643510" lon="20.313300"><ele>8.4</ele><time>1970-01-01T00:00:00Z</time></trkpt>
			<trkpt lat="54.643990" lon="20.312950"><ele>9.5</ele><time>1970-01-01T00:00:00Z</time></trkpt>
			<trkpt lat="54.643610" lon="20.311350"><ele>7.2</ele><time>1970-01-01T00:00:00Z</time></trkpt>
			<trkpt lat="54.643400" lon="20.310780"><ele>4.3</ele><time>1970-01-01T00:00:00Z</time></trkpt>
			<trkpt lat="54.643000" lon="20.310060"><ele>1.6</ele><time>1970-01-01T00:00:00Z</time></trkpt>
			<trkpt lat="54.642790" lon="20.309600"><ele>1.2</ele><time>1970-01-01T00:00:00Z</time></trkpt>
			<trkpt lat="54.642630" lon="20.309380"><ele>1.1</ele><time>1970-01-01T00:00:00Z</time></trkpt>
			<trkpt lat="54.642550" lon="20.309090"><ele>0.9</ele><time>1970-01-01T00:00:00Z</time></trkpt>
			<trkpt lat="54.642440" lon="20.308930"><ele>1.0</ele><time>1970-01-01T00:00:00Z</time></trkpt>
			<trkpt lat="54.642380" lon="20.308610"><ele>0.9</ele><time>1970-01-01T00:00:00Z</time></trkpt>
			<trkpt lat="54.642260" lon="20.308350"><ele>0.9</ele><time>1970-01-01T00:00:00Z</time></trkpt>
			<trkpt lat="54.642000" lon="20.308050"><ele>1.4</ele><time>1970-01-01T00:00:00Z</time></trkpt>
			<trkpt lat="54.641800" lon="20.307500"><ele>0.9</ele><time>1970-01-01T00:00:00Z</time></trkpt>
			<trkpt lat="54.641660" lon="20.307220"><ele>1.0</ele><time>1970-01-01T00:00:00Z</time></trkpt>
			<trkpt lat="54.641470" lon="20.307060"><ele>1.3</ele><time>1970-01-01T00:00:00Z</time></trkpt>
			<trkpt lat="54.641270" lon="20.306600"><ele>1.3</ele><time>1970-01-01T00:00:00Z</time></trkpt>
			<trkpt lat="54.641190" lon="20.306170"><ele>0.3</ele><time>1970-01-01T00:00:00Z</time></trkpt>
			<trkpt lat="54.641190" lon="20.305780"><ele>-0.4</ele><time>1970-01-01T00:00:00Z</time></trkpt>
			<trkpt lat="54.640980" lon="20.305520"><ele>0.2</ele><time>1970-01-01T00:00:00Z</time></trkpt>
			<trkpt lat="54.640770" lon="20.305160"><ele>1.3</ele><time>1970-01-01T00:00:00Z</time></trkpt>
			<trkpt lat="54.640420" lon="20.304380"><ele>2.8</ele><time>1970-01-01T00:00:00Z</time></trkpt>
			<trkpt lat="54.640280" lon="20.304380"><ele>2.2</ele><time>1970-01-01T00:00:00Z</time></trkpt>
			<trkpt lat="54.639860" lon="20.304240"><ele>0.6</ele><time>1970-01-01T00:00:00Z</time></trkpt>
			<trkpt lat="54.639550" lon="20.304340"><ele>-0.1</ele><time>1970-01-01T00:00:00Z</time></trkpt>
			<trkpt lat="54.639420" lon="20.304460"><ele>-0.3</ele><time>1970-01-01T00:00:00Z</time></trkpt>
			<trkpt lat="54.638670" lon="20.304970"><ele>-0.6</ele><time>1970-01-01T00:00:00Z</time></trkpt>
			<trkpt lat="54.638290" lon="20.305170"><ele>-1.1</ele><time>1970-01-01T00:00:00Z</time></trkpt>
			<trkpt lat="54.635200" lon="20.305620"><ele>-2.2</ele><time>1970-01-01T00:00:00Z</time></trkpt>
			<trkpt lat="54.633630" lon="20.305950"><ele>-2.6</ele><time>1970-01-01T00:00:00Z</time></trkpt>
			<trkpt lat="54.630610" lon="20.306280"><ele>7.3</ele><time>1970-01-01T00:00:00Z</time></trkpt>
			<trkpt lat="54.622360" lon="20.279890"><ele>15.2</ele><time>1970-01-01T00:00:00Z</time></trkpt>
			<trkpt lat="54.621880" lon="20.278450"><ele>18.1</ele><time>1970-01-01T00:00:00Z</time></trkpt>
			<trkpt lat="54.620390" lon="20.273600"><ele>19.8</ele><time>1970-01-01T00:00:00Z</time></trkpt>
			<trkpt lat="54.618690" lon="20.268340"><ele>23.4</ele><time>1970-01-01T00:00:00Z</time></trkpt>
			<trkpt lat="54.614470" lon="20.254950"><ele>11.3</ele><time>1970-01-01T00:00:00Z</time></trkpt>
			<trkpt lat="54.613960" lon="20.253200"><ele>8.6</ele><time>1970-01-01T00:00:00Z</time></trkpt>
			<trkpt lat="54.613480" lon="20.250590"><ele>10.1</ele><time>1970-01-01T00:00:00Z</time></trkpt>
			<trkpt lat="54.613410" lon="20.250320"><ele>9.6</ele><time>1970-01-01T00:00:00Z</time></trkpt>
			<trkpt lat="54.612940" lon="20.249030"><ele>8.7</ele><time>1970-01-01T00:00:00Z</time></trkpt>
			<trkpt lat="54.610680" lon="20.240290"><ele>5.8</ele><time>1970-01-01T00:00:00Z</time></trkpt>
			<trkpt lat="54.609970" lon="20.238330"><ele>10.1</ele><time>1970-01-01T00:00:00Z</time></trkpt>
			<trkpt lat="54.608020" lon="20.233270"><ele>13.1</ele><time>1970-01-01T00:00:00Z</time></trkpt>
			<trkpt lat="54.606260" lon="20.228480"><ele>17.9</ele><time>1970-01-01T00:00:00Z</time></trkpt>
			<trkpt lat="54.603690" lon="20.220160"><ele>25.4</ele><time>1970-01-01T00:00:00Z</time></trkpt>
			<trkpt lat="54.603020" lon="20.217890"><ele>26.9</ele><time>1970-01-01T00:00:00Z</time></trkpt>
			<trkpt lat="54.600450" lon="20.209700"><ele>33.5</ele><time>1970-01-01T00:00:00Z</time></trkpt>
			<trkpt lat="54.600140" lon="20.208800"><ele>34.1</ele><time>1970-01-01T00:00:00Z</time></trkpt>
			<trkpt lat="54.599670" lon="20.207900"><ele>34.0</ele><time>1970-01-01T00:00:00Z</time></trkpt>
			<trkpt lat="54.599470" lon="20.207610"><ele>34.5</ele><time>1970-01-01T00:00:00Z</time></trkpt>
			<trkpt lat="54.599850" lon="20.206920"><ele>39.3</ele><time>1970-01-01T00:00:00Z</time></trkpt>
			<trkpt lat="54.601190" lon="20.203950"><ele>43.9</ele><time>1970-01-01T00:00:00Z</time></trkpt>
			<trkpt lat="54.602720" lon="20.200400"><ele>41.1</ele><time>1970-01-01T00:00:00Z</time></trkpt>
			<trkpt lat="54.602450" lon="20.199990"><ele>41.4</ele><time>1970-01-01T00:00:00Z</time></trkpt>
			<trkpt lat="54.602420" lon="20.199760"><ele>42.3</ele><time>1970-01-01T00:00:00Z</time></trkpt>
			<trkpt lat="54.602170" lon="20.199540"><ele>44.0</ele><time>1970-01-01T00:00:00Z</time></trkpt>
			<trkpt lat="54.601760" lon="20.198950"><ele>48.0</ele><time>1970-01-01T00:00:00Z</time></trkpt>
			<trkpt lat="54.601530" lon="20.198760"><ele>49.4</ele><time>1970-01-01T00:00:00Z</time></trkpt>
			<trkpt lat="54.601020" lon="20.197990"><ele>50.7</ele><time>1970-01-01T00:00:00Z</time></trkpt>
			<trkpt lat="54.600780" lon="20.197450"><ele>50.1</ele><time>1970-01-01T00:00:00Z</time></trkpt>
			<trkpt lat="54.600710" lon="20.197010"><ele>51.0</ele><time>1970-01-01T00:00:00Z</time></trkpt>
			<trkpt lat="54.601470" lon="20.195170"><ele>58.6</ele><time>1970-01-01T00:00:00Z</time></trkpt>
			<trkpt lat="54.601650" lon="20.195390"><ele>59.1</ele><time>1970-01-01T00:00:00Z</time></trkpt>
			<trkpt lat="54.601560" lon="20.194970"><ele>60.5</ele><time>1970-01-01T00:00:00Z</time></trkpt>
			<trkpt lat="54.602060" lon="20.193350"><ele>65.8</ele><time>1970-01-01T00:00:00Z</time></trkpt>
			<trkpt lat="54.602250" lon="20.192960"><ele>65.4</ele><time>1970-01-01T00:00:00Z</time></trkpt>
			<trkpt lat="54.602180" lon="20.192840"><ele>65.1</ele><time>1970-01-01T00:00:00Z</time></trkpt>
			<trkpt lat="54.602070" lon="20.192780"><ele>64.6</ele><time>1970-01-01T00:00:00Z</time></trkpt>
			<trkpt lat="54.601900" lon="20.192760"><ele>64.2</ele><time>1970-01-01T00:00:00Z</time></trkpt>
			<trkpt lat="54.601740" lon="20.192630"><ele>63.5</ele><time>1970-01-01T00:00:00Z</time></trkpt>
			<trkpt lat="54.601680" lon="20.192230"><ele>62.1</ele><time>1970-01-01T00:00:00Z</time></trkpt>
			<trkpt lat="54.601990" lon="20.190510"><ele>59.5</ele><time>1970-01-01T00:00:00Z</time></trkpt>
			<trkpt lat="54.602170" lon="20.189740"><ele>58.6</ele><time>1970-01-01T00:00:00Z</time></trkpt>
			<trkpt lat="54.602120" lon="20.189220"><ele>57.1</ele><time>1970-01-01T00:00:00Z</time></trkpt>
			<trkpt lat="54.602050" lon="20.188900"><ele>55.8</ele><time>1970-01-01T00:00:00Z</time></trkpt>
			<trkpt lat="54.601970" lon="20.188670"><ele>54.7</ele><time>1970-01-01T00:00:00Z</time></trkpt>
			<trkpt lat="54.601790" lon="20.188440"><ele>53.2</ele><time>1970-01-01T00:00:00Z</time></trkpt>
			<trkpt lat="54.601650" lon="20.188410"><ele>52.8</ele><time>1970-01-01T00:00:00Z</time></trkpt>
			<trkpt lat="54.601300" lon="20.188240"><ele>53.6</ele><time>1970-01-01T00:00:00Z</time></trkpt>
			<trkpt lat="54.601120" lon="20.188200"><ele>54.3</ele><time>1970-01-01T00:00:00Z</time></trkpt>
			<trkpt lat="54.600860" lon="20.188240"><ele>55.7</ele><time>1970-01-01T00:00:00Z</time></trkpt>
			<trkpt lat="54.600640" lon="20.188110"><ele>56.3</ele><time>1970-01-01T00:00:00Z</time></trkpt>
			<trkpt lat="54.600140" lon="20.186570"><ele>53.4</ele><time>1970-01-01T00:00:00Z</time></trkpt>
			<trkpt lat="54.600070" lon="20.186100"><ele>53.7</ele><time>1970-01-01T00:00:00Z</time></trkpt>
			<trkpt lat="54.599840" lon="20.185540"><ele>54.7</ele><time>1970-01-01T00:00:00Z</time></trkpt>
			<trkpt lat="54.599420" lon="20.185410"><ele>54.6</ele><time>1970-01-01T00:00:00Z</time></trkpt>
			<trkpt lat="54.599310" lon="20.185230"><ele>54.1</ele><time>1970-01-01T00:00:00Z</time></trkpt>
			<trkpt lat="54.599220" lon="20.184940"><ele>53.1</ele><time>1970-01-01T00:00:00Z</time></trkpt>
			<trkpt lat="54.598860" lon="20.184420"><ele>51.8</ele><time>1970-01-01T00:00:00Z</time></trkpt>
			<trkpt lat="54.598570" lon="20.184140"><ele>51.1</ele><time>1970-01-01T00:00:00Z</time></trkpt>
			<trkpt lat="54.598350" lon="20.184130"><ele>51.0</ele><time>1970-01-01T00:00:00Z</time></trkpt>
			<trkpt lat="54.598260" lon="20.184190"><ele>51.1</ele><time>1970-01-01T00:00:00Z</time></trkpt>
			<trkpt lat="54.598160" lon="20.184340"><ele>51.5</ele><time>1970-01-01T00:00:00Z</time></trkpt>
			<trkpt lat="54.598030" lon="20.184350"><ele>51.5</ele><time>1970-01-01T00:00:00Z</time></trkpt>
			<trkpt lat="54.597890" lon="20.184250"><ele>51.2</ele><time>1970-01-01T00:00:00Z</time></trkpt>
			<trkpt lat="54.597770" lon="20.184030"><ele>50.8</ele><time>1970-01-01T00:00:00Z</time></trkpt>
			<trkpt lat="54.600080" lon="20.178370"><ele>40.1</ele><time>1970-01-01T00:00:00Z</time></trkpt>
			<trkpt lat="54.599750" lon="20.177450"><ele>40.1</ele><time>1970-01-01T00:00:00Z</time></trkpt>
			<trkpt lat="54.599610" lon="20.176920"><ele>38.8</ele><time>1970-01-01T00:00:00Z</time></trkpt>
			<trkpt lat="54.599230" lon="20.175960"><ele>33.5</ele><time>1970-01-01T00:00:00Z</time></trkpt>
			<trkpt lat="54.599130" lon="20.175590"><ele>31.7</ele><time>1970-01-01T00:00:00Z</time></trkpt>
			<trkpt lat="54.599000" lon="20.175390"><ele>29.9</ele><time>1970-01-01T00:00:00Z</time></trkpt>
			<trkpt lat="54.598880" lon="20.175320"><ele>28.7</ele><time>1970-01-01T00:00:00Z</time></trkpt>
			<trkpt lat="54.598650" lon="20.175440"><ele>27.1</ele><time>1970-01-01T00:00:00Z</time></trkpt>
			<trkpt lat="54.598790" lon="20.173420"><ele>24.3</ele><time>1970-01-01T00:00:00Z</time></trkpt>
			<trkpt lat="54.598760" lon="20.172850"><ele>23.2</ele><time>1970-01-01T00:00:00Z</time></trkpt>
			<trkpt lat="54.598630" lon="20.172050"><ele>22.5</ele><time>1970-01-01T00:00:00Z</time></trkpt>
			<trkpt lat="54.598400" lon="20.171400"><ele>24.6</ele><time>1970-01-01T00:00:00Z</time></trkpt>
			<trkpt lat="54.598280" lon="20.171210"><ele>25.6</ele><time>1970-01-01T00:00:00Z</time></trkpt>
			<trkpt lat="54.597640" lon="20.171550"><ele>31.9</ele><time>1970-01-01T00:00:00Z</time></trkpt>
			<trkpt lat="54.597460" lon="20.171560"><ele>33.1</ele><time>1970-01-01T00:00:00Z</time></trkpt>
			<trkpt lat="54.597220" lon="20.171410"><ele>34.1</ele><time>1970-01-01T00:00:00Z</time></trkpt>
			<trkpt lat="54.597110" lon="20.171250"><ele>34.9</ele><time>1970-01-01T00:00:00Z</time></trkpt>
			<trkpt lat="54.596960" lon="20.170820"><ele>37.0</ele><time>1970-01-01T00:00:00Z</time></trkpt>
			<trkpt lat="54.596320" lon="20.169710"><ele>41.4</ele><time>1970-01-01T00:00:00Z</time></trkpt>
			<trkpt lat="54.595910" lon="20.169380"><ele>40.9</ele><time>1970-01-01T00:00:00Z</time></trkpt>
			<trkpt lat="54.595460" lon="20.169290"><ele>41.8</ele><time>1970-01-01T00:00:00Z</time></trkpt>
			<trkpt lat="54.594050" lon="20.169250"><ele>47.2</ele><time>1970-01-01T00:00:00Z</time></trkpt>
			<trkpt lat="54.593510" lon="20.169610"><ele>48.6</ele><time>1970-01-01T00:00:00Z</time></trkpt>
			<trkpt lat="54.593300" lon="20.169710"><ele>48.9</ele><time>1970-01-01T00:00:00Z</time></trkpt>
			<trkpt lat="54.592740" lon="20.169460"><ele>47.7</ele><time>1970-01-01T00:00:00Z</time></trkpt>
			<trkpt lat="54.592630" lon="20.169560"><ele>47.3</ele><time>1970-01-01T00:00:00Z</time></trkpt>
			<trkpt lat="54.592670" lon="20.169030"><ele>46.9</ele><time>1970-01-01T00:00:00Z</time></trkpt>
			<trkpt lat="54.592860" lon="20.167700"><ele>44.5</ele><time>1970-01-01T00:00:00Z</time></trkpt>
			<trkpt lat="54.592900" lon="20.166890"><ele>41.1</ele><time>1970-01-01T00:00:00Z</time></trkpt>
			<trkpt lat="54.592840" lon="20.165660"><ele>38.0</ele><time>1970-01-01T00:00:00Z</time></trkpt>
			<trkpt lat="54.592830" lon="20.164370"><ele>36.3</ele><time>1970-01-01T00:00:00Z</time></trkpt>
			<trkpt lat="54.592440" lon="20.163320"><ele>37.1</ele><time>1970-01-01T00:00:00Z</time></trkpt>
			<trkpt lat="54.591540" lon="20.161100"><ele>36.9</ele><time>1970-01-01T00:00:00Z</time></trkpt>
			<trkpt lat="54.590980" lon="20.159830"><ele>36.1</ele><time>1970-01-01T00:00:00Z</time></trkpt>
			<trkpt lat="54.590550" lon="20.158960"><ele>39.3</ele><time>1970-01-01T00:00:00Z</time></trkpt>
			<trkpt lat="54.590240" lon="20.158130"><ele>40.7</ele><time>1970-01-01T00:00:00Z</time></trkpt>
			<trkpt lat="54.589230" lon="20.155790"><ele>37.3</ele><time>1970-01-01T00:00:00Z</time></trkpt>
			<trkpt lat="54.588980" lon="20.155480"><ele>37.4</ele><time>1970-01-01T00:00:00Z</time></trkpt>
			<trkpt lat="54.586730" lon="20.152010"><ele>30.0</ele><time>1970-01-01T00:00:00Z</time></trkpt>
			<trkpt lat="54.586380" lon="20.151390"><ele>27.4</ele><time>1970-01-01T00:00:00Z</time></trkpt>
			<trkpt lat="54.586280" lon="20.150790"><ele>25.0</ele><time>1970-01-01T00:00:00Z</time></trkpt>
			<trkpt lat="54.586210" lon="20.150620"><ele>23.4</ele><time>1970-01-01T00:00:00Z</time></trkpt>
			<trkpt lat="54.585830" lon="20.150300"><ele>16.6</ele><time>1970-01-01T00:00:00Z</time></trkpt>
			<trkpt lat="54.585610" lon="20.150300"><ele>15.2</ele><time>1970-01-01T00:00:00Z</time></trkpt>
			<trkpt lat="54.583890" lon="20.147900"><ele>5.4</ele><time>1970-01-01T00:00:00Z</time></trkpt>
			<trkpt lat="54.583760" lon="20.147900"><ele>5.5</ele><time>1970-01-01T00:00:00Z</time></trkpt>
			<trkpt lat="54.583370" lon="20.148260"><ele>6.7</ele><time>1970-01-01T00:00:00Z</time></trkpt>
			<trkpt lat="54.583230" lon="20.148440"><ele>6.8</ele><time>1970-01-01T00:00:00Z</time></trkpt>
			<trkpt lat="54.583270" lon="20.148170"><ele>6.4</ele><time>1970-01-01T00:00:00Z</time></trkpt>
			<trkpt lat="54.583250" lon="20.147330"><ele>4.7</ele><time>1970-01-01T00:00:00Z</time></trkpt>
			<trkpt lat="54.583440" lon="20.146520"><ele>4.1</ele><time>1970-01-01T00:00:00Z</time></trkpt>
			<trkpt lat="54.583480" lon="20.146250"><ele>4.2</ele><time>1970-01-01T00:00:00Z</time></trkpt>
			<trkpt lat="54.583450" lon="20.146010"><ele>4.1</ele><time>1970-01-01T00:00:00Z</time></trkpt>
			<trkpt lat="54.583160" lon="20.145800"><ele>3.3</ele><time>1970-01-01T00:00:00Z</time></trkpt>
			<trkpt lat="54.582600" lon="20.145090"><ele>0.5</ele><time>1970-01-01T00:00:00Z</time></trkpt>
			<trkpt lat="54.582150" lon="20.144230"><ele>-0.4</ele><time>1970-01-01T00:00:00Z</time></trkpt>
			<trkpt lat="54.581840" lon="20.143560"><ele>-0.6</ele><time>1970-01-01T00:00:00Z</time></trkpt>
			<trkpt lat="54.581710" lon="20.143190"><ele>-0.7</ele><time>1970-01-01T00:00:00Z</time></trkpt>
			<trkpt lat="54.581230" lon="20.142510"><ele>-0.6</ele><time>1970-01-01T00:00:00Z</time></trkpt>
			<trkpt lat="54.580200" lon="20.141740"><ele>-0.9</ele><time>1970-01-01T00:00:00Z</time></trkpt>
			<trkpt lat="54.579870" lon="20.141560"><ele>-0.6</ele><time>1970-01-01T00:00:00Z</time></trkpt>
			<trkpt lat="54.579420" lon="20.141410"><ele>0.7</ele><time>1970-01-01T00:00:00Z</time></trkpt>
			<trkpt lat="54.579080" lon="20.141150"><ele>1.8</ele><time>1970-01-01T00:00:00Z</time></trkpt>
			<trkpt lat="54.577860" lon="20.140520"><ele>7.1</ele><time>1970-01-01T00:00:00Z</time></trkpt>
			<trkpt lat="54.577090" lon="20.140290"><ele>11.1</ele><time>1970-01-01T00:00:00Z</time></trkpt>
			<trkpt lat="54.576240" lon="20.140120"><ele>13.2</ele><time>1970-01-01T00:00:00Z</time></trkpt>
			<trkpt lat="54.574890" lon="20.140050"><ele>14.2</ele><time>1970-01-01T00:00:00Z</time></trkpt>
			<trkpt lat="54.573450" lon="20.139850"><ele>12.5</ele><time>1970-01-01T00:00:00Z</time></trkpt>
			<trkpt lat="54.572470" lon="20.139650"><ele>9.9</ele><time>1970-01-01T00:00:00Z</time></trkpt>
			<trkpt lat="54.571360" lon="20.138570"><ele>12.6</ele><time>1970-01-01T00:00:00Z</time></trkpt>
			<trkpt lat="54.570760" lon="20.137730"><ele>11.5</ele><time>1970-01-01T00:00:00Z</time></trkpt>
			<trkpt lat="54.569870" lon="20.136610"><ele>10.1</ele><time>1970-01-01T00:00:00Z</time></trkpt>
			<trkpt lat="54.569460" lon="20.136220"><ele>9.4</ele><time>1970-01-01T00:00:00Z</time></trkpt>
			<trkpt lat="54.568770" lon="20.135890"><ele>7.7</ele><time>1970-01-01T00:00:00Z</time></trkpt>
			<trkpt lat="54.568270" lon="20.135700"><ele>7.0</ele><time>1970-01-01T00:00:00Z</time></trkpt>
			<trkpt lat="54.567110" lon="20.134920"><ele>9.5</ele><time>1970-01-01T00:00:00Z</time></trkpt>
			<trkpt lat="54.566890" lon="20.134650"><ele>9.5</ele><time>1970-01-01T00:00:00Z</time></trkpt>
			<trkpt lat="54.566220" lon="20.133430"><ele>6.6</ele><time>1970-01-01T00:00:00Z</time></trkpt>
			<trkpt lat="54.566130" lon="20.132950"><ele>6.2</ele><time>1970-01-01T00:00:00Z</time></trkpt>
			<trkpt lat="54.565770" lon="20.132580"><ele>5.8</ele><time>1970-01-01T00:00:00Z</time></trkpt>
			<trkpt lat="54.565670" lon="20.132270"><ele>5.2</ele><time>1970-01-01T00:00:00Z</time></trkpt>
			<trkpt lat="54.565470" lon="20.130620"><ele>2.6</ele><time>1970-01-01T00:00:00Z</time></trkpt>
			<trkpt lat="54.565400" lon="20.129770"><ele>3.4</ele><time>1970-01-01T00:00:00Z</time></trkpt>
			<trkpt lat="54.565380" lon="20.128990"><ele>4.6</ele><time>1970-01-01T00:00:00Z</time></trkpt>
			<trkpt lat="54.565000" lon="20.127000"><ele>6.0</ele><time>1970-01-01T00:00:00Z</time></trkpt>
			<trkpt lat="54.565110" lon="20.125080"><ele>5.5</ele><time>1970-01-01T00:00:00Z</time></trkpt>
			<trkpt lat="54.565120" lon="20.123610"><ele>4.4</ele><time>1970-01-01T00:00:00Z</time></trkpt>
			<trkpt lat="54.564910" lon="20.120770"><ele>3.5</ele><time>1970-01-01T00:00:00Z</time></trkpt>
			<trkpt lat="54.564730" lon="20.119480"><ele>4.6</ele><time>1970-01-01T00:00:00Z</time></trkpt>
			<trkpt lat="54.564540" lon="20.118970"><ele>5.8</ele><time>1970-01-01T00:00:00Z</time></trkpt>
			<trkpt lat="54.564100" lon="20.118050"><ele>8.0</ele><time>1970-01-01T00:00:00Z</time></trkpt>
			<trkpt lat="54.563600" lon="20.116360"><ele>6.3</ele><time>1970-01-01T00:00:00Z</time></trkpt>
			<trkpt lat="54.563560" lon="20.115990"><ele>5.3</ele><time>1970-01-01T00:00:00Z</time></trkpt>
			<trkpt lat="54.562610" lon="20.113740"><ele>7.7</ele><time>1970-01-01T00:00:00Z</time></trkpt>
			<trkpt lat="54.562160" lon="20.113030"><ele>9.1</ele><time>1970-01-01T00:00:00Z</time></trkpt>
			<trkpt lat="54.561420" lon="20.112050"><ele>9.2</ele><time>1970-01-01T00:00:00Z</time></trkpt>
			<trkpt lat="54.561350" lon="20.111880"><ele>8.9</ele><time>1970-01-01T00:00:00Z</time></trkpt>
			<trkpt lat="54.561320" lon="20.111470"><ele>8.8</ele><time>1970-01-01T00:00:00Z</time></trkpt>
			<trkpt lat="54.561340" lon="20.111010"><ele>9.4</ele><time>1970-01-01T00:00:00Z</time></trkpt>
			<trkpt lat="54.561550" lon="20.110880"><ele>9.8</ele><time>1970-01-01T00:00:00Z</time></trkpt>
			<trkpt lat="54.561950" lon="20.110530"><ele>7.9</ele><time>1970-01-01T00:00:00Z</time></trkpt>
			<trkpt lat="54.562160" lon="20.110260"><ele>6.5</ele><time>1970-01-01T00:00:00Z</time></trkpt>
			<trkpt lat="54.562190" lon="20.109900"><ele>5.8</ele><time>1970-01-01T00:00:00Z</time></trkpt>
			<trkpt lat="54.561710" lon="20.109160"><ele>7.1</ele><time>1970-01-01T00:00:00Z</time></trkpt>
			<trkpt lat="54.561220" lon="20.108290"><ele>11.5</ele><time>1970-01-01T00:00:00Z</time></trkpt>
			<trkpt lat="54.560480" lon="20.107290"><ele>13.5</ele><time>1970-01-01T00:00:00Z</time></trkpt>
			<trkpt lat="54.559890" lon="20.106910"><ele>14.8</ele><time>1970-01-01T00:00:00Z</time></trkpt>
			<trkpt lat="54.559530" lon="20.106380"><ele>15.3</ele><time>1970-01-01T00:00:00Z</time></trkpt>
			<trkpt lat="54.558840" lon="20.105700"><ele>17.2</ele><time>1970-01-01T00:00:00Z</time></trkpt>
			<trkpt lat="54.557770" lon="20.103890"><ele>18.9</ele><time>1970-01-01T00:00:00Z</time></trkpt>
			<trkpt lat="54.556400" lon="20.101430"><ele>17.3</ele><time>1970-01-01T00:00:00Z</time></trkpt>
			<trkpt lat="54.555120" lon="20.099650"><ele>15.6</ele><time>1970-01-01T00:00:00Z</time></trkpt>
			<trkpt lat="54.554510" lon="20.098640"><ele>14.5</ele><time>1970-01-01T00:00:00Z</time></trkpt>
			<trkpt lat="54.554060" lon="20.097480"><ele>15.0</ele><time>1970-01-01T00:00:00Z</time></trkpt>
			<trkpt lat="54.553440" lon="20.093160"><ele>9.3</ele><time>1970-01-01T00:00:00Z</time></trkpt>
			<trkpt lat="54.553170" lon="20.091990"><ele>6.1</ele><time>1970-01-01T00:00:00Z</time></trkpt>
			<trkpt lat="54.552850" lon="20.091830"><ele>6.2</ele><time>1970-01-01T00:00:00Z</time></trkpt>
			<trkpt lat="54.552570" lon="20.091560"><ele>6.7</ele><time>1970-01-01T00:00:00Z</time></trkpt>
			<trkpt lat="54.552400" lon="20.091550"><ele>7.7</ele><time>1970-01-01T00:00:00Z</time></trkpt>
			<trkpt lat="54.552280" lon="20.091420"><ele>8.4</ele><time>1970-01-01T00:00:00Z</time></trkpt>
			<trkpt lat="54.552230" lon="20.091260"><ele>8.9</ele><time>1970-01-01T00:00:00Z</time></trkpt>
			<trkpt lat="54.552020" lon="20.091160"><ele>10.5</ele><time>1970-01-01T00:00:00Z</time></trkpt>
			<trkpt lat="54.551870" lon="20.091310"><ele>11.9</ele><time>1970-01-01T00:00:00Z</time></trkpt>
			<trkpt lat="54.551680" lon="20.091260"><ele>13.3</ele><time>1970-01-01T00:00:00Z</time></trkpt>
			<trkpt lat="54.551460" lon="20.091410"><ele>14.7</ele><time>1970-01-01T00:00:00Z</time></trkpt>
			<trkpt lat="54.550990" lon="20.091190"><ele>16.7</ele><time>1970-01-01T00:00:00Z</time></trkpt>
			<trkpt lat="54.550730" lon="20.091170"><ele>17.2</ele><time>1970-01-01T00:00:00Z</time></trkpt>
			<trkpt lat="54.550420" lon="20.091210"><ele>16.8</ele><time>1970-01-01T00:00:00Z</time></trkpt>
			<trkpt lat="54.550230" lon="20.091400"><ele>16.4</ele><time>1970-01-01T00:00:00Z</time></trkpt>
			<trkpt lat="54.549770" lon="20.091250"><ele>16.8</ele><time>1970-01-01T00:00:00Z</time></trkpt>
			<trkpt lat="54.548910" lon="20.087730"><ele>15.7</ele><time>1970-01-01T00:00:00Z</time></trkpt>
			<trkpt lat="54.547000" lon="20.080850"><ele>8.0</ele><time>1970-01-01T00:00:00Z</time></trkpt>
			<trkpt lat="54.545850" lon="20.078140"><ele>12.3</ele><time>1970-01-01T00:00:00Z</time></trkpt>
			<trkpt lat="54.544090" lon="20.073500"><ele>9.9</ele><time>1970-01-01T00:00:00Z</time></trkpt>
			<trkpt lat="54.543350" lon="20.072110"><ele>12.1</ele><time>1970-01-01T00:00:00Z</time></trkpt>
			<trkpt lat="54.542870" lon="20.071340"><ele>11.2</ele><time>1970-01-01T00:00:00Z</time></trkpt>
			<trkpt lat="54.542280" lon="20.070510"><ele>10.6</ele><time>1970-01-01T00:00:00Z</time></trkpt>
			<trkpt lat="54.541230" lon="20.069210"><ele>12.3</ele><time>1970-01-01T00:00:00Z</time></trkpt>
			<trkpt lat="54.540270" lon="20.068190"><ele>13.0</ele><time>1970-01-01T00:00:00Z</time></trkpt>
			<trkpt lat="54.537220" lon="20.064150"><ele>11.3</ele><time>1970-01-01T00:00:00Z</time></trkpt>
			<trkpt lat="54.537200" lon="20.063900"><ele>11.0</ele><time>1970-01-01T00:00:00Z</time></trkpt>
			<trkpt lat="54.537240" lon="20.063670"><ele>10.7</ele><time>1970-01-01T00:00:00Z</time></trkpt>
			<trkpt lat="54.537340" lon="20.063450"><ele>10.4</ele><time>1970-01-01T00:00:00Z</time></trkpt>
			<trkpt lat="54.538800" lon="20.062510"><ele>11.0</ele><time>1970-01-01T00:00:00Z</time></trkpt>
			<trkpt lat="54.541030" lon="20.061510"><ele>7.2</ele><time>1970-01-01T00:00:00Z</time></trkpt>
			<trkpt lat="54.541320" lon="20.061340"><ele>7.6</ele><time>1970-01-01T00:00:00Z</time></trkpt>
			<trkpt lat="54.542540" lon="20.060470"><ele>6.9</ele><time>1970-01-01T00:00:00Z</time></trkpt>
			<trkpt lat="54.542800" lon="20.060190"><ele>6.8</ele><time>1970-01-01T00:00:00Z</time></trkpt>
			<trkpt lat="54.543250" lon="20.059830"><ele>7.2</ele><time>1970-01-01T00:00:00Z</time></trkpt>
			<trkpt lat="54.543590" lon="20.059210"><ele>7.0</ele><time>1970-01-01T00:00:00Z</time></trkpt>
			<trkpt lat="54.543650" lon="20.058890"><ele>6.8</ele><time>1970-01-01T00:00:00Z</time></trkpt>
			<trkpt lat="54.543650" lon="20.058720"><ele>6.8</ele><time>1970-01-01T00:00:00Z</time></trkpt>
			<trkpt lat="54.543030" lon="20.056030"><ele>4.1</ele><time>1970-01-01T00:00:00Z</time></trkpt>
			<trkpt lat="54.543040" lon="20.055890"><ele>4.0</ele><time>1970-01-01T00:00:00Z</time></trkpt>
			<trkpt lat="54.543120" lon="20.055720"><ele>3.7</ele><time>1970-01-01T00:00:00Z</time></trkpt>
			<trkpt lat="54.543390" lon="20.055490"><ele>3.0</ele><time>1970-01-01T00:00:00Z</time></trkpt>
			<trkpt lat="54.543470" lon="20.055490"><ele>2.9</ele><time>1970-01-01T00:00:00Z</time></trkpt>
			<trkpt lat="54.543580" lon="20.055630"><ele>2.8</ele><time>1970-01-01T00:00:00Z</time></trkpt>
			<trkpt lat="54.543890" lon="20.056410"><ele>2.8</ele><time>1970-01-01T00:00:00Z</time></trkpt>
			<trkpt lat="54.544210" lon="20.056970"><ele>3.8</ele><time>1970-01-01T00:00:00Z</time></trkpt>
			<trkpt lat="54.544440" lon="20.057640"><ele>5.2</ele><time>1970-01-01T00:00:00Z</time></trkpt>
			<trkpt lat="54.544530" lon="20.058250"><ele>6.2</ele><time>1970-01-01T00:00:00Z</time></trkpt>
			<trkpt lat="54.544530" lon="20.058590"><ele>6.4</ele><time>1970-01-01T00:00:00Z</time></trkpt>
			<trkpt lat="54.544900" lon="20.059950"><ele>5.9</ele><time>1970-01-01T00:00:00Z</time></trkpt>
			<trkpt lat="54.545110" lon="20.060130"><ele>5.5</ele><time>1970-01-01T00:00:00Z</time></trkpt>
			<trkpt lat="54.545280" lon="20.060130"><ele>5.1</ele><time>1970-01-01T00:00:00Z</time></trkpt>
			<trkpt lat="54.546270" lon="20.059840"><ele>3.2</ele><time>1970-01-01T00:00:00Z</time></trkpt>
			<trkpt lat="54.546390" lon="20.059660"><ele>3.3</ele><time>1970-01-01T00:00:00Z</time></trkpt>
			<trkpt lat="54.546870" lon="20.059560"><ele>2.3</ele><time>1970-01-01T00:00:00Z</time></trkpt>
			<trkpt lat="54.547190" lon="20.059330"><ele>1.4</ele><time>1970-01-01T00:00:00Z</time></trkpt>
			<trkpt lat="54.547310" lon="20.059050"><ele>0.8</ele><time>1970-01-01T00:00:00Z</time></trkpt>
			<trkpt lat="54.547430" lon="20.058620"><ele>-0.2</ele><time>1970-01-01T00:00:00Z</time></trkpt>
			<trkpt lat="54.547490" lon="20.056340"><ele>-0.6</ele><time>1970-01-01T00:00:00Z</time></trkpt>
			<trkpt lat="54.547620" lon="20.055720"><ele>-0.6</ele><time>1970-01-01T00:00:00Z</time></trkpt>
			<trkpt lat="54.549230" lon="20.051670"><ele>-2.9</ele><time>1970-01-01T00:00:00Z</time></trkpt>
			<trkpt lat="54.549500" lon="20.051070"><ele>-2.3</ele><time>1970-01-01T00:00:00Z</time></trkpt>
			<trkpt lat="54.549680" lon="20.050760"><ele>-1.9</ele><time>1970-01-01T00:00:00Z</time></trkpt>
			<trkpt lat="54.552550" lon="20.046920"><ele>-2.7</ele><time>1970-01-01T00:00:00Z</time></trkpt>
			<trkpt lat="54.552870" lon="20.046560"><ele>-3.1</ele><time>1970-01-01T00:00:00Z</time></trkpt>
			<trkpt lat="54.553120" lon="20.046380"><ele>-3.2</ele><time>1970-01-01T00:00:00Z</time></trkpt>
			<trkpt lat="54.553400" lon="20.046420"><ele>-3.2</ele><time>1970-01-01T00:00:00Z</time></trkpt>
			<trkpt lat="54.553760" lon="20.046630"><ele>-3.0</ele><time>1970-01-01T00:00:00Z</time></trkpt>
			<trkpt lat="54.555280" lon="20.047040"><ele>-2.7</ele><time>1970-01-01T00:00:00Z</time></trkpt>
			<trkpt lat="54.557000" lon="20.047450"><ele>-2.5</ele><time>1970-01-01T00:00:00Z</time></trkpt>
			<trkpt lat="54.557360" lon="20.047470"><ele>-2.1</ele><time>1970-01-01T00:00:00Z</time></trkpt>
			<trkpt lat="54.557720" lon="20.047430"><ele>-1.9</ele><time>1970-01-01T00:00:00Z</time></trkpt>
			<trkpt lat="54.560700" lon="20.045370"><ele>-1.6</ele><time>1970-01-01T00:00:00Z</time></trkpt>
			<trkpt lat="54.561100" lon="20.045050"><ele>-1.1</ele><time>1970-01-01T00:00:00Z</time></trkpt>
			<trkpt lat="54.565070" lon="20.040450"><ele>-1.8</ele><time>1970-01-01T00:00:00Z</time></trkpt>
			<trkpt lat="54.565270" lon="20.040110"><ele>-1.4</ele><time>1970-01-01T00:00:00Z</time></trkpt>
			<trkpt lat="54.566070" lon="20.038320"><ele>-1.4</ele><time>1970-01-01T00:00:00Z</time></trkpt>
			<trkpt lat="54.566620" lon="20.036750"><ele>-1.1</ele><time>1970-01-01T00:00:00Z</time></trkpt>
			<trkpt lat="54.566730" lon="20.036130"><ele>-1.5</ele><time>1970-01-01T00:00:00Z</time></trkpt>
			<trkpt lat="54.567080" lon="20.032850"><ele>-2.6</ele><time>1970-01-01T00:00:00Z</time></trkpt>
			<trkpt lat="54.567310" lon="20.031300"><ele>-2.7</ele><time>1970-01-01T00:00:00Z</time></trkpt>
			<trkpt lat="54.567690" lon="20.029390"><ele>-1.8</ele><time>1970-01-01T00:00:00Z</time></trkpt>
			<trkpt lat="54.567910" lon="20.028840"><ele>-2.0</ele><time>1970-01-01T00:00:00Z</time></trkpt>
			<trkpt lat="54.568500" lon="20.027770"><ele>-1.8</ele><time>1970-01-01T00:00:00Z</time></trkpt>
			<trkpt lat="54.569920" lon="20.024250"><ele>-2.9</ele><time>1970-01-01T00:00:00Z</time></trkpt>
			<trkpt lat="54.570280" lon="20.023570"><ele>-2.2</ele><time>1970-01-01T00:00:00Z</time></trkpt>
			<trkpt lat="54.570510" lon="20.023050"><ele>-2.0</ele><time>1970-01-01T00:00:00Z</time></trkpt>
			<trkpt lat="54.570960" lon="20.021710"><ele>-2.0</ele><time>1970-01-01T00:00:00Z</time></trkpt>
			<trkpt lat="54.571770" lon="20.019820"><ele>-2.0</ele><time>1970-01-01T00:00:00Z</time></trkpt>
			<trkpt lat="54.572080" lon="20.019360"><ele>-2.0</ele><time>1970-01-01T00:00:00Z</time></trkpt>
			<trkpt lat="54.572990" lon="20.018170"><ele>-2.0</ele><time>1970-01-01T00:00:00Z</time></trkpt>
			<trkpt lat="54.573200" lon="20.017810"><ele>-2.0</ele><time>1970-01-01T00:00:00Z</time></trkpt>
			<trkpt lat="54.574150" lon="20.015170"><ele>-1.2</ele><time>1970-01-01T00:00:00Z</time></trkpt>
			<trkpt lat="54.574300" lon="20.014430"><ele>-1.2</ele><time>1970-01-01T00:00:00Z</time></trkpt>
			<trkpt lat="54.574520" lon="20.011300"><ele>-1.2</ele><time>1970-01-01T00:00:00Z</time></trkpt>
			<trkpt lat="54.574960" lon="20.008400"><ele>-0.2</ele><time>1970-01-01T00:00:00Z</time></trkpt>
			<trkpt lat="54.575300" lon="20.007110"><ele>-1.0</ele><time>1970-01-01T00:00:00Z</time></trkpt>
			<trkpt lat="54.575490" lon="20.005320"><ele>-1.8</ele><time>1970-01-01T00:00:00Z</time></trkpt>
			<trkpt lat="54.575610" lon="20.004640"><ele>-1.6</ele><time>1970-01-01T00:00:00Z</time></trkpt>
			<trkpt lat="54.575880" lon="20.003690"><ele>-0.4</ele><time>1970-01-01T00:00:00Z</time></trkpt>
			<trkpt lat="54.576310" lon="20.002510"><ele>-0.4</ele><time>1970-01-01T00:00:00Z</time></trkpt>
			<trkpt lat="54.576690" lon="20.001260"><ele>-0.5</ele><time>1970-01-01T00:00:00Z</time></trkpt>
			<trkpt lat="54.577210" lon="19.999880"><ele>1.2</ele><time>1970-01-01T00:00:00Z</time></trkpt>
			<trkpt lat="54.577170" lon="19.999710"><ele>1.7</ele><time>1970-01-01T00:00:00Z</time></trkpt>
			<trkpt lat="54.577110" lon="19.999670"><ele>2.1</ele><time>1970-01-01T00:00:00Z</time></trkpt>
			<trkpt lat="54.577050" lon="19.999390"><ele>3.3</ele><time>1970-01-01T00:00:00Z</time></trkpt>
			<trkpt lat="54.576990" lon="19.998290"><ele>9.0</ele><time>1970-01-01T00:00:00Z</time></trkpt>
			<trkpt lat="54.577040" lon="19.997940"><ele>9.7</ele><time>1970-01-01T00:00:00Z</time></trkpt>
			<trkpt lat="54.577030" lon="19.997720"><ele>10.4</ele><time>1970-01-01T00:00:00Z</time></trkpt>
			<trkpt lat="54.576910" lon="19.997350"><ele>12.1</ele><time>1970-01-01T00:00:00Z</time></trkpt>
			<trkpt lat="54.576910" lon="19.996400"><ele>11.8</ele><time>1970-01-01T00:00:00Z</time></trkpt>
			<trkpt lat="54.576810" lon="19.995570"><ele>11.3</ele><time>1970-01-01T00:00:00Z</time></trkpt>
			<trkpt lat="54.576540" lon="19.994930"><ele>11.0</ele><time>1970-01-01T00:00:00Z</time></trkpt>
			<trkpt lat="54.576460" lon="19.994200"><ele>9.1</ele><time>1970-01-01T00:00:00Z</time></trkpt>
			<trkpt lat="54.576180" lon="19.993120"><ele>8.0</ele><time>1970-01-01T00:00:00Z</time></trkpt>
			<trkpt lat="54.576080" lon="19.992310"><ele>5.5</ele><time>1970-01-01T00:00:00Z</time></trkpt>
			<trkpt lat="54.575680" lon="19.991790"><ele>4.5</ele><time>1970-01-01T00:00:00Z</time></trkpt>
			<trkpt lat="54.575590" lon="19.991430"><ele>3.6</ele><time>1970-01-01T00:00:00Z</time></trkpt>
			<trkpt lat="54.575120" lon="19.990860"><ele>2.2</ele><time>1970-01-01T00:00:00Z</time></trkpt>
			<trkpt lat="54.574900" lon="19.990120"><ele>-0.3</ele><time>1970-01-01T00:00:00Z</time></trkpt>
			<trkpt lat="54.574880" lon="19.989190"><ele>0.1</ele><time>1970-01-01T00:00:00Z</time></trkpt>
			<trkpt lat="54.574640" lon="19.988780"><ele>0.4</ele><time>1970-01-01T00:00:00Z</time></trkpt>
			<trkpt lat="54.573720" lon="19.986410"><ele>4.0</ele><time>1970-01-01T00:00:00Z</time></trkpt>
			<trkpt lat="54.573490" lon="19.985650"><ele>2.9</ele><time>1970-01-01T00:00:00Z</time></trkpt>
			<trkpt lat="54.573230" lon="19.985220"><ele>1.9</ele><time>1970-01-01T00:00:00Z</time></trkpt>
			<trkpt lat="54.572960" lon="19.984670"><ele>1.6</ele><time>1970-01-01T00:00:00Z</time></trkpt>
			<trkpt lat="54.572510" lon="19.984640"><ele>2.6</ele><time>1970-01-01T00:00:00Z</time></trkpt>
			<trkpt lat="54.571740" lon="19.985210"><ele>3.0</ele><time>1970-01-01T00:00:00Z</time></trkpt>
			<trkpt lat="54.571630" lon="19.985260"><ele>3.1</ele><time>1970-01-01T00:00:00Z</time></trkpt>
			<trkpt lat="54.571120" lon="19.985220"><ele>3.8</ele><time>1970-01-01T00:00:00Z</time></trkpt>
			<trkpt lat="54.570830" lon="19.985250"><ele>4.1</ele><time>1970-01-01T00:00:00Z</time></trkpt>
			<trkpt lat="54.570210" lon="19.985090"><ele>2.6</ele><time>1970-01-01T00:00:00Z</time></trkpt>
			<trkpt lat="54.569210" lon="19.985100"><ele>2.8</ele><time>1970-01-01T00:00:00Z</time></trkpt>
			<trkpt lat="54.568500" lon="19.985010"><ele>2.2</ele><time>1970-01-01T00:00:00Z</time></trkpt>
			<trkpt lat="54.568320" lon="19.984830"><ele>2.4</ele><time>1970-01-01T00:00:00Z</time></trkpt>
			<trkpt lat="54.567820" lon="19.984870"><ele>2.2</ele><time>1970-01-01T00:00:00Z</time></trkpt>
			<trkpt lat="54.567490" lon="19.984690"><ele>2.4</ele><time>1970-01-01T00:00:00Z</time></trkpt>
			<trkpt lat="54.567290" lon="19.984810"><ele>2.4</ele><time>1970-01-01T00:00:00Z</time></trkpt>
			<trkpt lat="54.567160" lon="19.984830"><ele>2.5</ele><time>1970-01-01T00:00:00Z</time></trkpt>
			<trkpt lat="54.567040" lon="19.984780"><ele>2.5</ele><time>1970-01-01T00:00:00Z</time></trkpt>
			<trkpt lat="54.566910" lon="19.984820"><ele>2.6</ele><time>1970-01-01T00:00:00Z</time></trkpt>
			<trkpt lat="54.566670" lon="19.985060"><ele>2.9</ele><time>1970-01-01T00:00:00Z</time></trkpt>
			<trkpt lat="54.566510" lon="19.985170"><ele>3.0</ele><time>1970-01-01T00:00:00Z</time></trkpt>
			<trkpt lat="54.563930" lon="19.985940"><ele>6.3</ele><time>1970-01-01T00:00:00Z</time></trkpt>
			<trkpt lat="54.563420" lon="19.986140"><ele>6.7</ele><time>1970-01-01T00:00:00Z</time></trkpt>
			<trkpt lat="54.562920" lon="19.986270"><ele>7.2</ele><time>1970-01-01T00:00:00Z</time></trkpt>
			<trkpt lat="54.562330" lon="19.986480"><ele>8.2</ele><time>1970-01-01T00:00:00Z</time></trkpt>
			<trkpt lat="54.562150" lon="19.986570"><ele>8.4</ele><time>1970-01-01T00:00:00Z</time></trkpt>
			<trkpt lat="54.561960" lon="19.986930"><ele>8.3</ele><time>1970-01-01T00:00:00Z</time></trkpt>
			<trkpt lat="54.561720" lon="19.987020"><ele>8.5</ele><time>1970-01-01T00:00:00Z</time></trkpt>
			<trkpt lat="54.560950" lon="19.987120"><ele>8.5</ele><time>1970-01-01T00:00:00Z</time></trkpt>
			<trkpt lat="54.560780" lon="19.987080"><ele>8.2</ele><time>1970-01-01T00:00:00Z</time></trkpt>
			<trkpt lat="54.559480" lon="19.986950"><ele>5.5</ele><time>1970-01-01T00:00:00Z</time></trkpt>
			<trkpt lat="54.559310" lon="19.986840"><ele>5.7</ele><time>1970-01-01T00:00:00Z</time></trkpt>
			<trkpt lat="54.559240" lon="19.986680"><ele>5.8</ele><time>1970-01-01T00:00:00Z</time></trkpt>
			<trkpt lat="54.559200" lon="19.986370"><ele>6.0</ele><time>1970-01-01T00:00:00Z</time></trkpt>
			<trkpt lat="54.559180" lon="19.985460"><ele>6.0</ele><time>1970-01-01T00:00:00Z</time></trkpt>
			<trkpt lat="54.559080" lon="19.984700"><ele>6.5</ele><time>1970-01-01T00:00:00Z</time></trkpt>
			<trkpt lat="54.558890" lon="19.984010"><ele>7.4</ele><time>1970-01-01T00:00:00Z</time></trkpt>
			<trkpt lat="54.556030" lon="19.979070"><ele>9.6</ele><time>1970-01-01T00:00:00Z</time></trkpt>
			<trkpt lat="54.555500" lon="19.977870"><ele>8.7</ele><time>1970-01-01T00:00:00Z</time></trkpt>
			<trkpt lat="54.552900" lon="19.972330"><ele>26.0</ele><time>1970-01-01T00:00:00Z</time></trkpt>
			<trkpt lat="54.552230" lon="19.971160"><ele>30.9</ele><time>1970-01-01T00:00:00Z</time></trkpt>
			<trkpt lat="54.551730" lon="19.969840"><ele>34.1</ele><time>1970-01-01T00:00:00Z</time></trkpt>
			<trkpt lat="54.550500" lon="19.970600"><ele>32.1</ele><time>1970-01-01T00:00:00Z</time></trkpt>
			<trkpt lat="54.549920" lon="19.970840"><ele>31.7</ele><time>1970-01-01T00:00:00Z</time></trkpt>
			<trkpt lat="54.547950" lon="19.971440"><ele>27.0</ele><time>1970-01-01T00:00:00Z</time></trkpt>
			<trkpt lat="54.546890" lon="19.971630"><ele>26.1</ele><time>1970-01-01T00:00:00Z</time></trkpt>
			<trkpt lat="54.546020" lon="19.971700"><ele>24.3</ele><time>1970-01-01T00:00:00Z</time></trkpt>
			<trkpt lat="54.544810" lon="19.971970"><ele>21.5</ele><time>1970-01-01T00:00:00Z</time></trkpt>
			<trkpt lat="54.544270" lon="19.972180"><ele>19.1</ele><time>1970-01-01T00:00:00Z</time></trkpt>
			<trkpt lat="54.543260" lon="19.972480"><ele>20.3</ele><time>1970-01-01T00:00:00Z</time></trkpt>
			<trkpt lat="54.539300" lon="19.973780"><ele>20.5</ele><time>1970-01-01T00:00:00Z</time></trkpt>
			<trkpt lat="54.537810" lon="19.974330"><ele>19.8</ele><time>1970-01-01T00:00:00Z</time></trkpt>
			<trkpt lat="54.536200" lon="19.975580"><ele>20.4</ele><time>1970-01-01T00:00:00Z</time></trkpt>
			<trkpt lat="54.533680" lon="19.977470"><ele>14.3</ele><time>1970-01-01T00:00:00Z</time></trkpt>
			<trkpt lat="54.532640" lon="19.978190"><ele>14.7</ele><time>1970-01-01T00:00:00Z</time></trkpt>
			<trkpt lat="54.523320" lon="19.985300"><ele>5.0</ele><time>1970-01-01T00:00:00Z</time></trkpt>
			<trkpt lat="54.522580" lon="19.985760"><ele>6.8</ele><time>1970-01-01T00:00:00Z</time></trkpt>
			<trkpt lat="54.521850" lon="19.986350"><ele>7.0</ele><time>1970-01-01T00:00:00Z</time></trkpt>
			<trkpt lat="54.521460" lon="19.986760"><ele>5.6</ele><time>1970-01-01T00:00:00Z</time></trkpt>
			<trkpt lat="54.519870" lon="19.990000"><ele>4.3</ele><time>1970-01-01T00:00:00Z</time></trkpt>
			<trkpt lat="54.519420" lon="19.991050"><ele>3.8</ele><time>1970-01-01T00:00:00Z</time></trkpt>
			<trkpt lat="54.518970" lon="19.992560"><ele>4.7</ele><time>1970-01-01T00:00:00Z</time></trkpt>
			<trkpt lat="54.518830" lon="19.993570"><ele>6.1</ele><time>1970-01-01T00:00:00Z</time></trkpt>
			<trkpt lat="54.518200" lon="19.996430"><ele>7.0</ele><time>1970-01-01T00:00:00Z</time></trkpt>
			<trkpt lat="54.517160" lon="20.000970"><ele>5.5</ele><time>1970-01-01T00:00:00Z</time></trkpt>
			<trkpt lat="54.516510" lon="20.003620"><ele>5.4</ele><time>1970-01-01T00:00:00Z</time></trkpt>
			<trkpt lat="54.516070" lon="20.004650"><ele>8.8</ele><time>1970-01-01T00:00:00Z</time></trkpt>
			<trkpt lat="54.515690" lon="20.005320"><ele>9.8</ele><time>1970-01-01T00:00:00Z</time></trkpt>
			<trkpt lat="54.515090" lon="20.006260"><ele>8.1</ele><time>1970-01-01T00:00:00Z</time></trkpt>
			<trkpt lat="54.514500" lon="20.007330"><ele>10.8</ele><time>1970-01-01T00:00:00Z</time></trkpt>
			<trkpt lat="54.514290" lon="20.007540"><ele>13.4</ele><time>1970-01-01T00:00:00Z</time></trkpt>
			<trkpt lat="54.514160" lon="20.007550"><ele>14.5</ele><time>1970-01-01T00:00:00Z</time></trkpt>
			<trkpt lat="54.513610" lon="20.007120"><ele>17.8</ele><time>1970-01-01T00:00:00Z</time></trkpt>
			<trkpt lat="54.513450" lon="20.007090"><ele>19.4</ele><time>1970-01-01T00:00:00Z</time></trkpt>
			<trkpt lat="54.513290" lon="20.007150"><ele>22.0</ele><time>1970-01-01T00:00:00Z</time></trkpt>
			<trkpt lat="54.512950" lon="20.007620"><ele>30.1</ele><time>1970-01-01T00:00:00Z</time></trkpt>
			<trkpt lat="54.512740" lon="20.008330"><ele>34.0</ele><time>1970-01-01T00:00:00Z</time></trkpt>
			<trkpt lat="54.512460" lon="20.008900"><ele>34.1</ele><time>1970-01-01T00:00:00Z</time></trkpt>
			<trkpt lat="54.511980" lon="20.009460"><ele>31.6</ele><time>1970-01-01T00:00:00Z</time></trkpt>
			<trkpt lat="54.511790" lon="20.010160"><ele>31.8</ele><time>1970-01-01T00:00:00Z</time></trkpt>
			<trkpt lat="54.511500" lon="20.010950"><ele>31.9</ele><time>1970-01-01T00:00:00Z</time></trkpt>
			<trkpt lat="54.511210" lon="20.011440"><ele>32.3</ele><time>1970-01-01T00:00:00Z</time></trkpt>
			<trkpt lat="54.510820" lon="20.011930"><ele>32.7</ele><time>1970-01-01T00:00:00Z</time></trkpt>
			<trkpt lat="54.507440" lon="20.013880"><ele>35.1</ele><time>1970-01-01T00:00:00Z</time></trkpt>
			<trkpt lat="54.502400" lon="20.016710"><ele>40.9</ele><time>1970-01-01T00:00:00Z</time></trkpt>
			<trkpt lat="54.499450" lon="20.018320"><ele>41.0</ele><time>1970-01-01T00:00:00Z</time></trkpt>
			<trkpt lat="54.491520" lon="20.022830"><ele>48.5</ele><time>1970-01-01T00:00:00Z</time></trkpt>
			<trkpt lat="54.483710" lon="20.027190"><ele>57.7</ele><time>1970-01-01T00:00:00Z</time></trkpt>
			<trkpt lat="54.484190" lon="20.029290"><ele>58.1</ele><time>1970-01-01T00:00:00Z</time></trkpt>
			<trkpt lat="54.489660" lon="20.049500"><ele>67.9</ele><time>1970-01-01T00:00:00Z</time></trkpt>
			<trkpt lat="54.500090" lon="20.088400"><ele>77.4</ele><time>1970-01-01T00:00:00Z</time></trkpt>
			<trkpt lat="54.500480" lon="20.089680"><ele>76.2</ele><time>1970-01-01T00:00:00Z</time></trkpt>
			<trkpt lat="54.501880" lon="20.094970"><ele>72.8</ele><time>1970-01-01T00:00:00Z</time></trkpt>
			<trkpt lat="54.502060" lon="20.095470"><ele>73.1</ele><time>1970-01-01T00:00:00Z</time></trkpt>
			<trkpt lat="54.502530" lon="20.096060"><ele>73.1</ele><time>1970-01-01T00:00:00Z</time></trkpt>
			<trkpt lat="54.502770" lon="20.096590"><ele>73.3</ele><time>1970-01-01T00:00:00Z</time></trkpt>
			<trkpt lat="54.502180" lon="20.099720"><ele>74.2</ele><time>1970-01-01T00:00:00Z</time></trkpt>
			<trkpt lat="54.502180" lon="20.102490"><ele>75.7</ele><time>1970-01-01T00:00:00Z</time></trkpt>
			<trkpt lat="54.502150" lon="20.103070"><ele>76.2</ele><time>1970-01-01T00:00:00Z</time></trkpt>
			<trkpt lat="54.502010" lon="20.103790"><ele>76.6</ele><time>1970-01-01T00:00:00Z</time></trkpt>
			<trkpt lat="54.501770" lon="20.106370"><ele>76.3</ele><time>1970-01-01T00:00:00Z</time></trkpt>
			<trkpt lat="54.501800" lon="20.107170"><ele>77.3</ele><time>1970-01-01T00:00:00Z</time></trkpt>
			<trkpt lat="54.501940" lon="20.107880"><ele>78.2</ele><time>1970-01-01T00:00:00Z</time></trkpt>
			<trkpt lat="54.502450" lon="20.109150"><ele>78.9</ele><time>1970-01-01T00:00:00Z</time></trkpt>
			<trkpt lat="54.502700" lon="20.110240"><ele>78.8</ele><time>1970-01-01T00:00:00Z</time></trkpt>
			<trkpt lat="54.502450" lon="20.118020"><ele>82.0</ele><time>1970-01-01T00:00:00Z</time></trkpt>
			<trkpt lat="54.502450" lon="20.119230"><ele>81.1</ele><time>1970-01-01T00:00:00Z</time></trkpt>
			<trkpt lat="54.502590" lon="20.120390"><ele>80.7</ele><time>1970-01-01T00:00:00Z</time></trkpt>
			<trkpt lat="54.502650" lon="20.121430"><ele>81.5</ele><time>1970-01-01T00:00:00Z</time></trkpt>
			<trkpt lat="54.503060" lon="20.125880"><ele>81.9</ele><time>1970-01-01T00:00:00Z</time></trkpt>
			<trkpt lat="54.503170" lon="20.128480"><ele>81.2</ele><time>1970-01-01T00:00:00Z</time></trkpt>
			<trkpt lat="54.503030" lon="20.132010"><ele>81.8</ele><time>1970-01-01T00:00:00Z</time></trkpt>
			<trkpt lat="54.503060" lon="20.136510"><ele>83.4</ele><time>1970-01-01T00:00:00Z</time></trkpt>
			<trkpt lat="54.503030" lon="20.139930"><ele>82.1</ele><time>1970-01-01T00:00:00Z</time></trkpt>
			<trkpt lat="54.502980" lon="20.141290"><ele>81.4</ele><time>1970-01-01T00:00:00Z</time></trkpt>
			<trkpt lat="54.502900" lon="20.141780"><ele>81.6</ele><time>1970-01-01T00:00:00Z</time></trkpt>
			<trkpt lat="54.502150" lon="20.143610"><ele>82.0</ele><time>1970-01-01T00:00:00Z</time></trkpt>
			<trkpt lat="54.501560" lon="20.144840"><ele>82.9</ele><time>1970-01-01T00:00:00Z</time></trkpt>
			<trkpt lat="54.500690" lon="20.147070"><ele>82.1</ele><time>1970-01-01T00:00:00Z</time></trkpt>
			<trkpt lat="54.499810" lon="20.149050"><ele>82.8</ele><time>1970-01-01T00:00:00Z</time></trkpt>
			<trkpt lat="54.499630" lon="20.149550"><ele>82.6</ele><time>1970-01-01T00:00:00Z</time></trkpt>
			<trkpt lat="54.499520" lon="20.150130"><ele>82.2</ele><time>1970-01-01T00:00:00Z</time></trkpt>
			<trkpt lat="54.499460" lon="20.151100"><ele>80.9</ele><time>1970-01-01T00:00:00Z</time></trkpt>
			<trkpt lat="54.499360" lon="20.151490"><ele>80.8</ele><time>1970-01-01T00:00:00Z</time></trkpt>
			<trkpt lat="54.499190" lon="20.151840"><ele>81.2</ele><time>1970-01-01T00:00:00Z</time></trkpt>
			<trkpt lat="54.498990" lon="20.152150"><ele>81.5</ele><time>1970-01-01T00:00:00Z</time></trkpt>
			<trkpt lat="54.498900" lon="20.152400"><ele>81.5</ele><time>1970-01-01T00:00:00Z</time></trkpt>
			<trkpt lat="54.498740" lon="20.152490"><ele>81.5</ele><time>1970-01-01T00:00:00Z</time></trkpt>
			<trkpt lat="54.498570" lon="20.152710"><ele>81.2</ele><time>1970-01-01T00:00:00Z</time></trkpt>
			<trkpt lat="54.498430" lon="20.153190"><ele>81.0</ele><time>1970-01-01T00:00:00Z</time></trkpt>
			<trkpt lat="54.498390" lon="20.153950"><ele>80.2</ele><time>1970-01-01T00:00:00Z</time></trkpt>
			<trkpt lat="54.498430" lon="20.154350"><ele>79.9</ele><time>1970-01-01T00:00:00Z</time></trkpt>
			<trkpt lat="54.498430" lon="20.156280"><ele>80.3</ele><time>1970-01-01T00:00:00Z</time></trkpt>
			<trkpt lat="54.497970" lon="20.162930"><ele>81.9</ele><time>1970-01-01T00:00:00Z</time></trkpt>
			<trkpt lat="54.497750" lon="20.166880"><ele>82.7</ele><time>1970-01-01T00:00:00Z</time></trkpt>
			<trkpt lat="54.497600" lon="20.170480"><ele>83.0</ele><time>1970-01-01T00:00:00Z</time></trkpt>
			<trkpt lat="54.497520" lon="20.170610"><ele>83.0</ele><time>1970-01-01T00:00:00Z</time></trkpt>
			<trkpt lat="54.497400" lon="20.170630"><ele>83.1</ele><time>1970-01-01T00:00:00Z</time></trkpt>
			<trkpt lat="54.492720" lon="20.168650"><ele>87.1</ele><time>1970-01-01T00:00:00Z</time></trkpt>
			<trkpt lat="54.492460" lon="20.168610"><ele>87.4</ele><time>1970-01-01T00:00:00Z</time></trkpt>
			<trkpt lat="54.492220" lon="20.168630"><ele>87.7</ele><time>1970-01-01T00:00:00Z</time></trkpt>
			<trkpt lat="54.492040" lon="20.168730"><ele>87.8</ele><time>1970-01-01T00:00:00Z</time></trkpt>
			<trkpt lat="54.491840" lon="20.168990"><ele>87.8</ele><time>1970-01-01T00:00:00Z</time></trkpt>
			<trkpt lat="54.488540" lon="20.176190"><ele>99.9</ele><time>1970-01-01T00:00:00Z</time></trkpt>
			<trkpt lat="54.487790" lon="20.177700"><ele>102.0</ele><time>1970-01-01T00:00:00Z</time></trkpt>
			<trkpt lat="54.485740" lon="20.181330"><ele>98.4</ele><time>1970-01-01T00:00:00Z</time></trkpt>
			<trkpt lat="54.485280" lon="20.183390"><ele>93.8</ele><time>1970-01-01T00:00:00Z</time></trkpt>
			<trkpt lat="54.485280" lon="20.183960"><ele>92.2</ele><time>1970-01-01T00:00:00Z</time></trkpt>
			<trkpt lat="54.485500" lon="20.185120"><ele>88.6</ele><time>1970-01-01T00:00:00Z</time></trkpt>
			<trkpt lat="54.485500" lon="20.185500"><ele>87.7</ele><time>1970-01-01T00:00:00Z</time></trkpt>
			<trkpt lat="54.485350" lon="20.186030"><ele>87.1</ele><time>1970-01-01T00:00:00Z</time></trkpt>
			<trkpt lat="54.483800" lon="20.183720"><ele>90.8</ele><time>1970-01-01T00:00:00Z</time></trkpt>
			<trkpt lat="54.483330" lon="20.185920"><ele>92.0</ele><time>1970-01-01T00:00:00Z</time></trkpt>
			<trkpt lat="54.483140" lon="20.186280"><ele>91.7</ele><time>1970-01-01T00:00:00Z</time></trkpt>
			<trkpt lat="54.482500" lon="20.187140"><ele>92.5</ele><time>1970-01-01T00:00:00Z</time></trkpt>
			<trkpt lat="54.482070" lon="20.187650"><ele>92.7</ele><time>1970-01-01T00:00:00Z</time></trkpt>
			<trkpt lat="54.481510" lon="20.188230"><ele>92.8</ele><time>1970-01-01T00:00:00Z</time></trkpt>
			<trkpt lat="54.481160" lon="20.188310"><ele>92.9</ele><time>1970-01-01T00:00:00Z</time></trkpt>
			<trkpt lat="54.476930" lon="20.188700"><ele>90.3</ele><time>1970-01-01T00:00:00Z</time></trkpt>
			<trkpt lat="54.475660" lon="20.188750"><ele>93.8</ele><time>1970-01-01T00:00:00Z</time></trkpt>
			<trkpt lat="54.475150" lon="20.189300"><ele>97.3</ele><time>1970-01-01T00:00:00Z</time></trkpt>
			<trkpt lat="54.474070" lon="20.190290"><ele>99.5</ele><time>1970-01-01T00:00:00Z</time></trkpt>
			<trkpt lat="54.473610" lon="20.190910"><ele>99.2</ele><time>1970-01-01T00:00:00Z</time></trkpt>
			<trkpt lat="54.472750" lon="20.192180"><ele>100.0</ele><time>1970-01-01T00:00:00Z</time></trkpt>
			<trkpt lat="54.472370" lon="20.192620"><ele>99.7</ele><time>1970-01-01T00:00:00Z</time></trkpt>
			<trkpt lat="54.472120" lon="20.192760"><ele>99.2</ele><time>1970-01-01T00:00:00Z</time></trkpt>
			<trkpt lat="54.471790" lon="20.192750"><ele>98.9</ele><time>1970-01-01T00:00:00Z</time></trkpt>
			<trkpt lat="54.471360" lon="20.192560"><ele>97.9</ele><time>1970-01-01T00:00:00Z</time></trkpt>
			<trkpt lat="54.470890" lon="20.192070"><ele>97.1</ele><time>1970-01-01T00:00:00Z</time></trkpt>
			<trkpt lat="54.470310" lon="20.191320"><ele>98.0</ele><time>1970-01-01T00:00:00Z</time></trkpt>
			<trkpt lat="54.469470" lon="20.190360"><ele>98.9</ele><time>1970-01-01T00:00:00Z</time></trkpt>
			<trkpt lat="54.463280" lon="20.182070"><ele>103.8</ele><time>1970-01-01T00:00:00Z</time></trkpt>
			<trkpt lat="54.461770" lon="20.180160"><ele>105.1</ele><time>1970-01-01T00:00:00Z</time></trkpt>
			<trkpt lat="54.461500" lon="20.179610"><ele>105.3</ele><time>1970-01-01T00:00:00Z</time></trkpt>
			<trkpt lat="54.459770" lon="20.175020"><ele>105.7</ele><time>1970-01-01T00:00:00Z</time></trkpt>
			<trkpt lat="54.458910" lon="20.173290"><ele>105.8</ele><time>1970-01-01T00:00:00Z</time></trkpt>
			<trkpt lat="54.458540" lon="20.172990"><ele>102.4</ele><time>1970-01-01T00:00:00Z</time></trkpt>
			<trkpt lat="54.457400" lon="20.172580"><ele>98.2</ele><time>1970-01-01T00:00:00Z</time></trkpt>
			<trkpt lat="54.456740" lon="20.172210"><ele>95.4</ele><time>1970-01-01T00:00:00Z</time></trkpt>
			<trkpt lat="54.446470" lon="20.174090"><ele>93.2</ele><time>1970-01-01T00:00:00Z</time></trkpt>
			<trkpt lat="54.441240" lon="20.174590"><ele>99.7</ele><time>1970-01-01T00:00:00Z</time></trkpt>
			<trkpt lat="54.438320" lon="20.176220"><ele>94.6</ele><time>1970-01-01T00:00:00Z</time></trkpt>
			<trkpt lat="54.437430" lon="20.176620"><ele>94.4</ele><time>1970-01-01T00:00:00Z</time></trkpt>
			<trkpt lat="54.436690" lon="20.176420"><ele>97.2</ele><time>1970-01-01T00:00:00Z</time></trkpt>
			<trkpt lat="54.436200" lon="20.176180"><ele>99.3</ele><time>1970-01-01T00:00:00Z</time></trkpt>
			<trkpt lat="54.435620" lon="20.175340"><ele>100.7</ele><time>1970-01-01T00:00:00Z</time></trkpt>
			<trkpt lat="54.434930" lon="20.173810"><ele>102.7</ele><time>1970-01-01T00:00:00Z</time></trkpt>
			<trkpt lat="54.434490" lon="20.173690"><ele>102.8</ele><time>1970-01-01T00:00:00Z</time></trkpt>
			<trkpt lat="54.434380" lon="20.175010"><ele>102.0</ele><time>1970-01-01T00:00:00Z</time></trkpt>
			<trkpt lat="54.433690" lon="20.176260"><ele>102.0</ele><time>1970-01-01T00:00:00Z</time></trkpt>
			<trkpt lat="54.433540" lon="20.176760"><ele>102.0</ele><time>1970-01-01T00:00:00Z</time></trkpt>
			<trkpt lat="54.432590" lon="20.178120"><ele>102.2</ele><time>1970-01-01T00:00:00Z</time></trkpt>
			<trkpt lat="54.432720" lon="20.178450"><ele>102.0</ele><time>1970-01-01T00:00:00Z</time></trkpt>
			<trkpt lat="54.433040" lon="20.179050"><ele>101.4</ele><time>1970-01-01T00:00:00Z</time></trkpt>
			<trkpt lat="54.433420" lon="20.179610"><ele>99.7</ele><time>1970-01-01T00:00:00Z</time></trkpt>
			<trkpt lat="54.433700" lon="20.180150"><ele>97.9</ele><time>1970-01-01T00:00:00Z</time></trkpt>
			<trkpt lat="54.436440" lon="20.187000"><ele>106.6</ele><time>1970-01-01T00:00:00Z</time></trkpt>
			<trkpt lat="54.437300" lon="20.189300"><ele>104.6</ele><time>1970-01-01T00:00:00Z</time></trkpt>
			<trkpt lat="54.438180" lon="20.194180"><ele>101.3</ele><time>1970-01-01T00:00:00Z</time></trkpt>
			<trkpt lat="54.439340" lon="20.200110"><ele>102.7</ele><time>1970-01-01T00:00:00Z</time></trkpt>
			<trkpt lat="54.439640" lon="20.201890"><ele>104.5</ele><time>1970-01-01T00:00:00Z</time></trkpt>
			<trkpt lat="54.440430" lon="20.206040"><ele>111.3</ele><time>1970-01-01T00:00:00Z</time></trkpt>
			<trkpt lat="54.440400" lon="20.210140"><ele>113.8</ele><time>1970-01-01T00:00:00Z</time></trkpt>
			<trkpt lat="54.440500" lon="20.210940"><ele>112.5</ele><time>1970-01-01T00:00:00Z</time></trkpt>
			<trkpt lat="54.442040" lon="20.219940"><ele>117.4</ele><time>1970-01-01T00:00:00Z</time></trkpt>
			<trkpt lat="54.442900" lon="20.224350"><ele>120.2</ele><time>1970-01-01T00:00:00Z</time></trkpt>
			<trkpt lat="54.443200" lon="20.226840"><ele>125.7</ele><time>1970-01-01T00:00:00Z</time></trkpt>
			<trkpt lat="54.443140" lon="20.227560"><ele>125.7</ele><time>1970-01-01T00:00:00Z</time></trkpt>
			<trkpt lat="54.442650" lon="20.228980"><ele>119.7</ele><time>1970-01-01T00:00:00Z</time></trkpt>
			<trkpt lat="54.442460" lon="20.229790"><ele>119.5</ele><time>1970-01-01T00:00:00Z</time></trkpt>
			<trkpt lat="54.442570" lon="20.231300"><ele>113.9</ele><time>1970-01-01T00:00:00Z</time></trkpt>
			<trkpt lat="54.442630" lon="20.233500"><ele>111.6</ele><time>1970-01-01T00:00:00Z</time></trkpt>
			<trkpt lat="54.442630" lon="20.235730"><ele>107.9</ele><time>1970-01-01T00:00:00Z</time></trkpt>
			<trkpt lat="54.442730" lon="20.238980"><ele>104.9</ele><time>1970-01-01T00:00:00Z</time></trkpt>
			<trkpt lat="54.442790" lon="20.239540"><ele>104.9</ele><time>1970-01-01T00:00:00Z</time></trkpt>
			<trkpt lat="54.444300" lon="20.244920"><ele>104.5</ele><time>1970-01-01T00:00:00Z</time></trkpt>
			<trkpt lat="54.445230" lon="20.249900"><ele>100.0</ele><time>1970-01-01T00:00:00Z</time></trkpt>
			<trkpt lat="54.446080" lon="20.254720"><ele>100.2</ele><time>1970-01-01T00:00:00Z</time></trkpt>
			<trkpt lat="54.446630" lon="20.262260"><ele>98.6</ele><time>1970-01-01T00:00:00Z</time></trkpt>
			<trkpt lat="54.446870" lon="20.266720"><ele>99.8</ele><time>1970-01-01T00:00:00Z</time></trkpt>
			<trkpt lat="54.445600" lon="20.281460"><ele>94.0</ele><time>1970-01-01T00:00:00Z</time></trkpt>
			<trkpt lat="54.445610" lon="20.282280"><ele>92.3</ele><time>1970-01-01T00:00:00Z</time></trkpt>
			<trkpt lat="54.445900" lon="20.286420"><ele>99.6</ele><time>1970-01-01T00:00:00Z</time></trkpt>
			<trkpt lat="54.446280" lon="20.290060"><ele>99.7</ele><time>1970-01-01T00:00:00Z</time></trkpt>
			<trkpt lat="54.446340" lon="20.293170"><ele>104.1</ele><time>1970-01-01T00:00:00Z</time></trkpt>
			<trkpt lat="54.445160" lon="20.293370"><ele>101.4</ele><time>1970-01-01T00:00:00Z</time></trkpt>
			<trkpt lat="54.443160" lon="20.295930"><ele>103.5</ele><time>1970-01-01T00:00:00Z</time></trkpt>
			<trkpt lat="54.441060" lon="20.298890"><ele>103.9</ele><time>1970-01-01T00:00:00Z</time></trkpt>
			<trkpt lat="54.440580" lon="20.299260"><ele>104.5</ele><time>1970-01-01T00:00:00Z</time></trkpt>
			<trkpt lat="54.439620" lon="20.300080"><ele>103.9</ele><time>1970-01-01T00:00:00Z</time></trkpt>
			<trkpt lat="54.439370" lon="20.300330"><ele>102.6</ele><time>1970-01-01T00:00:00Z</time></trkpt>
			<trkpt lat="54.439140" lon="20.300770"><ele>100.1</ele><time>1970-01-01T00:00:00Z</time></trkpt>
			<trkpt lat="54.438260" lon="20.303290"><ele>99.4</ele><time>1970-01-01T00:00:00Z</time></trkpt>
			<trkpt lat="54.438150" lon="20.303480"><ele>101.3</ele><time>1970-01-01T00:00:00Z</time></trkpt>
			<trkpt lat="54.437720" lon="20.303760"><ele>104.5</ele><time>1970-01-01T00:00:00Z</time></trkpt>
			<trkpt lat="54.436990" lon="20.304040"><ele>105.0</ele><time>1970-01-01T00:00:00Z</time></trkpt>
			<trkpt lat="54.436550" lon="20.304070"><ele>104.3</ele><time>1970-01-01T00:00:00Z</time></trkpt>
			<trkpt lat="54.435070" lon="20.304000"><ele>106.3</ele><time>1970-01-01T00:00:00Z</time></trkpt>
			<trkpt lat="54.434050" lon="20.303990"><ele>107.9</ele><time>1970-01-01T00:00:00Z</time></trkpt>
			<trkpt lat="54.433470" lon="20.304070"><ele>109.6</ele><time>1970-01-01T00:00:00Z</time></trkpt>
			<trkpt lat="54.432970" lon="20.304540"><ele>113.8</ele><time>1970-01-01T00:00:00Z</time></trkpt>
			<trkpt lat="54.432780" lon="20.305100"><ele>118.6</ele><time>1970-01-01T00:00:00Z</time></trkpt>
			<trkpt lat="54.432440" lon="20.307500"><ele>122.8</ele><time>1970-01-01T00:00:00Z</time></trkpt>
			<trkpt lat="54.432070" lon="20.309150"><ele>121.6</ele><time>1970-01-01T00:00:00Z</time></trkpt>
			<trkpt lat="54.432100" lon="20.309670"><ele>121.1</ele><time>1970-01-01T00:00:00Z</time></trkpt>
			<trkpt lat="54.432250" lon="20.310950"><ele>121.4</ele><time>1970-01-01T00:00:00Z</time></trkpt>
			<trkpt lat="54.432210" lon="20.311370"><ele>120.3</ele><time>1970-01-01T00:00:00Z</time></trkpt>
			<trkpt lat="54.432030" lon="20.312150"><ele>119.1</ele><time>1970-01-01T00:00:00Z</time></trkpt>
			<trkpt lat="54.431980" lon="20.312580"><ele>119.3</ele><time>1970-01-01T00:00:00Z</time></trkpt>
			<trkpt lat="54.431980" lon="20.313020"><ele>119.7</ele><time>1970-01-01T00:00:00Z</time></trkpt>
			<trkpt lat="54.432170" lon="20.314200"><ele>118.6</ele><time>1970-01-01T00:00:00Z</time></trkpt>
			<trkpt lat="54.432240" lon="20.314960"><ele>119.8</ele><time>1970-01-01T00:00:00Z</time></trkpt>
			<trkpt lat="54.432230" lon="20.315170"><ele>120.7</ele><time>1970-01-01T00:00:00Z</time></trkpt>
			<trkpt lat="54.431150" lon="20.318590"><ele>127.3</ele><time>1970-01-01T00:00:00Z</time></trkpt>
			<trkpt lat="54.431050" lon="20.319160"><ele>127.7</ele><time>1970-01-01T00:00:00Z</time></trkpt>
			<trkpt lat="54.431030" lon="20.320650"><ele>122.2</ele><time>1970-01-01T00:00:00Z</time></trkpt>
			<trkpt lat="54.430930" lon="20.322170"><ele>117.4</ele><time>1970-01-01T00:00:00Z</time></trkpt>
			<trkpt lat="54.429470" lon="20.328370"><ele>117.2</ele><time>1970-01-01T00:00:00Z</time></trkpt>
			<trkpt lat="54.428000" lon="20.335280"><ele>115.4</ele><time>1970-01-01T00:00:00Z</time></trkpt>
			<trkpt lat="54.427710" lon="20.336110"><ele>117.6</ele><time>1970-01-01T00:00:00Z</time></trkpt>
			<trkpt lat="54.426820" lon="20.337970"><ele>126.8</ele><time>1970-01-01T00:00:00Z</time></trkpt>
			<trkpt lat="54.426700" lon="20.338470"><ele>129.4</ele><time>1970-01-01T00:00:00Z</time></trkpt>
			<trkpt lat="54.426850" lon="20.341140"><ele>128.1</ele><time>1970-01-01T00:00:00Z</time></trkpt>
			<trkpt lat="54.426700" lon="20.341910"><ele>127.6</ele><time>1970-01-01T00:00:00Z</time></trkpt>
			<trkpt lat="54.426540" lon="20.342540"><ele>126.7</ele><time>1970-01-01T00:00:00Z</time></trkpt>
			<trkpt lat="54.426090" lon="20.344050"><ele>127.1</ele><time>1970-01-01T00:00:00Z</time></trkpt>
			<trkpt lat="54.426060" lon="20.344480"><ele>127.5</ele><time>1970-01-01T00:00:00Z</time></trkpt>
			<trkpt lat="54.426070" lon="20.345410"><ele>128.1</ele><time>1970-01-01T00:00:00Z</time></trkpt>
			<trkpt lat="54.426260" lon="20.349530"><ele>128.2</ele><time>1970-01-01T00:00:00Z</time></trkpt>
			<trkpt lat="54.426370" lon="20.350290"><ele>129.1</ele><time>1970-01-01T00:00:00Z</time></trkpt>
			<trkpt lat="54.426830" lon="20.351280"><ele>129.1</ele><time>1970-01-01T00:00:00Z</time></trkpt>
			<trkpt lat="54.427240" lon="20.352260"><ele>128.1</ele><time>1970-01-01T00:00:00Z</time></trkpt>
			<trkpt lat="54.427230" lon="20.352770"><ele>128.1</ele><time>1970-01-01T00:00:00Z</time></trkpt>
			<trkpt lat="54.426520" lon="20.353770"><ele>128.7</ele><time>1970-01-01T00:00:00Z</time></trkpt>
			<trkpt lat="54.426090" lon="20.354690"><ele>128.7</ele><time>1970-01-01T00:00:00Z</time></trkpt>
			<trkpt lat="54.425680" lon="20.355130"><ele>128.7</ele><time>1970-01-01T00:00:00Z</time></trkpt>
			<trkpt lat="54.424370" lon="20.355970"><ele>132.6</ele><time>1970-01-01T00:00:00Z</time></trkpt>
			<trkpt lat="54.424020" lon="20.356240"><ele>132.7</ele><time>1970-01-01T00:00:00Z</time></trkpt>
			<trkpt lat="54.421190" lon="20.360440"><ele>135.6</ele><time>1970-01-01T00:00:00Z</time></trkpt>
			<trkpt lat="54.421150" lon="20.361850"><ele>138.6</ele><time>1970-01-01T00:00:00Z</time></trkpt>
			<trkpt lat="54.420970" lon="20.362620"><ele>139.8</ele><time>1970-01-01T00:00:00Z</time></trkpt>
			<trkpt lat="54.419520" lon="20.366220"><ele>141.5</ele><time>1970-01-01T00:00:00Z</time></trkpt>
			<trkpt lat="54.418460" lon="20.368430"><ele>136.2</ele><time>1970-01-01T00:00:00Z</time></trkpt>
			<trkpt lat="54.418390" lon="20.369070"><ele>135.2</ele><time>1970-01-01T00:00:00Z</time></trkpt>
			<trkpt lat="54.418380" lon="20.369890"><ele>134.2</ele><time>1970-01-01T00:00:00Z</time></trkpt>
			<trkpt lat="54.418310" lon="20.370520"><ele>133.9</ele><time>1970-01-01T00:00:00Z</time></trkpt>
			<trkpt lat="54.418040" lon="20.371350"><ele>133.6</ele><time>1970-01-01T00:00:00Z</time></trkpt>
			<trkpt lat="54.417730" lon="20.371780"><ele>134.5</ele><time>1970-01-01T00:00:00Z</time></trkpt>
			<trkpt lat="54.414530" lon="20.373100"><ele>137.0</ele><time>1970-01-01T00:00:00Z</time></trkpt>
			<trkpt lat="54.414200" lon="20.373670"><ele>135.6</ele><time>1970-01-01T00:00:00Z</time></trkpt>
			<trkpt lat="54.412220" lon="20.382610"><ele>140.9</ele><time>1970-01-01T00:00:00Z</time></trkpt>
			<trkpt lat="54.411970" lon="20.383240"><ele>143.3</ele><time>1970-01-01T00:00:00Z</time></trkpt>
			<trkpt lat="54.411450" lon="20.384200"><ele>144.9</ele><time>1970-01-01T00:00:00Z</time></trkpt>
			<trkpt lat="54.410280" lon="20.384870"><ele>146.7</ele><time>1970-01-01T00:00:00Z</time></trkpt>
			<trkpt lat="54.409890" lon="20.385250"><ele>146.9</ele><time>1970-01-01T00:00:00Z</time></trkpt>
			<trkpt lat="54.409730" lon="20.385180"><ele>146.1</ele><time>1970-01-01T00:00:00Z</time></trkpt>
			<trkpt lat="54.406480" lon="20.379650"><ele>133.5</ele><time>1970-01-01T00:00:00Z</time></trkpt>
			<trkpt lat="54.405690" lon="20.386800"><ele>131.6</ele><time>1970-01-01T00:00:00Z</time></trkpt>
			<trkpt lat="54.405710" lon="20.388540"><ele>128.1</ele><time>1970-01-01T00:00:00Z</time></trkpt>
			<trkpt lat="54.408130" lon="20.426030"><ele>138.4</ele><time>1970-01-01T00:00:00Z</time></trkpt>
			<trkpt lat="54.408000" lon="20.426820"><ele>139.9</ele><time>1970-01-01T00:00:00Z</time></trkpt>
			<trkpt lat="54.407610" lon="20.427790"><ele>142.5</ele><time>1970-01-01T00:00:00Z</time></trkpt>
			<trkpt lat="54.406020" lon="20.430710"><ele>147.9</ele><time>1970-01-01T00:00:00Z</time></trkpt>
			<trkpt lat="54.405830" lon="20.431230"><ele>147.8</ele><time>1970-01-01T00:00:00Z</time></trkpt>
			<trkpt lat="54.405470" lon="20.431550"><ele>146.7</ele><time>1970-01-01T00:00:00Z</time></trkpt>
			<trkpt lat="54.405310" lon="20.431800"><ele>146.5</ele><time>1970-01-01T00:00:00Z</time></trkpt>
			<trkpt lat="54.405370" lon="20.432080"><ele>147.1</ele><time>1970-01-01T00:00:00Z</time></trkpt>
			<trkpt lat="54.406900" lon="20.434470"><ele>150.1</ele><time>1970-01-01T00:00:00Z</time></trkpt>
			<trkpt lat="54.408870" lon="20.438410"><ele>148.1</ele><time>1970-01-01T00:00:00Z</time></trkpt>
			<trkpt lat="54.411110" lon="20.442480"><ele>153.5</ele><time>1970-01-01T00:00:00Z</time></trkpt>
			<trkpt lat="54.413300" lon="20.446740"><ele>146.7</ele><time>1970-01-01T00:00:00Z</time></trkpt>
			<trkpt lat="54.414070" lon="20.448420"><ele>144.7</ele><time>1970-01-01T00:00:00Z</time></trkpt>
			<trkpt lat="54.414360" lon="20.449320"><ele>145.0</ele><time>1970-01-01T00:00:00Z</time></trkpt>
			<trkpt lat="54.414410" lon="20.449590"><ele>145.0</ele><time>1970-01-01T00:00:00Z</time></trkpt>
			<trkpt lat="54.414510" lon="20.450850"><ele>145.2</ele><time>1970-01-01T00:00:00Z</time></trkpt>
			<trkpt lat="54.414560" lon="20.451080"><ele>145.3</ele><time>1970-01-01T00:00:00Z</time></trkpt>
			<trkpt lat="54.414650" lon="20.451330"><ele>145.4</ele><time>1970-01-01T00:00:00Z</time></trkpt>
			<trkpt lat="54.414770" lon="20.451540"><ele>145.3</ele><time>1970-01-01T00:00:00Z</time></trkpt>
			<trkpt lat="54.414930" lon="20.451690"><ele>145.2</ele><time>1970-01-01T00:00:00Z</time></trkpt>
			<trkpt lat="54.415750" lon="20.452320"><ele>145.3</ele><time>1970-01-01T00:00:00Z</time></trkpt>
			<trkpt lat="54.417050" lon="20.452830"><ele>144.2</ele><time>1970-01-01T00:00:00Z</time></trkpt>
			<trkpt lat="54.418240" lon="20.453130"><ele>140.5</ele><time>1970-01-01T00:00:00Z</time></trkpt>
			<trkpt lat="54.418570" lon="20.453240"><ele>139.7</ele><time>1970-01-01T00:00:00Z</time></trkpt>
			<trkpt lat="54.421310" lon="20.454640"><ele>135.3</ele><time>1970-01-01T00:00:00Z</time></trkpt>
			<trkpt lat="54.421690" lon="20.454860"><ele>135.4</ele><time>1970-01-01T00:00:00Z</time></trkpt>
			<trkpt lat="54.422070" lon="20.455030"><ele>135.0</ele><time>1970-01-01T00:00:00Z</time></trkpt>
			<trkpt lat="54.422460" lon="20.455150"><ele>133.9</ele><time>1970-01-01T00:00:00Z</time></trkpt>
			<trkpt lat="54.422880" lon="20.455130"><ele>133.7</ele><time>1970-01-01T00:00:00Z</time></trkpt>
			<trkpt lat="54.426720" lon="20.454460"><ele>122.0</ele><time>1970-01-01T00:00:00Z</time></trkpt>
			<trkpt lat="54.427520" lon="20.454400"><ele>122.1</ele><time>1970-01-01T00:00:00Z</time></trkpt>
			<trkpt lat="54.428190" lon="20.454260"><ele>123.6</ele><time>1970-01-01T00:00:00Z</time></trkpt>
			<trkpt lat="54.429930" lon="20.454240"><ele>123.8</ele><time>1970-01-01T00:00:00Z</time></trkpt>
			<trkpt lat="54.430240" lon="20.454410"><ele>123.9</ele><time>1970-01-01T00:00:00Z</time></trkpt>
			<trkpt lat="54.430360" lon="20.454560"><ele>124.0</ele><time>1970-01-01T00:00:00Z</time></trkpt>
			<trkpt lat="54.431100" lon="20.455640"><ele>123.8</ele><time>1970-01-01T00:00:00Z</time></trkpt>
			<trkpt lat="54.433120" lon="20.458760"><ele>120.5</ele><time>1970-01-01T00:00:00Z</time></trkpt>
			<trkpt lat="54.435900" lon="20.462930"><ele>113.9</ele><time>1970-01-01T00:00:00Z</time></trkpt>
			<trkpt lat="54.440960" lon="20.470440"><ele>99.2</ele><time>1970-01-01T00:00:00Z</time></trkpt>
			<trkpt lat="54.444350" lon="20.475860"><ele>87.8</ele><time>1970-01-01T00:00:00Z</time></trkpt>
			<trkpt lat="54.446840" lon="20.480010"><ele>86.3</ele><time>1970-01-01T00:00:00Z</time></trkpt>
			<trkpt lat="54.448770" lon="20.483280"><ele>88.5</ele><time>1970-01-01T00:00:00Z</time></trkpt>
			<trkpt lat="54.454390" lon="20.493040"><ele>82.3</ele><time>1970-01-01T00:00:00Z</time></trkpt>
			<trkpt lat="54.455070" lon="20.494180"><ele>80.9</ele><time>1970-01-01T00:00:00Z</time></trkpt>
			<trkpt lat="54.455380" lon="20.494600"><ele>80.0</ele><time>1970-01-01T00:00:00Z</time></trkpt>
			<trkpt lat="54.455730" lon="20.494990"><ele>79.2</ele><time>1970-01-01T00:00:00Z</time></trkpt>
			<trkpt lat="54.456320" lon="20.496230"><ele>77.1</ele><time>1970-01-01T00:00:00Z</time></trkpt>
			<trkpt lat="54.459040" lon="20.499580"><ele>68.5</ele><time>1970-01-01T00:00:00Z</time></trkpt>
			<trkpt lat="54.459950" lon="20.501070"><ele>69.4</ele><time>1970-01-01T00:00:00Z</time></trkpt>
			<trkpt lat="54.463120" lon="20.506730"><ele>65.0</ele><time>1970-01-01T00:00:00Z</time></trkpt>
			<trkpt lat="54.462630" lon="20.507740"><ele>65.0</ele><time>1970-01-01T00:00:00Z</time></trkpt>
			<trkpt lat="54.462410" lon="20.508350"><ele>62.2</ele><time>1970-01-01T00:00:00Z</time></trkpt>
			<trkpt lat="54.462150" lon="20.510120"><ele>59.5</ele><time>1970-01-01T00:00:00Z</time></trkpt>
			<trkpt lat="54.461370" lon="20.510980"><ele>59.6</ele><time>1970-01-01T00:00:00Z</time></trkpt>
			<trkpt lat="54.460060" lon="20.512900"><ele>61.8</ele><time>1970-01-01T00:00:00Z</time></trkpt>
			<trkpt lat="54.457210" lon="20.517560"><ele>64.7</ele><time>1970-01-01T00:00:00Z</time></trkpt>
			<trkpt lat="54.456480" lon="20.518020"><ele>65.5</ele><time>1970-01-01T00:00:00Z</time></trkpt>
			<trkpt lat="54.451600" lon="20.520610"><ele>73.8</ele><time>1970-01-01T00:00:00Z</time></trkpt>
			<trkpt lat="54.451240" lon="20.520910"><ele>74.8</ele><time>1970-01-01T00:00:00Z</time></trkpt>
			<trkpt lat="54.449790" lon="20.522430"><ele>76.9</ele><time>1970-01-01T00:00:00Z</time></trkpt>
			<trkpt lat="54.449140" lon="20.523390"><ele>80.9</ele><time>1970-01-01T00:00:00Z</time></trkpt>
			<trkpt lat="54.448210" lon="20.523480"><ele>78.5</ele><time>1970-01-01T00:00:00Z</time></trkpt>
			<trkpt lat="54.447580" lon="20.523170"><ele>79.4</ele><time>1970-01-01T00:00:00Z</time></trkpt>
			<trkpt lat="54.446280" lon="20.522210"><ele>79.2</ele><time>1970-01-01T00:00:00Z</time></trkpt>
			<trkpt lat="54.445150" lon="20.520640"><ele>82.0</ele><time>1970-01-01T00:00:00Z</time></trkpt>
			<trkpt lat="54.443450" lon="20.518950"><ele>77.8</ele><time>1970-01-01T00:00:00Z</time></trkpt>
			<trkpt lat="54.442890" lon="20.518520"><ele>77.8</ele><time>1970-01-01T00:00:00Z</time></trkpt>
			<trkpt lat="54.442290" lon="20.518360"><ele>78.0</ele><time>1970-01-01T00:00:00Z</time></trkpt>
			<trkpt lat="54.442000" lon="20.518350"><ele>78.0</ele><time>1970-01-01T00:00:00Z</time></trkpt>
			<trkpt lat="54.441590" lon="20.518160"><ele>78.8</ele><time>1970-01-01T00:00:00Z</time></trkpt>
			<trkpt lat="54.441360" lon="20.518160"><ele>79.8</ele><time>1970-01-01T00:00:00Z</time></trkpt>
			<trkpt lat="54.440830" lon="20.517910"><ele>82.5</ele><time>1970-01-01T00:00:00Z</time></trkpt>
			<trkpt lat="54.440520" lon="20.517670"><ele>82.9</ele><time>1970-01-01T00:00:00Z</time></trkpt>
			<trkpt lat="54.440300" lon="20.517620"><ele>83.0</ele><time>1970-01-01T00:00:00Z</time></trkpt>
			<trkpt lat="54.440080" lon="20.517610"><ele>82.9</ele><time>1970-01-01T00:00:00Z</time></trkpt>
			<trkpt lat="54.439750" lon="20.517780"><ele>82.0</ele><time>1970-01-01T00:00:00Z</time></trkpt>
			<trkpt lat="54.439270" lon="20.518240"><ele>81.0</ele><time>1970-01-01T00:00:00Z</time></trkpt>
			<trkpt lat="54.438760" lon="20.518660"><ele>77.9</ele><time>1970-01-01T00:00:00Z</time></trkpt>
			<trkpt lat="54.438520" lon="20.518810"><ele>76.5</ele><time>1970-01-01T00:00:00Z</time></trkpt>
			<trkpt lat="54.438300" lon="20.518860"><ele>75.0</ele><time>1970-01-01T00:00:00Z</time></trkpt>
			<trkpt lat="54.438030" lon="20.519040"><ele>72.8</ele><time>1970-01-01T00:00:00Z</time></trkpt>
			<trkpt lat="54.437350" lon="20.519380"><ele>67.7</ele><time>1970-01-01T00:00:00Z</time></trkpt>
			<trkpt lat="54.436610" lon="20.519560"><ele>65.9</ele><time>1970-01-01T00:00:00Z</time></trkpt>
			<trkpt lat="54.436480" lon="20.519660"><ele>66.7</ele><time>1970-01-01T00:00:00Z</time></trkpt>
			<trkpt lat="54.436260" lon="20.519970"><ele>69.2</ele><time>1970-01-01T00:00:00Z</time></trkpt>
			<trkpt lat="54.436050" lon="20.519950"><ele>70.8</ele><time>1970-01-01T00:00:00Z</time></trkpt>
			<trkpt lat="54.435880" lon="20.519820"><ele>71.4</ele><time>1970-01-01T00:00:00Z</time></trkpt>
			<trkpt lat="54.435730" lon="20.519640"><ele>72.1</ele><time>1970-01-01T00:00:00Z</time></trkpt>
			<trkpt lat="54.435430" lon="20.519460"><ele>74.5</ele><time>1970-01-01T00:00:00Z</time></trkpt>
			<trkpt lat="54.435260" lon="20.518960"><ele>73.2</ele><time>1970-01-01T00:00:00Z</time></trkpt>
			<trkpt lat="54.434860" lon="20.518210"><ele>72.0</ele><time>1970-01-01T00:00:00Z</time></trkpt>
			<trkpt lat="54.434740" lon="20.518280"><ele>73.0</ele><time>1970-01-01T00:00:00Z</time></trkpt>
			<trkpt lat="54.434370" lon="20.518730"><ele>77.8</ele><time>1970-01-01T00:00:00Z</time></trkpt>
			<trkpt lat="54.434020" lon="20.519010"><ele>79.5</ele><time>1970-01-01T00:00:00Z</time></trkpt>
			<trkpt lat="54.433450" lon="20.519640"><ele>80.9</ele><time>1970-01-01T00:00:00Z</time></trkpt>
			<trkpt lat="54.433060" lon="20.519950"><ele>81.5</ele><time>1970-01-01T00:00:00Z</time></trkpt>
			<trkpt lat="54.432720" lon="20.519920"><ele>81.3</ele><time>1970-01-01T00:00:00Z</time></trkpt>
			<trkpt lat="54.432120" lon="20.519280"><ele>80.0</ele><time>1970-01-01T00:00:00Z</time></trkpt>
			<trkpt lat="54.431300" lon="20.517810"><ele>77.6</ele><time>1970-01-01T00:00:00Z</time></trkpt>
			<trkpt lat="54.431180" lon="20.517740"><ele>76.6</ele><time>1970-01-01T00:00:00Z</time></trkpt>
			<trkpt lat="54.431020" lon="20.517560"><ele>74.9</ele><time>1970-01-01T00:00:00Z</time></trkpt>
			<trkpt lat="54.430780" lon="20.517430"><ele>73.0</ele><time>1970-01-01T00:00:00Z</time></trkpt>
			<trkpt lat="54.430540" lon="20.517350"><ele>73.0</ele><time>1970-01-01T00:00:00Z</time></trkpt>
			<trkpt lat="54.429630" lon="20.516560"><ele>74.3</ele><time>1970-01-01T00:00:00Z</time></trkpt>
			<trkpt lat="54.429550" lon="20.516410"><ele>74.6</ele><time>1970-01-01T00:00:00Z</time></trkpt>
			<trkpt lat="54.429400" lon="20.515260"><ele>75.4</ele><time>1970-01-01T00:00:00Z</time></trkpt>
			<trkpt lat="54.429090" lon="20.513610"><ele>74.5</ele><time>1970-01-01T00:00:00Z</time></trkpt>
			<trkpt lat="54.427730" lon="20.514640"><ele>75.6</ele><time>1970-01-01T00:00:00Z</time></trkpt>
			<trkpt lat="54.423630" lon="20.518050"><ele>71.0</ele><time>1970-01-01T00:00:00Z</time></trkpt>
			<trkpt lat="54.423400" lon="20.518200"><ele>70.9</ele><time>1970-01-01T00:00:00Z</time></trkpt>
			<trkpt lat="54.422180" lon="20.519190"><ele>70.5</ele><time>1970-01-01T00:00:00Z</time></trkpt>
			<trkpt lat="54.422020" lon="20.520330"><ele>68.2</ele><time>1970-01-01T00:00:00Z</time></trkpt>
			<trkpt lat="54.421530" lon="20.520730"><ele>68.8</ele><time>1970-01-01T00:00:00Z</time></trkpt>
			<trkpt lat="54.421130" lon="20.520750"><ele>70.6</ele><time>1970-01-01T00:00:00Z</time></trkpt>
			<trkpt lat="54.416340" lon="20.520700"><ele>87.4</ele><time>1970-01-01T00:00:00Z</time></trkpt>
			<trkpt lat="54.416360" lon="20.523230"><ele>82.2</ele><time>1970-01-01T00:00:00Z</time></trkpt>
			<trkpt lat="54.416260" lon="20.525060"><ele>81.3</ele><time>1970-01-01T00:00:00Z</time></trkpt>
			<trkpt lat="54.416090" lon="20.527050"><ele>80.0</ele><time>1970-01-01T00:00:00Z</time></trkpt>
			<trkpt lat="54.415910" lon="20.527180"><ele>80.0</ele><time>1970-01-01T00:00:00Z</time></trkpt>
			<trkpt lat="54.414550" lon="20.526850"><ele>80.6</ele><time>1970-01-01T00:00:00Z</time></trkpt>
			<trkpt lat="54.414400" lon="20.526690"><ele>81.0</ele><time>1970-01-01T00:00:00Z</time></trkpt>
			<trkpt lat="54.414210" lon="20.526390"><ele>81.8</ele><time>1970-01-01T00:00:00Z</time></trkpt>
			<trkpt lat="54.414050" lon="20.526580"><ele>81.5</ele><time>1970-01-01T00:00:00Z</time></trkpt>
			<trkpt lat="54.413630" lon="20.526530"><ele>80.9</ele><time>1970-01-01T00:00:00Z</time></trkpt>
			<trkpt lat="54.412270" lon="20.526870"><ele>87.3</ele><time>1970-01-01T00:00:00Z</time></trkpt>
			<trkpt lat="54.411860" lon="20.526710"><ele>89.1</ele><time>1970-01-01T00:00:00Z</time></trkpt>
			<trkpt lat="54.411130" lon="20.526690"><ele>91.1</ele><time>1970-01-01T00:00:00Z</time></trkpt>
			<trkpt lat="54.410640" lon="20.527380"><ele>90.0</ele><time>1970-01-01T00:00:00Z</time></trkpt>
			<trkpt lat="54.410550" lon="20.528160"><ele>89.8</ele><time>1970-01-01T00:00:00Z</time></trkpt>
			<trkpt lat="54.408710" lon="20.528900"><ele>95.7</ele><time>1970-01-01T00:00:00Z</time></trkpt>
			<trkpt lat="54.407790" lon="20.530570"><ele>101.9</ele><time>1970-01-01T00:00:00Z</time></trkpt>
			<trkpt lat="54.407320" lon="20.531700"><ele>102.1</ele><time>1970-01-01T00:00:00Z</time></trkpt>
			<trkpt lat="54.406530" lon="20.532370"><ele>106.0</ele><time>1970-01-01T00:00:00Z</time></trkpt>
			<trkpt lat="54.405230" lon="20.532710"><ele>111.7</ele><time>1970-01-01T00:00:00Z</time></trkpt>
			<trkpt lat="54.403930" lon="20.533660"><ele>112.3</ele><time>1970-01-01T00:00:00Z</time></trkpt>
			<trkpt lat="54.403370" lon="20.535020"><ele>115.7</ele><time>1970-01-01T00:00:00Z</time></trkpt>
			<trkpt lat="54.402880" lon="20.536740"><ele>114.5</ele><time>1970-01-01T00:00:00Z</time></trkpt>
			<trkpt lat="54.402180" lon="20.537050"><ele>117.7</ele><time>1970-01-01T00:00:00Z</time></trkpt>
			<trkpt lat="54.401620" lon="20.536690"><ele>120.8</ele><time>1970-01-01T00:00:00Z</time></trkpt>
			<trkpt lat="54.401140" lon="20.536610"><ele>121.5</ele><time>1970-01-01T00:00:00Z</time></trkpt>
			<trkpt lat="54.400400" lon="20.537290"><ele>121.6</ele><time>1970-01-01T00:00:00Z</time></trkpt>
			<trkpt lat="54.399810" lon="20.537940"><ele>121.4</ele><time>1970-01-01T00:00:00Z</time></trkpt>
			<trkpt lat="54.397360" lon="20.541570"><ele>121.1</ele><time>1970-01-01T00:00:00Z</time></trkpt>
			<trkpt lat="54.395690" lon="20.543410"><ele>122.5</ele><time>1970-01-01T00:00:00Z</time></trkpt>
			<trkpt lat="54.392850" lon="20.546160"><ele>126.8</ele><time>1970-01-01T00:00:00Z</time></trkpt>
			<trkpt lat="54.392700" lon="20.546350"><ele>126.8</ele><time>1970-01-01T00:00:00Z</time></trkpt>
			<trkpt lat="54.392790" lon="20.546830"><ele>126.2</ele><time>1970-01-01T00:00:00Z</time></trkpt>
			<trkpt lat="54.392920" lon="20.547210"><ele>125.6</ele><time>1970-01-01T00:00:00Z</time></trkpt>
			<trkpt lat="54.393160" lon="20.547730"><ele>125.1</ele><time>1970-01-01T00:00:00Z</time></trkpt>
			<trkpt lat="54.393550" lon="20.548720"><ele>126.1</ele><time>1970-01-01T00:00:00Z</time></trkpt>
			<trkpt lat="54.394330" lon="20.550460"><ele>125.2</ele><time>1970-01-01T00:00:00Z</time></trkpt>
			<trkpt lat="54.394460" lon="20.550840"><ele>124.3</ele><time>1970-01-01T00:00:00Z</time></trkpt>
			<trkpt lat="54.394630" lon="20.552690"><ele>119.8</ele><time>1970-01-01T00:00:00Z</time></trkpt>
			<trkpt lat="54.394550" lon="20.554140"><ele>118.6</ele><time>1970-01-01T00:00:00Z</time></trkpt>
			<trkpt lat="54.394580" lon="20.554480"><ele>118.7</ele><time>1970-01-01T00:00:00Z</time></trkpt>
			<trkpt lat="54.394670" lon="20.554790"><ele>118.7</ele><time>1970-01-01T00:00:00Z</time></trkpt>
			<trkpt lat="54.395670" lon="20.557220"><ele>113.0</ele><time>1970-01-01T00:00:00Z</time></trkpt>
			<trkpt lat="54.396810" lon="20.559580"><ele>107.1</ele><time>1970-01-01T00:00:00Z</time></trkpt>
			<trkpt lat="54.397040" lon="20.559980"><ele>105.3</ele><time>1970-01-01T00:00:00Z</time></trkpt>
			<trkpt lat="54.400750" lon="20.563950"><ele>91.8</ele><time>1970-01-01T00:00:00Z</time></trkpt>
			<trkpt lat="54.400920" lon="20.564200"><ele>92.0</ele><time>1970-01-01T00:00:00Z</time></trkpt>
			<trkpt lat="54.400870" lon="20.564970"><ele>92.8</ele><time>1970-01-01T00:00:00Z</time></trkpt>
			<trkpt lat="54.400680" lon="20.566300"><ele>91.0</ele><time>1970-01-01T00:00:00Z</time></trkpt>
			<trkpt lat="54.400670" lon="20.566970"><ele>89.5</ele><time>1970-01-01T00:00:00Z</time></trkpt>
			<trkpt lat="54.400720" lon="20.567750"><ele>87.6</ele><time>1970-01-01T00:00:00Z</time></trkpt>
			<trkpt lat="54.400060" lon="20.569190"><ele>86.4</ele><time>1970-01-01T00:00:00Z</time></trkpt>
			<trkpt lat="54.399610" lon="20.572850"><ele>82.6</ele><time>1970-01-01T00:00:00Z</time></trkpt>
			<trkpt lat="54.399480" lon="20.573600"><ele>83.1</ele><time>1970-01-01T00:00:00Z</time></trkpt>
			<trkpt lat="54.399240" lon="20.574410"><ele>82.6</ele><time>1970-01-01T00:00:00Z</time></trkpt>
			<trkpt lat="54.398400" lon="20.576150"><ele>84.1</ele><time>1970-01-01T00:00:00Z</time></trkpt>
			<trkpt lat="54.397800" lon="20.577220"><ele>82.8</ele><time>1970-01-01T00:00:00Z</time></trkpt>
			<trkpt lat="54.397330" lon="20.578190"><ele>82.3</ele><time>1970-01-01T00:00:00Z</time></trkpt>
			<trkpt lat="54.397030" lon="20.578980"><ele>81.7</ele><time>1970-01-01T00:00:00Z</time></trkpt>
			<trkpt lat="54.396400" lon="20.580960"><ele>81.4</ele><time>1970-01-01T00:00:00Z</time></trkpt>
			<trkpt lat="54.396060" lon="20.581880"><ele>80.5</ele><time>1970-01-01T00:00:00Z</time></trkpt>
			<trkpt lat="54.394340" lon="20.585990"><ele>82.3</ele><time>1970-01-01T00:00:00Z</time></trkpt>
			<trkpt lat="54.394210" lon="20.586430"><ele>81.6</ele><time>1970-01-01T00:00:00Z</time></trkpt>
			<trkpt lat="54.394110" lon="20.586960"><ele>80.3</ele><time>1970-01-01T00:00:00Z</time></trkpt>
			<trkpt lat="54.394030" lon="20.588280"><ele>79.6</ele><time>1970-01-01T00:00:00Z</time></trkpt>
			<trkpt lat="54.393670" lon="20.592400"><ele>73.1</ele><time>1970-01-01T00:00:00Z</time></trkpt>
			<trkpt lat="54.392330" lon="20.602550"><ele>61.6</ele><time>1970-01-01T00:00:00Z</time></trkpt>
			<trkpt lat="54.392080" lon="20.604140"><ele>61.1</ele><time>1970-01-01T00:00:00Z</time></trkpt>
			<trkpt lat="54.391900" lon="20.604870"><ele>61.3</ele><time>1970-01-01T00:00:00Z</time></trkpt>
			<trkpt lat="54.387950" lon="20.618430"><ele>70.8</ele><time>1970-01-01T00:00:00Z</time></trkpt>
			<trkpt lat="54.387820" lon="20.619020"><ele>72.0</ele><time>1970-01-01T00:00:00Z</time></trkpt>
			<trkpt lat="54.387840" lon="20.619690"><ele>73.0</ele><time>1970-01-01T00:00:00Z</time></trkpt>
			<trkpt lat="54.388250" lon="20.622010"><ele>75.5</ele><time>1970-01-01T00:00:00Z</time></trkpt>
			<trkpt lat="54.388530" lon="20.624450"><ele>73.8</ele><time>1970-01-01T00:00:00Z</time></trkpt>
			<trkpt lat="54.388560" lon="20.625300"><ele>71.3</ele><time>1970-01-01T00:00:00Z</time></trkpt>
			<trkpt lat="54.388510" lon="20.626130"><ele>69.5</ele><time>1970-01-01T00:00:00Z</time></trkpt>
			<trkpt lat="54.388380" lon="20.626960"><ele>69.6</ele><time>1970-01-01T00:00:00Z</time></trkpt>
			<trkpt lat="54.388280" lon="20.627270"><ele>70.2</ele><time>1970-01-01T00:00:00Z</time></trkpt>
			<trkpt lat="54.388090" lon="20.627650"><ele>70.2</ele><time>1970-01-01T00:00:00Z</time></trkpt>
			<trkpt lat="54.387530" lon="20.628500"><ele>71.2</ele><time>1970-01-01T00:00:00Z</time></trkpt>
			<trkpt lat="54.387440" lon="20.628710"><ele>71.2</ele><time>1970-01-01T00:00:00Z</time></trkpt>
			<trkpt lat="54.386540" lon="20.631530"><ele>70.8</ele><time>1970-01-01T00:00:00Z</time></trkpt>
			<trkpt lat="54.386490" lon="20.631760"><ele>70.9</ele><time>1970-01-01T00:00:00Z</time></trkpt>
			<trkpt lat="54.386280" lon="20.634000"><ele>71.4</ele><time>1970-01-01T00:00:00Z</time></trkpt>
			<trkpt lat="54.386230" lon="20.634140"><ele>71.3</ele><time>1970-01-01T00:00:00Z</time></trkpt>
			<trkpt lat="54.386300" lon="20.634190"><ele>72.1</ele><time>1970-01-01T00:00:00Z</time></trkpt>
			<trkpt lat="54.386520" lon="20.635230"><ele>77.7</ele><time>1970-01-01T00:00:00Z</time></trkpt>
			<trkpt lat="54.386610" lon="20.635470"><ele>78.1</ele><time>1970-01-01T00:00:00Z</time></trkpt>
			<trkpt lat="54.386730" lon="20.636460"><ele>77.6</ele><time>1970-01-01T00:00:00Z</time></trkpt>
			<trkpt lat="54.386740" lon="20.637350"><ele>78.0</ele><time>1970-01-01T00:00:00Z</time></trkpt>
			<trkpt lat="54.386690" lon="20.638680"><ele>80.7</ele><time>1970-01-01T00:00:00Z</time></trkpt>
			<trkpt lat="54.386700" lon="20.638680"><ele>80.7</ele><time>1970-01-01T00:00:00Z</time></trkpt>
			<trkpt lat="54.386570" lon="20.639320"><ele>80.4</ele><time>1970-01-01T00:00:00Z</time></trkpt>
			<trkpt lat="54.386490" lon="20.639530"><ele>80.3</ele><time>1970-01-01T00:00:00Z</time></trkpt>
			<trkpt lat="54.386570" lon="20.639660"><ele>80.3</ele><time>1970-01-01T00:00:00Z</time></trkpt>
			<trkpt lat="54.386220" lon="20.640650"><ele>77.7</ele><time>1970-01-01T00:00:00Z</time></trkpt>
			<trkpt lat="54.386320" lon="20.640840"><ele>77.5</ele><time>1970-01-01T00:00:00Z</time></trkpt>
			<trkpt lat="54.386330" lon="20.640860"><ele>77.5</ele><time>1970-01-01T00:00:00Z</time></trkpt>
			<trkpt lat="54.386330" lon="20.640860"><ele>77.5</ele><time>1970-01-01T00:00:00Z</time></trkpt>
			<trkpt lat="54.386800" lon="20.641960"><ele>74.8</ele><time>1970-01-01T00:00:00Z</time></trkpt>
			<trkpt lat="54.387010" lon="20.642470"><ele>72.8</ele><time>1970-01-01T00:00:00Z</time></trkpt>
			<trkpt lat="54.387160" lon="20.642950"><ele>72.0</ele><time>1970-01-01T00:00:00Z</time></trkpt>
			<trkpt lat="54.387310" lon="20.644160"><ele>71.8</ele><time>1970-01-01T00:00:00Z</time></trkpt>
			<trkpt lat="54.387440" lon="20.644620"><ele>73.5</ele><time>1970-01-01T00:00:00Z</time></trkpt>
			<trkpt lat="54.388230" lon="20.646680"><ele>76.2</ele><time>1970-01-01T00:00:00Z</time></trkpt>
			<trkpt lat="54.388260" lon="20.646820"><ele>76.1</ele><time>1970-01-01T00:00:00Z</time></trkpt>
			<trkpt lat="54.388270" lon="20.648040"><ele>74.4</ele><time>1970-01-01T00:00:00Z</time></trkpt>
			<trkpt lat="54.388220" lon="20.648280"><ele>74.1</ele><time>1970-01-01T00:00:00Z</time></trkpt>
			<trkpt lat="54.389950" lon="20.648590"><ele>73.3</ele><time>1970-01-01T00:00:00Z</time></trkpt>
			<trkpt lat="54.390210" lon="20.648820"><ele>73.8</ele><time>1970-01-01T00:00:00Z</time></trkpt>
			<trkpt lat="54.392570" lon="20.652290"><ele>76.1</ele><time>1970-01-01T00:00:00Z</time></trkpt>
			<trkpt lat="54.396280" lon="20.657440"><ele>70.5</ele><time>1970-01-01T00:00:00Z</time></trkpt>
			<trkpt lat="54.398180" lon="20.660190"><ele>66.7</ele><time>1970-01-01T00:00:00Z</time></trkpt>
			<trkpt lat="54.398300" lon="20.660440"><ele>66.0</ele><time>1970-01-01T00:00:00Z</time></trkpt>
			<trkpt lat="54.398460" lon="20.661040"><ele>64.8</ele><time>1970-01-01T00:00:00Z</time></trkpt>
			<trkpt lat="54.398800" lon="20.662830"><ele>64.9</ele><time>1970-01-01T00:00:00Z</time></trkpt>
			<trkpt lat="54.398890" lon="20.663070"><ele>65.2</ele><time>1970-01-01T00:00:00Z</time></trkpt>
			<trkpt lat="54.398970" lon="20.663230"><ele>65.6</ele><time>1970-01-01T00:00:00Z</time></trkpt>
			<trkpt lat="54.399120" lon="20.663390"><ele>65.8</ele><time>1970-01-01T00:00:00Z</time></trkpt>
			<trkpt lat="54.399770" lon="20.663750"><ele>65.1</ele><time>1970-01-01T00:00:00Z</time></trkpt>
			<trkpt lat="54.399870" lon="20.663900"><ele>65.1</ele><time>1970-01-01T00:00:00Z</time></trkpt>
			<trkpt lat="54.399940" lon="20.664090"><ele>65.0</ele><time>1970-01-01T00:00:00Z</time></trkpt>
			<trkpt lat="54.399970" lon="20.664290"><ele>65.0</ele><time>1970-01-01T00:00:00Z</time></trkpt>
			<trkpt lat="54.399960" lon="20.666030"><ele>64.8</ele><time>1970-01-01T00:00:00Z</time></trkpt>
			<trkpt lat="54.400740" lon="20.671470"><ele>64.9</ele><time>1970-01-01T00:00:00Z</time></trkpt>
			<trkpt lat="54.400820" lon="20.671820"><ele>65.0</ele><time>1970-01-01T00:00:00Z</time></trkpt>
			<trkpt lat="54.400920" lon="20.672090"><ele>64.6</ele><time>1970-01-01T00:00:00Z</time></trkpt>
			<trkpt lat="54.402290" lon="20.675040"><ele>61.8</ele><time>1970-01-01T00:00:00Z</time></trkpt>
			<trkpt lat="54.402480" lon="20.675480"><ele>61.7</ele><time>1970-01-01T00:00:00Z</time></trkpt>
			<trkpt lat="54.402560" lon="20.675750"><ele>61.9</ele><time>1970-01-01T00:00:00Z</time></trkpt>
			<trkpt lat="54.403330" lon="20.683560"><ele>70.7</ele><time>1970-01-01T00:00:00Z</time></trkpt>
			<trkpt lat="54.403420" lon="20.684230"><ele>69.7</ele><time>1970-01-01T00:00:00Z</time></trkpt>
			<trkpt lat="54.404290" lon="20.687640"><ele>67.8</ele><time>1970-01-01T00:00:00Z</time></trkpt>
			<trkpt lat="54.404510" lon="20.688240"><ele>67.7</ele><time>1970-01-01T00:00:00Z</time></trkpt>
			<trkpt lat="54.404910" lon="20.689170"><ele>64.5</ele><time>1970-01-01T00:00:00Z</time></trkpt>
			<trkpt lat="54.404930" lon="20.689390"><ele>63.9</ele><time>1970-01-01T00:00:00Z</time></trkpt>
			<trkpt lat="54.404870" lon="20.689650"><ele>63.5</ele><time>1970-01-01T00:00:00Z</time></trkpt>
			<trkpt lat="54.404750" lon="20.689870"><ele>63.5</ele><time>1970-01-01T00:00:00Z</time></trkpt>
			<trkpt lat="54.404390" lon="20.690300"><ele>64.3</ele><time>1970-01-01T00:00:00Z</time></trkpt>
			<trkpt lat="54.402530" lon="20.694190"><ele>58.8</ele><time>1970-01-01T00:00:00Z</time></trkpt>
			<trkpt lat="54.402430" lon="20.694680"><ele>57.8</ele><time>1970-01-01T00:00:00Z</time></trkpt>
			<trkpt lat="54.401810" lon="20.700390"><ele>56.8</ele><time>1970-01-01T00:00:00Z</time></trkpt>
			<trkpt lat="54.401500" lon="20.702940"><ele>56.5</ele><time>1970-01-01T00:00:00Z</time></trkpt>
			<trkpt lat="54.401520" lon="20.703200"><ele>56.5</ele><time>1970-01-01T00:00:00Z</time></trkpt>
			<trkpt lat="54.402160" lon="20.706310"><ele>55.6</ele><time>1970-01-01T00:00:00Z</time></trkpt>
			<trkpt lat="54.402200" lon="20.706890"><ele>55.7</ele><time>1970-01-01T00:00:00Z</time></trkpt>
			<trkpt lat="54.402160" lon="20.710440"><ele>50.0</ele><time>1970-01-01T00:00:00Z</time></trkpt>
			<trkpt lat="54.402670" lon="20.710520"><ele>49.3</ele><time>1970-01-01T00:00:00Z</time></trkpt>
			<trkpt lat="54.403430" lon="20.710500"><ele>48.6</ele><time>1970-01-01T00:00:00Z</time></trkpt>
			<trkpt lat="54.403980" lon="20.710340"><ele>48.0</ele><time>1970-01-01T00:00:00Z</time></trkpt>
			<trkpt lat="54.405850" lon="20.709700"><ele>48.3</ele><time>1970-01-01T00:00:00Z</time></trkpt>
			<trkpt lat="54.406430" lon="20.709800"><ele>48.1</ele><time>1970-01-01T00:00:00Z</time></trkpt>
			<trkpt lat="54.408770" lon="20.710500"><ele>48.6</ele><time>1970-01-01T00:00:00Z</time></trkpt>
			<trkpt lat="54.408970" lon="20.710490"><ele>49.0</ele><time>1970-01-01T00:00:00Z</time></trkpt>
			<trkpt lat="54.418100" lon="20.706490"><ele>49.5</ele><time>1970-01-01T00:00:00Z</time></trkpt>
			<trkpt lat="54.421420" lon="20.705390"><ele>46.4</ele><time>1970-01-01T00:00:00Z</time></trkpt>
			<trkpt lat="54.427310" lon="20.703540"><ele>46.4</ele><time>1970-01-01T00:00:00Z</time></trkpt>
			<trkpt lat="54.428290" lon="20.703010"><ele>46.0</ele><time>1970-01-01T00:00:00Z</time></trkpt>
			<trkpt lat="54.428710" lon="20.702700"><ele>46.7</ele><time>1970-01-01T00:00:00Z</time></trkpt>
			<trkpt lat="54.429870" lon="20.701350"><ele>44.2</ele><time>1970-01-01T00:00:00Z</time></trkpt>
			<trkpt lat="54.432920" lon="20.698370"><ele>45.4</ele><time>1970-01-01T00:00:00Z</time></trkpt>
			<trkpt lat="54.435100" lon="20.696310"><ele>43.1</ele><time>1970-01-01T00:00:00Z</time></trkpt>
			<trkpt lat="54.436110" lon="20.695280"><ele>41.7</ele><time>1970-01-01T00:00:00Z</time></trkpt>
			<trkpt lat="54.436950" lon="20.694500"><ele>39.7</ele><time>1970-01-01T00:00:00Z</time></trkpt>
			<trkpt lat="54.437130" lon="20.694450"><ele>39.4</ele><time>1970-01-01T00:00:00Z</time></trkpt>
			<trkpt lat="54.437320" lon="20.694560"><ele>39.2</ele><time>1970-01-01T00:00:00Z</time></trkpt>
			<trkpt lat="54.437960" lon="20.695180"><ele>40.8</ele><time>1970-01-01T00:00:00Z</time></trkpt>
			<trkpt lat="54.438150" lon="20.695440"><ele>41.8</ele><time>1970-01-01T00:00:00Z</time></trkpt>
			<trkpt lat="54.438320" lon="20.695750"><ele>42.8</ele><time>1970-01-01T00:00:00Z</time></trkpt>
			<trkpt lat="54.438550" lon="20.696270"><ele>44.4</ele><time>1970-01-01T00:00:00Z</time></trkpt>
			<trkpt lat="54.438740" lon="20.696410"><ele>45.0</ele><time>1970-01-01T00:00:00Z</time></trkpt>
			<trkpt lat="54.438890" lon="20.696420"><ele>45.2</ele><time>1970-01-01T00:00:00Z</time></trkpt>
			<trkpt lat="54.439300" lon="20.696070"><ele>45.1</ele><time>1970-01-01T00:00:00Z</time></trkpt>
			<trkpt lat="54.443920" lon="20.690560"><ele>45.4</ele><time>1970-01-01T00:00:00Z</time></trkpt>
			<trkpt lat="54.444350" lon="20.690370"><ele>45.3</ele><time>1970-01-01T00:00:00Z</time></trkpt>
			<trkpt lat="54.445560" lon="20.690380"><ele>44.6</ele><time>1970-01-01T00:00:00Z</time></trkpt>
			<trkpt lat="54.445680" lon="20.688430"><ele>41.5</ele><time>1970-01-01T00:00:00Z</time></trkpt>
			<trkpt lat="54.446140" lon="20.686170"><ele>38.4</ele><time>1970-01-01T00:00:00Z</time></trkpt>
			<trkpt lat="54.446270" lon="20.685790"><ele>38.4</ele><time>1970-01-01T00:00:00Z</time></trkpt>
			<trkpt lat="54.446630" lon="20.685070"><ele>38.0</ele><time>1970-01-01T00:00:00Z</time></trkpt>
			<trkpt lat="54.446870" lon="20.684680"><ele>37.9</ele><time>1970-01-01T00:00:00Z</time></trkpt>
			<trkpt lat="54.447380" lon="20.684030"><ele>38.0</ele><time>1970-01-01T00:00:00Z</time></trkpt>
			<trkpt lat="54.447690" lon="20.683790"><ele>37.8</ele><time>1970-01-01T00:00:00Z</time></trkpt>
			<trkpt lat="54.447980" lon="20.683680"><ele>37.4</ele><time>1970-01-01T00:00:00Z</time></trkpt>
			<trkpt lat="54.449090" lon="20.683410"><ele>37.8</ele><time>1970-01-01T00:00:00Z</time></trkpt>
			<trkpt lat="54.451710" lon="20.682220"><ele>39.9</ele><time>1970-01-01T00:00:00Z</time></trkpt>
			<trkpt lat="54.457890" lon="20.679990"><ele>36.0</ele><time>1970-01-01T00:00:00Z</time></trkpt>
			<trkpt lat="54.458270" lon="20.679670"><ele>36.3</ele><time>1970-01-01T00:00:00Z</time></trkpt>
			<trkpt lat="54.458740" lon="20.679110"><ele>36.0</ele><time>1970-01-01T00:00:00Z</time></trkpt>
			<trkpt lat="54.459260" lon="20.678380"><ele>34.8</ele><time>1970-01-01T00:00:00Z</time></trkpt>
			<trkpt lat="54.459430" lon="20.678020"><ele>34.0</ele><time>1970-01-01T00:00:00Z</time></trkpt>
			<trkpt lat="54.459860" lon="20.676560"><ele>32.0</ele><time>1970-01-01T00:00:00Z</time></trkpt>
			<trkpt lat="54.460190" lon="20.675780"><ele>32.7</ele><time>1970-01-01T00:00:00Z</time></trkpt>
			<trkpt lat="54.460990" lon="20.674780"><ele>34.0</ele><time>1970-01-01T00:00:00Z</time></trkpt>
			<trkpt lat="54.461380" lon="20.674230"><ele>34.1</ele><time>1970-01-01T00:00:00Z</time></trkpt>
			<trkpt lat="54.461680" lon="20.674160"><ele>34.9</ele><time>1970-01-01T00:00:00Z</time></trkpt>
			<trkpt lat="54.461910" lon="20.674160"><ele>35.0</ele><time>1970-01-01T00:00:00Z</time></trkpt>
			<trkpt lat="54.462120" lon="20.674300"><ele>35.2</ele><time>1970-01-01T00:00:00Z</time></trkpt>
			<trkpt lat="54.462650" lon="20.674840"><ele>35.8</ele><time>1970-01-01T00:00:00Z</time></trkpt>
			<trkpt lat="54.463320" lon="20.675780"><ele>37.7</ele><time>1970-01-01T00:00:00Z</time></trkpt>
			<trkpt lat="54.463540" lon="20.675940"><ele>38.1</ele><time>1970-01-01T00:00:00Z</time></trkpt>
			<trkpt lat="54.463840" lon="20.675860"><ele>38.0</ele><time>1970-01-01T00:00:00Z</time></trkpt>
			<trkpt lat="54.463940" lon="20.675740"><ele>38.0</ele><time>1970-01-01T00:00:00Z</time></trkpt>
			<trkpt lat="54.464310" lon="20.675000"><ele>39.2</ele><time>1970-01-01T00:00:00Z</time></trkpt>
			<trkpt lat="54.464530" lon="20.674640"><ele>39.9</ele><time>1970-01-01T00:00:00Z</time></trkpt>
			<trkpt lat="54.464730" lon="20.674410"><ele>40.4</ele><time>1970-01-01T00:00:00Z</time></trkpt>
			<trkpt lat="54.464920" lon="20.674310"><ele>40.7</ele><time>1970-01-01T00:00:00Z</time></trkpt>
			<trkpt lat="54.465230" lon="20.674240"><ele>40.3</ele><time>1970-01-01T00:00:00Z</time></trkpt>
			<trkpt lat="54.465520" lon="20.674250"><ele>39.7</ele><time>1970-01-01T00:00:00Z</time></trkpt>
			<trkpt lat="54.465680" lon="20.674160"><ele>39.4</ele><time>1970-01-01T00:00:00Z</time></trkpt>
			<trkpt lat="54.466040" lon="20.673630"><ele>39.3</ele><time>1970-01-01T00:00:00Z</time></trkpt>
			<trkpt lat="54.466300" lon="20.673120"><ele>39.2</ele><time>1970-01-01T00:00:00Z</time></trkpt>
			<trkpt lat="54.466380" lon="20.672900"><ele>39.2</ele><time>1970-01-01T00:00:00Z</time></trkpt>
			<trkpt lat="54.466420" lon="20.672500"><ele>39.7</ele><time>1970-01-01T00:00:00Z</time></trkpt>
			<trkpt lat="54.466390" lon="20.672080"><ele>40.7</ele><time>1970-01-01T00:00:00Z</time></trkpt>
			<trkpt lat="54.466190" lon="20.671480"><ele>42.1</ele><time>1970-01-01T00:00:00Z</time></trkpt>
			<trkpt lat="54.466120" lon="20.671170"><ele>42.2</ele><time>1970-01-01T00:00:00Z</time></trkpt>
			<trkpt lat="54.466160" lon="20.670960"><ele>42.2</ele><time>1970-01-01T00:00:00Z</time></trkpt>
			<trkpt lat="54.468120" lon="20.667450"><ele>36.7</ele><time>1970-01-01T00:00:00Z</time></trkpt>
			<trkpt lat="54.468760" lon="20.666420"><ele>33.7</ele><time>1970-01-01T00:00:00Z</time></trkpt>
			<trkpt lat="54.470710" lon="20.663570"><ele>35.8</ele><time>1970-01-01T00:00:00Z</time></trkpt>
			<trkpt lat="54.475360" lon="20.657490"><ele>35.5</ele><time>1970-01-01T00:00:00Z</time></trkpt>
			<trkpt lat="54.477920" lon="20.654400"><ele>31.5</ele><time>1970-01-01T00:00:00Z</time></trkpt>
			<trkpt lat="54.478670" lon="20.653150"><ele>32.2</ele><time>1970-01-01T00:00:00Z</time></trkpt>
			<trkpt lat="54.478860" lon="20.652900"><ele>31.3</ele><time>1970-01-01T00:00:00Z</time></trkpt>
			<trkpt lat="54.479370" lon="20.652490"><ele>30.5</ele><time>1970-01-01T00:00:00Z</time></trkpt>
			<trkpt lat="54.479750" lon="20.652250"><ele>31.0</ele><time>1970-01-01T00:00:00Z</time></trkpt>
			<trkpt lat="54.482590" lon="20.648990"><ele>31.6</ele><time>1970-01-01T00:00:00Z</time></trkpt>
			<trkpt lat="54.484360" lon="20.646780"><ele>26.8</ele><time>1970-01-01T00:00:00Z</time></trkpt>
			<trkpt lat="54.484480" lon="20.646460"><ele>26.4</ele><time>1970-01-01T00:00:00Z</time></trkpt>
			<trkpt lat="54.484480" lon="20.645830"><ele>25.8</ele><time>1970-01-01T00:00:00Z</time></trkpt>
			<trkpt lat="54.484440" lon="20.645450"><ele>26.1</ele><time>1970-01-01T00:00:00Z</time></trkpt>
			<trkpt lat="54.484380" lon="20.645280"><ele>26.4</ele><time>1970-01-01T00:00:00Z</time></trkpt>
			<trkpt lat="54.484110" lon="20.644870"><ele>27.8</ele><time>1970-01-01T00:00:00Z</time></trkpt>
			<trkpt lat="54.484050" lon="20.644560"><ele>29.3</ele><time>1970-01-01T00:00:00Z</time></trkpt>
			<trkpt lat="54.484120" lon="20.644130"><ele>31.7</ele><time>1970-01-01T00:00:00Z</time></trkpt>
			<trkpt lat="54.484680" lon="20.642240"><ele>27.2</ele><time>1970-01-01T00:00:00Z</time></trkpt>
			<trkpt lat="54.484810" lon="20.642210"><ele>26.7</ele><time>1970-01-01T00:00:00Z</time></trkpt>
			<trkpt lat="54.484970" lon="20.641930"><ele>26.1</ele><time>1970-01-01T00:00:00Z</time></trkpt>
			<trkpt lat="54.485330" lon="20.640500"><ele>26.8</ele><time>1970-01-01T00:00:00Z</time></trkpt>
			<trkpt lat="54.485590" lon="20.640050"><ele>26.6</ele><time>1970-01-01T00:00:00Z</time></trkpt>
			<trkpt lat="54.485730" lon="20.639680"><ele>26.6</ele><time>1970-01-01T00:00:00Z</time></trkpt>
			<trkpt lat="54.485820" lon="20.639360"><ele>26.8</ele><time>1970-01-01T00:00:00Z</time></trkpt>
			<trkpt lat="54.486030" lon="20.638230"><ele>27.3</ele><time>1970-01-01T00:00:00Z</time></trkpt>
			<trkpt lat="54.486880" lon="20.635860"><ele>25.4</ele><time>1970-01-01T00:00:00Z</time></trkpt>
			<trkpt lat="54.487170" lon="20.635590"><ele>24.7</ele><time>1970-01-01T00:00:00Z</time></trkpt>
			<trkpt lat="54.487440" lon="20.635440"><ele>24.1</ele><time>1970-01-01T00:00:00Z</time></trkpt>
			<trkpt lat="54.488250" lon="20.635100"><ele>24.2</ele><time>1970-01-01T00:00:00Z</time></trkpt>
			<trkpt lat="54.490460" lon="20.634370"><ele>27.9</ele><time>1970-01-01T00:00:00Z</time></trkpt>
			<trkpt lat="54.490930" lon="20.634090"><ele>28.0</ele><time>1970-01-01T00:00:00Z</time></trkpt>
			<trkpt lat="54.498430" lon="20.627440"><ele>26.2</ele><time>1970-01-01T00:00:00Z</time></trkpt>
			<trkpt lat="54.500950" lon="20.625280"><ele>26.7</ele><time>1970-01-01T00:00:00Z</time></trkpt>
			<trkpt lat="54.504950" lon="20.621680"><ele>27.1</ele><time>1970-01-01T00:00:00Z</time></trkpt>
			<trkpt lat="54.505820" lon="20.624060"><ele>26.8</ele><time>1970-01-01T00:00:00Z</time></trkpt>
			<trkpt lat="54.507250" lon="20.627770"><ele>27.7</ele><time>1970-01-01T00:00:00Z</time></trkpt>
			<trkpt lat="54.507740" lon="20.629120"><ele>28.3</ele><time>1970-01-01T00:00:00Z</time></trkpt>
			<trkpt lat="54.507840" lon="20.629490"><ele>28.0</ele><time>1970-01-01T00:00:00Z</time></trkpt>
			<trkpt lat="54.507970" lon="20.630430"><ele>27.0</ele><time>1970-01-01T00:00:00Z</time></trkpt>
			<trkpt lat="54.508020" lon="20.631070"><ele>26.4</ele><time>1970-01-01T00:00:00Z</time></trkpt>
			<trkpt lat="54.507990" lon="20.632050"><ele>26.0</ele><time>1970-01-01T00:00:00Z</time></trkpt>
			<trkpt lat="54.507770" lon="20.633850"><ele>26.3</ele><time>1970-01-01T00:00:00Z</time></trkpt>
			<trkpt lat="54.505600" lon="20.646160"><ele>27.4</ele><time>1970-01-01T00:00:00Z</time></trkpt>
			<trkpt lat="54.504330" lon="20.653810"><ele>28.7</ele><time>1970-01-01T00:00:00Z</time></trkpt>
			<trkpt lat="54.504280" lon="20.654590"><ele>29.4</ele><time>1970-01-01T00:00:00Z</time></trkpt>
			<trkpt lat="54.504330" lon="20.655290"><ele>29.8</ele><time>1970-01-01T00:00:00Z</time></trkpt>
			<trkpt lat="54.504450" lon="20.656040"><ele>29.7</ele><time>1970-01-01T00:00:00Z</time></trkpt>
			<trkpt lat="54.504640" lon="20.656750"><ele>29.6</ele><time>1970-01-01T00:00:00Z</time></trkpt>
			<trkpt lat="54.504890" lon="20.657520"><ele>30.7</ele><time>1970-01-01T00:00:00Z</time></trkpt>
			<trkpt lat="54.505370" lon="20.658400"><ele>29.5</ele><time>1970-01-01T00:00:00Z</time></trkpt>
			<trkpt lat="54.506730" lon="20.660660"><ele>29.3</ele><time>1970-01-01T00:00:00Z</time></trkpt>
			<trkpt lat="54.508420" lon="20.663800"><ele>28.0</ele><time>1970-01-01T00:00:00Z</time></trkpt>
			<trkpt lat="54.511250" lon="20.669510"><ele>27.3</ele><time>1970-01-01T00:00:00Z</time></trkpt>
			<trkpt lat="54.511650" lon="20.669950"><ele>26.9</ele><time>1970-01-01T00:00:00Z</time></trkpt>
			<trkpt lat="54.512480" lon="20.670710"><ele>25.9</ele><time>1970-01-01T00:00:00Z</time></trkpt>
			<trkpt lat="54.512960" lon="20.671230"><ele>25.5</ele><time>1970-01-01T00:00:00Z</time></trkpt>
			<trkpt lat="54.514120" lon="20.672750"><ele>23.4</ele><time>1970-01-01T00:00:00Z</time></trkpt>
			<trkpt lat="54.514330" lon="20.673190"><ele>23.9</ele><time>1970-01-01T00:00:00Z</time></trkpt>
			<trkpt lat="54.516260" lon="20.678080"><ele>23.2</ele><time>1970-01-01T00:00:00Z</time></trkpt>
			<trkpt lat="54.516510" lon="20.678360"><ele>22.9</ele><time>1970-01-01T00:00:00Z</time></trkpt>
			<trkpt lat="54.516720" lon="20.678440"><ele>22.6</ele><time>1970-01-01T00:00:00Z</time></trkpt>
			<trkpt lat="54.518190" lon="20.678400"><ele>20.8</ele><time>1970-01-01T00:00:00Z</time></trkpt>
			<trkpt lat="54.518840" lon="20.678480"><ele>20.1</ele><time>1970-01-01T00:00:00Z</time></trkpt>
			<trkpt lat="54.519640" lon="20.678750"><ele>19.2</ele><time>1970-01-01T00:00:00Z</time></trkpt>
			<trkpt lat="54.520150" lon="20.679160"><ele>19.0</ele><time>1970-01-01T00:00:00Z</time></trkpt>
			<trkpt lat="54.520710" lon="20.679470"><ele>19.4</ele><time>1970-01-01T00:00:00Z</time></trkpt>
			<trkpt lat="54.521100" lon="20.679640"><ele>19.6</ele><time>1970-01-01T00:00:00Z</time></trkpt>
			<trkpt lat="54.521570" lon="20.679740"><ele>20.0</ele><time>1970-01-01T00:00:00Z</time></trkpt>
			<trkpt lat="54.521850" lon="20.679740"><ele>20.2</ele><time>1970-01-01T00:00:00Z</time></trkpt>
			<trkpt lat="54.521980" lon="20.679980"><ele>20.9</ele><time>1970-01-01T00:00:00Z</time></trkpt>
			<trkpt lat="54.523470" lon="20.686480"><ele>25.5</ele><time>1970-01-01T00:00:00Z</time></trkpt>
			<trkpt lat="54.523900" lon="20.688080"><ele>24.3</ele><time>1970-01-01T00:00:00Z</time></trkpt>
			<trkpt lat="54.524050" lon="20.688460"><ele>24.3</ele><time>1970-01-01T00:00:00Z</time></trkpt>
			<trkpt lat="54.529890" lon="20.699220"><ele>21.9</ele><time>1970-01-01T00:00:00Z</time></trkpt>
			<trkpt lat="54.531740" lon="20.702860"><ele>23.3</ele><time>1970-01-01T00:00:00Z</time></trkpt>
			<trkpt lat="54.532490" lon="20.703730"><ele>23.0</ele><time>1970-01-01T00:00:00Z</time></trkpt>
			<trkpt lat="54.534270" lon="20.705650"><ele>23.4</ele><time>1970-01-01T00:00:00Z</time></trkpt>
			<trkpt lat="54.534710" lon="20.706080"><ele>23.3</ele><time>1970-01-01T00:00:00Z</time></trkpt>
			<trkpt lat="54.535350" lon="20.706530"><ele>23.3</ele><time>1970-01-01T00:00:00Z</time></trkpt>
			<trkpt lat="54.535840" lon="20.706780"><ele>23.9</ele><time>1970-01-01T00:00:00Z</time></trkpt>
			<trkpt lat="54.537410" lon="20.707690"><ele>22.2</ele><time>1970-01-01T00:00:00Z</time></trkpt>
			<trkpt lat="54.538250" lon="20.708070"><ele>22.0</ele><time>1970-01-01T00:00:00Z</time></trkpt>
			<trkpt lat="54.539300" lon="20.708750"><ele>23.0</ele><time>1970-01-01T00:00:00Z</time></trkpt>
			<trkpt lat="54.539750" lon="20.708950"><ele>23.0</ele><time>1970-01-01T00:00:00Z</time></trkpt>
			<trkpt lat="54.540730" lon="20.709900"><ele>21.1</ele><time>1970-01-01T00:00:00Z</time></trkpt>
			<trkpt lat="54.541040" lon="20.710310"><ele>20.5</ele><time>1970-01-01T00:00:00Z</time></trkpt>
			<trkpt lat="54.541170" lon="20.710530"><ele>20.4</ele><time>1970-01-01T00:00:00Z</time></trkpt>
			<trkpt lat="54.541280" lon="20.710930"><ele>20.6</ele><time>1970-01-01T00:00:00Z</time></trkpt>
			<trkpt lat="54.541360" lon="20.711350"><ele>21.0</ele><time>1970-01-01T00:00:00Z</time></trkpt>
			<trkpt lat="54.541410" lon="20.712230"><ele>22.4</ele><time>1970-01-01T00:00:00Z</time></trkpt>
			<trkpt lat="54.540950" lon="20.713530"><ele>23.9</ele><time>1970-01-01T00:00:00Z</time></trkpt>
			<trkpt lat="54.540760" lon="20.714480"><ele>22.4</ele><time>1970-01-01T00:00:00Z</time></trkpt>
			<trkpt lat="54.540740" lon="20.715160"><ele>21.6</ele><time>1970-01-01T00:00:00Z</time></trkpt>
			<trkpt lat="54.540950" lon="20.716270"><ele>22.0</ele><time>1970-01-01T00:00:00Z</time></trkpt>
			<trkpt lat="54.541250" lon="20.717430"><ele>22.7</ele><time>1970-01-01T00:00:00Z</time></trkpt>
			<trkpt lat="54.541650" lon="20.717900"><ele>22.9</ele><time>1970-01-01T00:00:00Z</time></trkpt>
			<trkpt lat="54.542150" lon="20.718360"><ele>21.8</ele><time>1970-01-01T00:00:00Z</time></trkpt>
			<trkpt lat="54.542760" lon="20.719040"><ele>20.9</ele><time>1970-01-01T00:00:00Z</time></trkpt>
			<trkpt lat="54.543550" lon="20.721800"><ele>24.1</ele><time>1970-01-01T00:00:00Z</time></trkpt>
			<trkpt lat="54.544310" lon="20.722890"><ele>26.1</ele><time>1970-01-01T00:00:00Z</time></trkpt>
			<trkpt lat="54.544670" lon="20.723170"><ele>26.7</ele><time>1970-01-01T00:00:00Z</time></trkpt>
			<trkpt lat="54.544710" lon="20.723240"><ele>26.7</ele><time>1970-01-01T00:00:00Z</time></trkpt>
			<trkpt lat="54.545570" lon="20.722480"><ele>21.6</ele><time>1970-01-01T00:00:00Z</time></trkpt>
			<trkpt lat="54.546160" lon="20.721780"><ele>20.0</ele><time>1970-01-01T00:00:00Z</time></trkpt>
			<trkpt lat="54.546440" lon="20.721530"><ele>20.5</ele><time>1970-01-01T00:00:00Z</time></trkpt>
			<trkpt lat="54.546250" lon="20.720890"><ele>22.8</ele><time>1970-01-01T00:00:00Z</time></trkpt>
			<trkpt lat="54.546140" lon="20.720630"><ele>23.6</ele><time>1970-01-01T00:00:00Z</time></trkpt>
			<trkpt lat="54.545670" lon="20.720050"><ele>24.3</ele><time>1970-01-01T00:00:00Z</time></trkpt>
			<trkpt lat="54.545330" lon="20.719980"><ele>23.2</ele><time>1970-01-01T00:00:00Z</time></trkpt>
			<trkpt lat="54.545070" lon="20.719650"><ele>22.2</ele><time>1970-01-01T00:00:00Z</time></trkpt>
			<trkpt lat="54.544850" lon="20.718980"><ele>21.9</ele><time>1970-01-01T00:00:00Z</time></trkpt>
			<trkpt lat="54.544030" lon="20.716830"><ele>22.6</ele><time>1970-01-01T00:00:00Z</time></trkpt>
			<trkpt lat="54.543900" lon="20.716640"><ele>22.8</ele><time>1970-01-01T00:00:00Z</time></trkpt>
			<trkpt lat="54.543530" lon="20.715650"><ele>25.5</ele><time>1970-01-01T00:00:00Z</time></trkpt>
			<trkpt lat="54.543270" lon="20.714780"><ele>25.6</ele><time>1970-01-01T00:00:00Z</time></trkpt>
			<trkpt lat="54.543160" lon="20.714190"><ele>24.4</ele><time>1970-01-01T00:00:00Z</time></trkpt>
			<trkpt lat="54.543170" lon="20.712000"><ele>21.8</ele><time>1970-01-01T00:00:00Z</time></trkpt>
			<trkpt lat="54.543250" lon="20.711400"><ele>21.6</ele><time>1970-01-01T00:00:00Z</time></trkpt>
			<trkpt lat="54.543260" lon="20.710540"><ele>21.3</ele><time>1970-01-01T00:00:00Z</time></trkpt>
			<trkpt lat="54.543200" lon="20.709520"><ele>21.0</ele><time>1970-01-01T00:00:00Z</time></trkpt>
			<trkpt lat="54.543210" lon="20.709170"><ele>21.5</ele><time>1970-01-01T00:00:00Z</time></trkpt>
			<trkpt lat="54.544680" lon="20.707910"><ele>23.0</ele><time>1970-01-01T00:00:00Z</time></trkpt>
			<trkpt lat="54.545540" lon="20.707260"><ele>23.6</ele><time>1970-01-01T00:00:00Z</time></trkpt>
			<trkpt lat="54.546610" lon="20.706380"><ele>23.1</ele><time>1970-01-01T00:00:00Z</time></trkpt>
			<trkpt lat="54.547750" lon="20.705380"><ele>24.3</ele><time>1970-01-01T00:00:00Z</time></trkpt>
			<trkpt lat="54.550880" lon="20.702740"><ele>24.0</ele><time>1970-01-01T00:00:00Z</time></trkpt>
			<trkpt lat="54.551080" lon="20.702420"><ele>24.0</ele><time>1970-01-01T00:00:00Z</time></trkpt>
			<trkpt lat="54.551770" lon="20.699960"><ele>22.8</ele><time>1970-01-01T00:00:00Z</time></trkpt>
			<trkpt lat="54.551880" lon="20.699120"><ele>21.5</ele><time>1970-01-01T00:00:00Z</time></trkpt>
			<trkpt lat="54.551990" lon="20.697280"><ele>19.8</ele><time>1970-01-01T00:00:00Z</time></trkpt>
			<trkpt lat="54.552270" lon="20.694550"><ele>17.2</ele><time>1970-01-01T00:00:00Z</time></trkpt>
			<trkpt lat="54.555670" lon="20.683550"><ele>21.7</ele><time>1970-01-01T00:00:00Z</time></trkpt>
			<trkpt lat="54.557470" lon="20.677910"><ele>21.5</ele><time>1970-01-01T00:00:00Z</time></trkpt>
			<trkpt lat="54.559360" lon="20.676200"><ele>24.3</ele><time>1970-01-01T00:00:00Z</time></trkpt>
			<trkpt lat="54.559500" lon="20.675820"><ele>24.6</ele><time>1970-01-01T00:00:00Z</time></trkpt>
			<trkpt lat="54.559590" lon="20.674960"><ele>23.5</ele><time>1970-01-01T00:00:00Z</time></trkpt>
			<trkpt lat="54.559810" lon="20.673820"><ele>23.9</ele><time>1970-01-01T00:00:00Z</time></trkpt>
			<trkpt lat="54.561260" lon="20.672740"><ele>25.2</ele><time>1970-01-01T00:00:00Z</time></trkpt>
			<trkpt lat="54.562220" lon="20.672690"><ele>26.3</ele><time>1970-01-01T00:00:00Z</time></trkpt>
			<trkpt lat="54.562800" lon="20.672620"><ele>27.1</ele><time>1970-01-01T00:00:00Z</time></trkpt>
			<trkpt lat="54.563580" lon="20.672600"><ele>28.2</ele><time>1970-01-01T00:00:00Z</time></trkpt>
			<trkpt lat="54.563830" lon="20.672530"><ele>28.6</ele><time>1970-01-01T00:00:00Z</time></trkpt>
			<trkpt lat="54.564370" lon="20.672060"><ele>28.9</ele><time>1970-01-01T00:00:00Z</time></trkpt>
			<trkpt lat="54.564810" lon="20.670800"><ele>29.8</ele><time>1970-01-01T00:00:00Z</time></trkpt>
			<trkpt lat="54.565160" lon="20.668050"><ele>29.0</ele><time>1970-01-01T00:00:00Z</time></trkpt>
			<trkpt lat="54.565260" lon="20.665080"><ele>29.3</ele><time>1970-01-01T00:00:00Z</time></trkpt>
			<trkpt lat="54.565830" lon="20.652910"><ele>29.5</ele><time>1970-01-01T00:00:00Z</time></trkpt>
			<trkpt lat="54.566890" lon="20.641710"><ele>25.1</ele><time>1970-01-01T00:00:00Z</time></trkpt>
			<trkpt lat="54.566510" lon="20.639080"><ele>24.8</ele><time>1970-01-01T00:00:00Z</time></trkpt>
			<trkpt lat="54.566400" lon="20.638670"><ele>24.7</ele><time>1970-01-01T00:00:00Z</time></trkpt>
			<trkpt lat="54.564790" lon="20.635500"><ele>24.8</ele><time>1970-01-01T00:00:00Z</time></trkpt>
			<trkpt lat="54.561740" lon="20.630120"><ele>24.1</ele><time>1970-01-01T00:00:00Z</time></trkpt>
			<trkpt lat="54.561420" lon="20.629080"><ele>22.0</ele><time>1970-01-01T00:00:00Z</time></trkpt>
			<trkpt lat="54.560820" lon="20.626360"><ele>18.4</ele><time>1970-01-01T00:00:00Z</time></trkpt>
			<trkpt lat="54.560690" lon="20.625990"><ele>18.6</ele><time>1970-01-01T00:00:00Z</time></trkpt>
			<trkpt lat="54.558660" lon="20.623510"><ele>16.2</ele><time>1970-01-01T00:00:00Z</time></trkpt>
			<trkpt lat="54.558510" lon="20.623210"><ele>16.4</ele><time>1970-01-01T00:00:00Z</time></trkpt>
			<trkpt lat="54.558470" lon="20.623000"><ele>16.6</ele><time>1970-01-01T00:00:00Z</time></trkpt>
			<trkpt lat="54.558400" lon="20.621430"><ele>18.3</ele><time>1970-01-01T00:00:00Z</time></trkpt>
			<trkpt lat="54.558260" lon="20.621100"><ele>18.7</ele><time>1970-01-01T00:00:00Z</time></trkpt>
			<trkpt lat="54.556670" lon="20.618310"><ele>21.9</ele><time>1970-01-01T00:00:00Z</time></trkpt>
			<trkpt lat="54.555890" lon="20.617150"><ele>19.6</ele><time>1970-01-01T00:00:00Z</time></trkpt>
			<trkpt lat="54.554510" lon="20.614980"><ele>17.5</ele><time>1970-01-01T00:00:00Z</time></trkpt>
			<trkpt lat="54.554370" lon="20.614660"><ele>17.9</ele><time>1970-01-01T00:00:00Z</time></trkpt>
			<trkpt lat="54.553990" lon="20.610770"><ele>20.7</ele><time>1970-01-01T00:00:00Z</time></trkpt>
			<trkpt lat="54.553890" lon="20.610410"><ele>20.3</ele><time>1970-01-01T00:00:00Z</time></trkpt>
			<trkpt lat="54.550040" lon="20.603630"><ele>16.1</ele><time>1970-01-01T00:00:00Z</time></trkpt>
			<trkpt lat="54.549140" lon="20.601940"><ele>13.3</ele><time>1970-01-01T00:00:00Z</time></trkpt>
			<trkpt lat="54.548740" lon="20.600690"><ele>12.7</ele><time>1970-01-01T00:00:00Z</time></trkpt>
			<trkpt lat="54.548190" lon="20.598690"><ele>14.8</ele><time>1970-01-01T00:00:00Z</time></trkpt>
			<trkpt lat="54.547990" lon="20.598290"><ele>14.4</ele><time>1970-01-01T00:00:00Z</time></trkpt>
			<trkpt lat="54.547180" lon="20.597170"><ele>12.5</ele><time>1970-01-01T00:00:00Z</time></trkpt>
			<trkpt lat="54.546740" lon="20.596640"><ele>12.9</ele><time>1970-01-01T00:00:00Z</time></trkpt>
			<trkpt lat="54.546600" lon="20.596220"><ele>12.4</ele><time>1970-01-01T00:00:00Z</time></trkpt>
			<trkpt lat="54.546380" lon="20.595180"><ele>10.9</ele><time>1970-01-01T00:00:00Z</time></trkpt>
			<trkpt lat="54.545840" lon="20.592050"><ele>10.9</ele><time>1970-01-01T00:00:00Z</time></trkpt>
			<trkpt lat="54.546410" lon="20.591600"><ele>9.2</ele><time>1970-01-01T00:00:00Z</time></trkpt>
			<trkpt lat="54.549330" lon="20.589530"><ele>13.6</ele><time>1970-01-01T00:00:00Z</time></trkpt>
			<trkpt lat="54.552770" lon="20.587030"><ele>13.9</ele><time>1970-01-01T00:00:00Z</time></trkpt>
			<trkpt lat="54.553140" lon="20.586720"><ele>13.3</ele><time>1970-01-01T00:00:00Z</time></trkpt>
			<trkpt lat="54.553670" lon="20.586120"><ele>12.6</ele><time>1970-01-01T00:00:00Z</time></trkpt>
			<trkpt lat="54.553990" lon="20.585690"><ele>12.6</ele><time>1970-01-01T00:00:00Z</time></trkpt>
			<trkpt lat="54.554210" lon="20.585270"><ele>12.4</ele><time>1970-01-01T00:00:00Z</time></trkpt>
			<trkpt lat="54.554610" lon="20.584220"><ele>13.0</ele><time>1970-01-01T00:00:00Z</time></trkpt>
			<trkpt lat="54.554740" lon="20.583750"><ele>12.8</ele><time>1970-01-01T00:00:00Z</time></trkpt>
			<trkpt lat="54.556400" lon="20.575920"><ele>9.1</ele><time>1970-01-01T00:00:00Z</time></trkpt>
			<trkpt lat="54.556540" lon="20.574850"><ele>7.5</ele><time>1970-01-01T00:00:00Z</time></trkpt>
			<trkpt lat="54.556550" lon="20.573490"><ele>6.6</ele><time>1970-01-01T00:00:00Z</time></trkpt>
			<trkpt lat="54.556520" lon="20.573070"><ele>6.6</ele><time>1970-01-01T00:00:00Z</time></trkpt>
			<trkpt lat="54.556210" lon="20.571020"><ele>6.2</ele><time>1970-01-01T00:00:00Z</time></trkpt>
			<trkpt lat="54.556140" lon="20.570190"><ele>6.3</ele><time>1970-01-01T00:00:00Z</time></trkpt>
			<trkpt lat="54.556160" lon="20.569340"><ele>6.4</ele><time>1970-01-01T00:00:00Z</time></trkpt>
			<trkpt lat="54.556250" lon="20.568570"><ele>5.8</ele><time>1970-01-01T00:00:00Z</time></trkpt>
			<trkpt lat="54.556380" lon="20.567840"><ele>5.3</ele><time>1970-01-01T00:00:00Z</time></trkpt>
			<trkpt lat="54.556590" lon="20.567190"><ele>5.0</ele><time>1970-01-01T00:00:00Z</time></trkpt>
			<trkpt lat="54.556750" lon="20.566860"><ele>5.0</ele><time>1970-01-01T00:00:00Z</time></trkpt>
			<trkpt lat="54.557070" lon="20.566330"><ele>5.2</ele><time>1970-01-01T00:00:00Z</time></trkpt>
			<trkpt lat="54.557340" lon="20.565960"><ele>5.7</ele><time>1970-01-01T00:00:00Z</time></trkpt>
			<trkpt lat="54.557660" lon="20.565640"><ele>5.8</ele><time>1970-01-01T00:00:00Z</time></trkpt>
			<trkpt lat="54.557930" lon="20.565440"><ele>5.5</ele><time>1970-01-01T00:00:00Z</time></trkpt>
			<trkpt lat="54.558610" lon="20.565180"><ele>5.9</ele><time>1970-01-01T00:00:00Z</time></trkpt>
			<trkpt lat="54.558990" lon="20.565140"><ele>6.8</ele><time>1970-01-01T00:00:00Z</time></trkpt>
			<trkpt lat="54.559470" lon="20.565250"><ele>7.6</ele><time>1970-01-01T00:00:00Z</time></trkpt>
			<trkpt lat="54.559870" lon="20.565480"><ele>7.9</ele><time>1970-01-01T00:00:00Z</time></trkpt>
			<trkpt lat="54.560430" lon="20.566060"><ele>9.0</ele><time>1970-01-01T00:00:00Z</time></trkpt>
			<trkpt lat="54.560700" lon="20.566460"><ele>9.7</ele><time>1970-01-01T00:00:00Z</time></trkpt>
			<trkpt lat="54.560960" lon="20.566980"><ele>10.7</ele><time>1970-01-01T00:00:00Z</time></trkpt>
			<trkpt lat="54.561190" lon="20.567600"><ele>11.5</ele><time>1970-01-01T00:00:00Z</time></trkpt>
			<trkpt lat="54.561370" lon="20.568270"><ele>12.2</ele><time>1970-01-01T00:00:00Z</time></trkpt>
			<trkpt lat="54.562200" lon="20.573840"><ele>13.9</ele><time>1970-01-01T00:00:00Z</time></trkpt>
			<trkpt lat="54.562400" lon="20.575100"><ele>14.9</ele><time>1970-01-01T00:00:00Z</time></trkpt>
			<trkpt lat="54.562530" lon="20.575610"><ele>15.0</ele><time>1970-01-01T00:00:00Z</time></trkpt>
			<trkpt lat="54.562700" lon="20.576000"><ele>15.4</ele><time>1970-01-01T00:00:00Z</time></trkpt>
			<trkpt lat="54.563120" lon="20.576760"><ele>16.1</ele><time>1970-01-01T00:00:00Z</time></trkpt>
			<trkpt lat="54.563380" lon="20.577160"><ele>16.6</ele><time>1970-01-01T00:00:00Z</time></trkpt>
			<trkpt lat="54.563610" lon="20.577400"><ele>17.2</ele><time>1970-01-01T00:00:00Z</time></trkpt>
			<trkpt lat="54.563900" lon="20.577580"><ele>17.7</ele><time>1970-01-01T00:00:00Z</time></trkpt>
			<trkpt lat="54.564160" lon="20.577700"><ele>18.2</ele><time>1970-01-01T00:00:00Z</time></trkpt>
			<trkpt lat="54.564610" lon="20.577840"><ele>18.4</ele><time>1970-01-01T00:00:00Z</time></trkpt>
			<trkpt lat="54.564910" lon="20.577850"><ele>18.4</ele><time>1970-01-01T00:00:00Z</time></trkpt>
			<trkpt lat="54.565330" lon="20.577780"><ele>18.2</ele><time>1970-01-01T00:00:00Z</time></trkpt>
			<trkpt lat="54.565790" lon="20.577610"><ele>18.0</ele><time>1970-01-01T00:00:00Z</time></trkpt>
			<trkpt lat="54.567310" lon="20.576590"><ele>18.0</ele><time>1970-01-01T00:00:00Z</time></trkpt>
			<trkpt lat="54.572140" lon="20.573110"><ele>19.7</ele><time>1970-01-01T00:00:00Z</time></trkpt>
			<trkpt lat="54.578310" lon="20.568590"><ele>24.4</ele><time>1970-01-01T00:00:00Z</time></trkpt>
			<trkpt lat="54.578750" lon="20.568350"><ele>24.9</ele><time>1970-01-01T00:00:00Z</time></trkpt>
			<trkpt lat="54.579100" lon="20.568220"><ele>25.3</ele><time>1970-01-01T00:00:00Z</time></trkpt>
			<trkpt lat="54.579480" lon="20.568150"><ele>25.8</ele><time>1970-01-01T00:00:00Z</time></trkpt>
			<trkpt lat="54.580370" lon="20.568120"><ele>27.3</ele><time>1970-01-01T00:00:00Z</time></trkpt>
			<trkpt lat="54.583660" lon="20.568170"><ele>28.3</ele><time>1970-01-01T00:00:00Z</time></trkpt>
			<trkpt lat="54.584440" lon="20.568130"><ele>28.9</ele><time>1970-01-01T00:00:00Z</time></trkpt>
			<trkpt lat="54.584400" lon="20.569010"><ele>28.8</ele><time>1970-01-01T00:00:00Z</time></trkpt>
			<trkpt lat="54.584370" lon="20.572910"><ele>27.6</ele><time>1970-01-01T00:00:00Z</time></trkpt>
			<trkpt lat="54.584390" lon="20.577860"><ele>31.1</ele><time>1970-01-01T00:00:00Z</time></trkpt>
			<trkpt lat="54.584460" lon="20.579540"><ele>31.4</ele><time>1970-01-01T00:00:00Z</time></trkpt>
			<trkpt lat="54.585250" lon="20.584940"><ele>30.3</ele><time>1970-01-01T00:00:00Z</time></trkpt>
			<trkpt lat="54.587090" lon="20.598090"><ele>31.3</ele><time>1970-01-01T00:00:00Z</time></trkpt>
			<trkpt lat="54.587230" lon="20.598950"><ele>29.8</ele><time>1970-01-01T00:00:00Z</time></trkpt>
			<trkpt lat="54.587370" lon="20.599590"><ele>28.6</ele><time>1970-01-01T00:00:00Z</time></trkpt>
			<trkpt lat="54.588710" lon="20.605070"><ele>28.0</ele><time>1970-01-01T00:00:00Z</time></trkpt>
			<trkpt lat="54.588930" lon="20.605860"><ele>28.0</ele><time>1970-01-01T00:00:00Z</time></trkpt>
			<trkpt lat="54.590440" lon="20.612030"><ele>29.1</ele><time>1970-01-01T00:00:00Z</time></trkpt>
			<trkpt lat="54.590670" lon="20.613070"><ele>29.5</ele><time>1970-01-01T00:00:00Z</time></trkpt>
			<trkpt lat="54.590650" lon="20.614200"><ele>29.8</ele><time>1970-01-01T00:00:00Z</time></trkpt>
			<trkpt lat="54.590410" lon="20.618490"><ele>28.1</ele><time>1970-01-01T00:00:00Z</time></trkpt>
			<trkpt lat="54.590480" lon="20.619040"><ele>28.5</ele><time>1970-01-01T00:00:00Z</time></trkpt>
			<trkpt lat="54.591280" lon="20.621220"><ele>29.0</ele><time>1970-01-01T00:00:00Z</time></trkpt>
			<trkpt lat="54.591770" lon="20.622340"><ele>30.1</ele><time>1970-01-01T00:00:00Z</time></trkpt>
			<trkpt lat="54.592990" lon="20.625350"><ele>28.2</ele><time>1970-01-01T00:00:00Z</time></trkpt>
			<trkpt lat="54.593480" lon="20.626420"><ele>27.2</ele><time>1970-01-01T00:00:00Z</time></trkpt>
			<trkpt lat="54.593640" lon="20.626560"><ele>27.4</ele><time>1970-01-01T00:00:00Z</time></trkpt>
			<trkpt lat="54.593780" lon="20.626580"><ele>27.5</ele><time>1970-01-01T00:00:00Z</time></trkpt>
			<trkpt lat="54.594060" lon="20.626480"><ele>27.9</ele><time>1970-01-01T00:00:00Z</time></trkpt>
			<trkpt lat="54.594890" lon="20.625940"><ele>27.2</ele><time>1970-01-01T00:00:00Z</time></trkpt>
			<trkpt lat="54.597790" lon="20.624170"><ele>28.0</ele><time>1970-01-01T00:00:00Z</time></trkpt>
			<trkpt lat="54.600670" lon="20.622320"><ele>26.4</ele><time>1970-01-01T00:00:00Z</time></trkpt>
			<trkpt lat="54.601440" lon="20.621470"><ele>25.7</ele><time>1970-01-01T00:00:00Z</time></trkpt>
			<trkpt lat="54.602480" lon="20.620730"><ele>25.9</ele><time>1970-01-01T00:00:00Z</time></trkpt>
			<trkpt lat="54.604700" lon="20.619240"><ele>28.9</ele><time>1970-01-01T00:00:00Z</time></trkpt>
			<trkpt lat="54.605840" lon="20.618170"><ele>29.3</ele><time>1970-01-01T00:00:00Z</time></trkpt>
			<trkpt lat="54.606540" lon="20.617620"><ele>29.3</ele><time>1970-01-01T00:00:00Z</time></trkpt>
			<trkpt lat="54.608280" lon="20.617130"><ele>27.2</ele><time>1970-01-01T00:00:00Z</time></trkpt>
			<trkpt lat="54.610100" lon="20.616990"><ele>24.2</ele><time>1970-01-01T00:00:00Z</time></trkpt>
			<trkpt lat="54.610310" lon="20.617120"><ele>24.0</ele><time>1970-01-01T00:00:00Z</time></trkpt>
			<trkpt lat="54.618220" lon="20.631200"><ele>21.9</ele><time>1970-01-01T00:00:00Z</time></trkpt>
			<trkpt lat="54.618420" lon="20.631360"><ele>22.0</ele><time>1970-01-01T00:00:00Z</time></trkpt>
			<trkpt lat="54.618680" lon="20.631350"><ele>22.0</ele><time>1970-01-01T00:00:00Z</time></trkpt>
			<trkpt lat="54.623340" lon="20.630770"><ele>22.9</ele><time>1970-01-01T00:00:00Z</time></trkpt>
			<trkpt lat="54.623540" lon="20.630790"><ele>22.5</ele><time>1970-01-01T00:00:00Z</time></trkpt>
			<trkpt lat="54.623750" lon="20.630880"><ele>22.0</ele><time>1970-01-01T00:00:00Z</time></trkpt>
			<trkpt lat="54.624010" lon="20.631130"><ele>21.4</ele><time>1970-01-01T00:00:00Z</time></trkpt>
			<trkpt lat="54.624300" lon="20.630620"><ele>21.6</ele><time>1970-01-01T00:00:00Z</time></trkpt>
			<trkpt lat="54.625910" lon="20.628320"><ele>25.3</ele><time>1970-01-01T00:00:00Z</time></trkpt>
			<trkpt lat="54.626030" lon="20.628100"><ele>25.9</ele><time>1970-01-01T00:00:00Z</time></trkpt>
			<trkpt lat="54.626070" lon="20.627920"><ele>25.9</ele><time>1970-01-01T00:00:00Z</time></trkpt>
			<trkpt lat="54.625940" lon="20.625020"><ele>24.3</ele><time>1970-01-01T00:00:00Z</time></trkpt>
			<trkpt lat="54.626020" lon="20.624600"><ele>24.6</ele><time>1970-01-01T00:00:00Z</time></trkpt>
			<trkpt lat="54.626280" lon="20.623940"><ele>25.2</ele><time>1970-01-01T00:00:00Z</time></trkpt>
			<trkpt lat="54.626380" lon="20.623580"><ele>25.0</ele><time>1970-01-01T00:00:00Z</time></trkpt>
			<trkpt lat="54.626860" lon="20.619600"><ele>19.9</ele><time>1970-01-01T00:00:00Z</time></trkpt>
			<trkpt lat="54.626720" lon="20.612410"><ele>21.9</ele><time>1970-01-01T00:00:00Z</time></trkpt>
			<trkpt lat="54.626740" lon="20.612000"><ele>21.9</ele><time>1970-01-01T00:00:00Z</time></trkpt>
			<trkpt lat="54.626800" lon="20.611640"><ele>21.8</ele><time>1970-01-01T00:00:00Z</time></trkpt>
			<trkpt lat="54.626960" lon="20.611280"><ele>21.8</ele><time>1970-01-01T00:00:00Z</time></trkpt>
			<trkpt lat="54.627080" lon="20.611160"><ele>21.8</ele><time>1970-01-01T00:00:00Z</time></trkpt>
			<trkpt lat="54.629090" lon="20.609930"><ele>19.1</ele><time>1970-01-01T00:00:00Z</time></trkpt>
			<trkpt lat="54.632270" lon="20.608340"><ele>18.3</ele><time>1970-01-01T00:00:00Z</time></trkpt>
			<trkpt lat="54.632500" lon="20.608310"><ele>18.0</ele><time>1970-01-01T00:00:00Z</time></trkpt>
			<trkpt lat="54.633890" lon="20.608340"><ele>17.7</ele><time>1970-01-01T00:00:00Z</time></trkpt>
			<trkpt lat="54.635850" lon="20.608430"><ele>16.9</ele><time>1970-01-01T00:00:00Z</time></trkpt>
			<trkpt lat="54.638260" lon="20.608470"><ele>14.9</ele><time>1970-01-01T00:00:00Z</time></trkpt>
			<trkpt lat="54.640170" lon="20.608560"><ele>15.5</ele><time>1970-01-01T00:00:00Z</time></trkpt>
			<trkpt lat="54.640790" lon="20.608560"><ele>14.8</ele><time>1970-01-01T00:00:00Z</time></trkpt>
			<trkpt lat="54.641010" lon="20.608520"><ele>14.6</ele><time>1970-01-01T00:00:00Z</time></trkpt>
			<trkpt lat="54.642200" lon="20.608080"><ele>14.1</ele><time>1970-01-01T00:00:00Z</time></trkpt>
			<trkpt lat="54.643370" lon="20.607700"><ele>14.9</ele><time>1970-01-01T00:00:00Z</time></trkpt>
			<trkpt lat="54.644370" lon="20.607310"><ele>14.2</ele><time>1970-01-01T00:00:00Z</time></trkpt>
			<trkpt lat="54.644530" lon="20.607350"><ele>14.1</ele><time>1970-01-01T00:00:00Z</time></trkpt>
			<trkpt lat="54.644640" lon="20.604730"><ele>15.0</ele><time>1970-01-01T00:00:00Z</time></trkpt>
			<trkpt lat="54.645610" lon="20.604220"><ele>14.3</ele><time>1970-01-01T00:00:00Z</time></trkpt>
			<trkpt lat="54.647480" lon="20.602600"><ele>13.1</ele><time>1970-01-01T00:00:00Z</time></trkpt>
			<trkpt lat="54.647650" lon="20.601960"><ele>13.5</ele><time>1970-01-01T00:00:00Z</time></trkpt>
			<trkpt lat="54.648560" lon="20.600450"><ele>13.6</ele><time>1970-01-01T00:00:00Z</time></trkpt>
			<trkpt lat="54.648700" lon="20.599720"><ele>14.2</ele><time>1970-01-01T00:00:00Z</time></trkpt>
			<trkpt lat="54.648640" lon="20.599260"><ele>14.5</ele><time>1970-01-01T00:00:00Z</time></trkpt>
			<trkpt lat="54.648880" lon="20.598780"><ele>13.9</ele><time>1970-01-01T00:00:00Z</time></trkpt>
			<trkpt lat="54.649400" lon="20.598440"><ele>13.1</ele><time>1970-01-01T00:00:00Z</time></trkpt>
			<trkpt lat="54.649610" lon="20.597910"><ele>13.3</ele><time>1970-01-01T00:00:00Z</time></trkpt>
			<trkpt lat="54.649520" lon="20.596850"><ele>13.9</ele><time>1970-01-01T00:00:00Z</time></trkpt>
			<trkpt lat="54.649610" lon="20.595840"><ele>15.0</ele><time>1970-01-01T00:00:00Z</time></trkpt>
			<trkpt lat="54.649860" lon="20.595150"><ele>15.8</ele><time>1970-01-01T00:00:00Z</time></trkpt>
			<trkpt lat="54.650250" lon="20.594550"><ele>15.3</ele><time>1970-01-01T00:00:00Z</time></trkpt>
			<trkpt lat="54.652770" lon="20.588410"><ele>16.6</ele><time>1970-01-01T00:00:00Z</time></trkpt>
			<trkpt lat="54.653350" lon="20.587160"><ele>16.0</ele><time>1970-01-01T00:00:00Z</time></trkpt>
			<trkpt lat="54.653340" lon="20.587050"><ele>16.0</ele><time>1970-01-01T00:00:00Z</time></trkpt>
			<trkpt lat="54.653910" lon="20.585640"><ele>15.8</ele><time>1970-01-01T00:00:00Z</time></trkpt>
			<trkpt lat="54.653990" lon="20.585360"><ele>15.7</ele><time>1970-01-01T00:00:00Z</time></trkpt>
			<trkpt lat="54.654210" lon="20.583570"><ele>15.6</ele><time>1970-01-01T00:00:00Z</time></trkpt>
			<trkpt lat="54.654320" lon="20.583100"><ele>15.4</ele><time>1970-01-01T00:00:00Z</time></trkpt>
			<trkpt lat="54.656000" lon="20.578070"><ele>14.3</ele><time>1970-01-01T00:00:00Z</time></trkpt>
			<trkpt lat="54.657210" lon="20.575550"><ele>13.3</ele><time>1970-01-01T00:00:00Z</time></trkpt>
			<trkpt lat="54.658650" lon="20.572680"><ele>14.7</ele><time>1970-01-01T00:00:00Z</time></trkpt>
			<trkpt lat="54.659020" lon="20.572070"><ele>14.6</ele><time>1970-01-01T00:00:00Z</time></trkpt>
			<trkpt lat="54.659320" lon="20.571710"><ele>15.1</ele><time>1970-01-01T00:00:00Z</time></trkpt>
			<trkpt lat="54.659790" lon="20.571280"><ele>15.4</ele><time>1970-01-01T00:00:00Z</time></trkpt>
			<trkpt lat="54.660280" lon="20.570900"><ele>14.7</ele><time>1970-01-01T00:00:00Z</time></trkpt>
			<trkpt lat="54.660820" lon="20.570560"><ele>14.3</ele><time>1970-01-01T00:00:00Z</time></trkpt>
			<trkpt lat="54.661560" lon="20.570200"><ele>13.2</ele><time>1970-01-01T00:00:00Z</time></trkpt>
			<trkpt lat="54.661760" lon="20.570010"><ele>13.0</ele><time>1970-01-01T00:00:00Z</time></trkpt>
			<trkpt lat="54.662750" lon="20.568850"><ele>13.3</ele><time>1970-01-01T00:00:00Z</time></trkpt>
			<trkpt lat="54.662920" lon="20.568740"><ele>13.2</ele><time>1970-01-01T00:00:00Z</time></trkpt>
			<trkpt lat="54.664830" lon="20.568950"><ele>12.9</ele><time>1970-01-01T00:00:00Z</time></trkpt>
			<trkpt lat="54.667530" lon="20.568650"><ele>10.1</ele><time>1970-01-01T00:00:00Z</time></trkpt>
			<trkpt lat="54.667680" lon="20.568710"><ele>10.1</ele><time>1970-01-01T00:00:00Z</time></trkpt>
			<trkpt lat="54.667800" lon="20.568830"><ele>10.1</ele><time>1970-01-01T00:00:00Z</time></trkpt>
			<trkpt lat="54.667990" lon="20.569250"><ele>10.0</ele><time>1970-01-01T00:00:00Z</time></trkpt>
			<trkpt lat="54.668100" lon="20.569350"><ele>10.0</ele><time>1970-01-01T00:00:00Z</time></trkpt>
			<trkpt lat="54.669920" lon="20.569280"><ele>10.0</ele><time>1970-01-01T00:00:00Z</time></trkpt>
			<trkpt lat="54.670550" lon="20.568020"><ele>8.5</ele><time>1970-01-01T00:00:00Z</time></trkpt>
			<trkpt lat="54.671230" lon="20.566470"><ele>9.5</ele><time>1970-01-01T00:00:00Z</time></trkpt>
			<trkpt lat="54.671290" lon="20.566190"><ele>9.5</ele><time>1970-01-01T00:00:00Z</time></trkpt>
			<trkpt lat="54.671330" lon="20.565700"><ele>9.6</ele><time>1970-01-01T00:00:00Z</time></trkpt>
			<trkpt lat="54.671390" lon="20.560070"><ele>10.0</ele><time>1970-01-01T00:00:00Z</time></trkpt>
			<trkpt lat="54.671230" lon="20.551640"><ele>11.5</ele><time>1970-01-01T00:00:00Z</time></trkpt>
			<trkpt lat="54.671250" lon="20.549390"><ele>11.6</ele><time>1970-01-01T00:00:00Z</time></trkpt>
			<trkpt lat="54.671420" lon="20.546580"><ele>11.4</ele><time>1970-01-01T00:00:00Z</time></trkpt>
			<trkpt lat="54.671430" lon="20.545480"><ele>11.3</ele><time>1970-01-01T00:00:00Z</time></trkpt>
			<trkpt lat="54.671460" lon="20.545200"><ele>11.0</ele><time>1970-01-01T00:00:00Z</time></trkpt>
			<trkpt lat="54.673960" lon="20.542760"><ele>11.5</ele><time>1970-01-01T00:00:00Z</time></trkpt>
			<trkpt lat="54.673610" lon="20.541530"><ele>10.7</ele><time>1970-01-01T00:00:00Z</time></trkpt>
			<trkpt lat="54.673470" lon="20.540820"><ele>10.7</ele><time>1970-01-01T00:00:00Z</time></trkpt>
			<trkpt lat="54.673420" lon="20.539610"><ele>9.1</ele><time>1970-01-01T00:00:00Z</time></trkpt>
			<trkpt lat="54.673860" lon="20.535570"><ele>10.4</ele><time>1970-01-01T00:00:00Z</time></trkpt>
			<trkpt lat="54.674200" lon="20.533220"><ele>11.7</ele><time>1970-01-01T00:00:00Z</time></trkpt>
			<trkpt lat="54.675910" lon="20.523440"><ele>12.8</ele><time>1970-01-01T00:00:00Z</time></trkpt>
			<trkpt lat="54.676070" lon="20.522230"><ele>12.3</ele><time>1970-01-01T00:00:00Z</time></trkpt>
			<trkpt lat="54.676070" lon="20.521960"><ele>11.9</ele><time>1970-01-01T00:00:00Z</time></trkpt>
			<trkpt lat="54.676850" lon="20.521970"><ele>10.7</ele><time>1970-01-01T00:00:00Z</time></trkpt>
			<trkpt lat="54.676710" lon="20.520060"><ele>9.1</ele><time>1970-01-01T00:00:00Z</time></trkpt>
			<trkpt lat="54.676640" lon="20.519730"><ele>8.8</ele><time>1970-01-01T00:00:00Z</time></trkpt>
			<trkpt lat="54.676290" lon="20.519110"><ele>9.1</ele><time>1970-01-01T00:00:00Z</time></trkpt>
			<trkpt lat="54.676200" lon="20.518820"><ele>8.4</ele><time>1970-01-01T00:00:00Z</time></trkpt>
			<trkpt lat="54.676250" lon="20.518190"><ele>6.4</ele><time>1970-01-01T00:00:00Z</time></trkpt>
			<trkpt lat="54.676300" lon="20.517910"><ele>6.2</ele><time>1970-01-01T00:00:00Z</time></trkpt>
			<trkpt lat="54.676450" lon="20.517400"><ele>6.4</ele><time>1970-01-01T00:00:00Z</time></trkpt>
			<trkpt lat="54.678130" lon="20.512290"><ele>12.0</ele><time>1970-01-01T00:00:00Z</time></trkpt>
			<trkpt lat="54.678250" lon="20.512160"><ele>11.7</ele><time>1970-01-01T00:00:00Z</time></trkpt>
			<trkpt lat="54.678460" lon="20.512110"><ele>11.3</ele><time>1970-01-01T00:00:00Z</time></trkpt>
			<trkpt lat="54.679230" lon="20.512230"><ele>10.6</ele><time>1970-01-01T00:00:00Z</time></trkpt>
			<trkpt lat="54.679390" lon="20.512150"><ele>10.3</ele><time>1970-01-01T00:00:00Z</time></trkpt>
			<trkpt lat="54.679490" lon="20.511920"><ele>9.9</ele><time>1970-01-01T00:00:00Z</time></trkpt>
			<trkpt lat="54.679660" lon="20.510760"><ele>9.5</ele><time>1970-01-01T00:00:00Z</time></trkpt>
			<trkpt lat="54.680150" lon="20.506790"><ele>11.5</ele><time>1970-01-01T00:00:00Z</time></trkpt>
			<trkpt lat="54.680730" lon="20.503000"><ele>13.3</ele><time>1970-01-01T00:00:00Z</time></trkpt>
			<trkpt lat="54.680730" lon="20.491970"><ele>7.8</ele><time>1970-01-01T00:00:00Z</time></trkpt>
			<trkpt lat="54.681510" lon="20.490670"><ele>7.8</ele><time>1970-01-01T00:00:00Z</time></trkpt>
			<trkpt lat="54.681530" lon="20.490720"><ele>7.9</ele><time>1970-01-01T00:00:00Z</time></trkpt>
			<trkpt lat="54.681870" lon="20.490320"><ele>8.2</ele><time>1970-01-01T00:00:00Z</time></trkpt>
			<trkpt lat="54.683120" lon="20.489790"><ele>4.7</ele><time>1970-01-01T00:00:00Z</time></trkpt>
			<trkpt lat="54.683700" lon="20.489780"><ele>2.4</ele><time>1970-01-01T00:00:00Z</time></trkpt>
			<trkpt lat="54.683690" lon="20.489690"><ele>2.3</ele><time>1970-01-01T00:00:00Z</time></trkpt>
			<trkpt lat="54.683830" lon="20.489620"><ele>2.0</ele><time>1970-01-01T00:00:00Z</time></trkpt>
			<trkpt lat="54.683870" lon="20.489530"><ele>1.9</ele><time>1970-01-01T00:00:00Z</time></trkpt>
			<trkpt lat="54.684000" lon="20.489740"><ele>1.5</ele><time>1970-01-01T00:00:00Z</time></trkpt>
			<trkpt lat="54.684210" lon="20.489980"><ele>0.9</ele><time>1970-01-01T00:00:00Z</time></trkpt>
			<trkpt lat="54.685680" lon="20.490920"><ele>-1.2</ele><time>1970-01-01T00:00:00Z</time></trkpt>
			<trkpt lat="54.686930" lon="20.491610"><ele>-0.8</ele><time>1970-01-01T00:00:00Z</time></trkpt>
			<trkpt lat="54.687240" lon="20.491860"><ele>0.7</ele><time>1970-01-01T00:00:00Z</time></trkpt>
			<trkpt lat="54.687590" lon="20.492340"><ele>1.8</ele><time>1970-01-01T00:00:00Z</time></trkpt>
			<trkpt lat="54.688890" lon="20.495110"><ele>2.8</ele><time>1970-01-01T00:00:00Z</time></trkpt>
			<trkpt lat="54.688980" lon="20.495200"><ele>3.0</ele><time>1970-01-01T00:00:00Z</time></trkpt>
			<trkpt lat="54.689190" lon="20.495300"><ele>3.3</ele><time>1970-01-01T00:00:00Z</time></trkpt>
			<trkpt lat="54.689360" lon="20.495260"><ele>3.1</ele><time>1970-01-01T00:00:00Z</time></trkpt>
			<trkpt lat="54.689590" lon="20.495090"><ele>2.6</ele><time>1970-01-01T00:00:00Z</time></trkpt>
			<trkpt lat="54.690470" lon="20.494300"><ele>1.7</ele><time>1970-01-01T00:00:00Z</time></trkpt>
			<trkpt lat="54.690610" lon="20.494260"><ele>1.9</ele><time>1970-01-01T00:00:00Z</time></trkpt>
			<trkpt lat="54.691450" lon="20.494260"><ele>2.8</ele><time>1970-01-01T00:00:00Z</time></trkpt>
			<trkpt lat="54.693620" lon="20.494080"><ele>3.1</ele><time>1970-01-01T00:00:00Z</time></trkpt>
			<trkpt lat="54.693740" lon="20.493980"><ele>2.7</ele><time>1970-01-01T00:00:00Z</time></trkpt>
			<trkpt lat="54.693880" lon="20.493480"><ele>1.6</ele><time>1970-01-01T00:00:00Z</time></trkpt>
			<trkpt lat="54.694370" lon="20.492530"><ele>1.9</ele><time>1970-01-01T00:00:00Z</time></trkpt>
			<trkpt lat="54.694450" lon="20.492300"><ele>2.2</ele><time>1970-01-01T00:00:00Z</time></trkpt>
			<trkpt lat="54.694490" lon="20.492020"><ele>2.1</ele><time>1970-01-01T00:00:00Z</time></trkpt>
			<trkpt lat="54.694580" lon="20.491770"><ele>2.1</ele><time>1970-01-01T00:00:00Z</time></trkpt>
			<trkpt lat="54.694950" lon="20.491170"><ele>1.7</ele><time>1970-01-01T00:00:00Z</time></trkpt>
			<trkpt lat="54.695220" lon="20.490840"><ele>1.4</ele><time>1970-01-01T00:00:00Z</time></trkpt>
			<trkpt lat="54.695440" lon="20.490790"><ele>1.5</ele><time>1970-01-01T00:00:00Z</time></trkpt>
			<trkpt lat="54.695520" lon="20.490810"><ele>1.6</ele><time>1970-01-01T00:00:00Z</time></trkpt>
			<trkpt lat="54.695650" lon="20.490930"><ele>2.0</ele><time>1970-01-01T00:00:00Z</time></trkpt>
			<trkpt lat="54.695940" lon="20.491770"><ele>3.9</ele><time>1970-01-01T00:00:00Z</time></trkpt>
			<trkpt lat="54.696240" lon="20.492470"><ele>4.9</ele><time>1970-01-01T00:00:00Z</time></trkpt>
			<trkpt lat="54.696290" lon="20.492550"><ele>5.0</ele><time>1970-01-01T00:00:00Z</time></trkpt>
			<trkpt lat="54.696340" lon="20.492570"><ele>5.0</ele><time>1970-01-01T00:00:00Z</time></trkpt>
			<trkpt lat="54.696380" lon="20.492540"><ele>5.0</ele><time>1970-01-01T00:00:00Z</time></trkpt>
			<trkpt lat="54.697010" lon="20.494020"><ele>3.5</ele><time>1970-01-01T00:00:00Z</time></trkpt>
			<trkpt lat="54.697180" lon="20.493700"><ele>4.1</ele><time>1970-01-01T00:00:00Z</time></trkpt>
			<trkpt lat="54.697920" lon="20.492880"><ele>3.7</ele><time>1970-01-01T00:00:00Z</time></trkpt>
			<trkpt lat="54.699440" lon="20.491830"><ele>2.6</ele><time>1970-01-01T00:00:00Z</time></trkpt>
			<trkpt lat="54.699630" lon="20.491780"><ele>2.7</ele><time>1970-01-01T00:00:00Z</time></trkpt>
			<trkpt lat="54.700160" lon="20.491730"><ele>2.9</ele><time>1970-01-01T00:00:00Z</time></trkpt>
			<trkpt lat="54.703120" lon="20.491650"><ele>1.7</ele><time>1970-01-01T00:00:00Z</time></trkpt>
			<trkpt lat="54.703460" lon="20.491550"><ele>1.7</ele><time>1970-01-01T00:00:00Z</time></trkpt>
			<trkpt lat="54.704220" lon="20.491100"><ele>2.8</ele><time>1970-01-01T00:00:00Z</time></trkpt>
			<trkpt lat="54.704910" lon="20.490440"><ele>6.7</ele><time>1970-01-01T00:00:00Z</time></trkpt>
			<trkpt lat="54.705150" lon="20.489980"><ele>7.6</ele><time>1970-01-01T00:00:00Z</time></trkpt>
			<trkpt lat="54.705180" lon="20.489820"><ele>6.7</ele><time>1970-01-01T00:00:00Z</time></trkpt>
			<trkpt lat="54.706190" lon="20.489210"><ele>-0.6</ele><time>1970-01-01T00:00:00Z</time></trkpt>
			<trkpt lat="54.706500" lon="20.489370"><ele>-0.5</ele><time>1970-01-01T00:00:00Z</time></trkpt>
			<trkpt lat="54.706620" lon="20.489650"><ele>-0.6</ele><time>1970-01-01T00:00:00Z</time></trkpt>
			<trkpt lat="54.706780" lon="20.489850"><ele>-0.2</ele><time>1970-01-01T00:00:00Z</time></trkpt>
			<trkpt lat="54.706830" lon="20.489870"><ele>-0.0</ele><time>1970-01-01T00:00:00Z</time></trkpt>
			<trkpt lat="54.707100" lon="20.489790"><ele>1.3</ele><time>1970-01-01T00:00:00Z</time></trkpt>
			<trkpt lat="54.707260" lon="20.489680"><ele>2.2</ele><time>1970-01-01T00:00:00Z</time></trkpt>
			<trkpt lat="54.707460" lon="20.489600"><ele>3.3</ele><time>1970-01-01T00:00:00Z</time></trkpt>
			<trkpt lat="54.707640" lon="20.489610"><ele>3.4</ele><time>1970-01-01T00:00:00Z</time></trkpt>
			<trkpt lat="54.708070" lon="20.489980"><ele>3.0</ele><time>1970-01-01T00:00:00Z</time></trkpt>
			<trkpt lat="54.708210" lon="20.490240"><ele>3.0</ele><time>1970-01-01T00:00:00Z</time></trkpt>
			<trkpt lat="54.708580" lon="20.490580"><ele>3.1</ele><time>1970-01-01T00:00:00Z</time></trkpt>
			<trkpt lat="54.708690" lon="20.490730"><ele>3.0</ele><time>1970-01-01T00:00:00Z</time></trkpt>
			<trkpt lat="54.709530" lon="20.492090"><ele>-0.0</ele><time>1970-01-01T00:00:00Z</time></trkpt>
			<trkpt lat="54.709820" lon="20.492730"><ele>-1.0</ele><time>1970-01-01T00:00:00Z</time></trkpt>
			<trkpt lat="54.710070" lon="20.493490"><ele>-0.9</ele><time>1970-01-01T00:00:00Z</time></trkpt>
			<trkpt lat="54.710350" lon="20.494070"><ele>-0.6</ele><time>1970-01-01T00:00:00Z</time></trkpt>
			<trkpt lat="54.710620" lon="20.494500"><ele>0.3</ele><time>1970-01-01T00:00:00Z</time></trkpt>
			<trkpt lat="54.710640" lon="20.494700"><ele>0.8</ele><time>1970-01-01T00:00:00Z</time></trkpt>
			<trkpt lat="54.710700" lon="20.494880"><ele>1.2</ele><time>1970-01-01T00:00:00Z</time></trkpt>
			<trkpt lat="54.710700" lon="20.494880"><ele>1.2</ele><time>1970-01-01T00:00:00Z</time></trkpt>
			<trkpt lat="54.710700" lon="20.494890"><ele>1.2</ele><time>1970-01-01T00:00:02Z</time></trkpt>
			<trkpt lat="54.710650" lon="20.495440"><ele>1.9</ele><time>1970-01-01T00:00:04Z</time></trkpt>
			<trkpt lat="54.710470" lon="20.497270"><ele>1.7</ele><time>1970-01-01T00:00:07Z</time></trkpt>
			<trkpt lat="54.710370" lon="20.498410"><ele>3.4</ele><time>1970-01-01T00:00:09Z</time></trkpt>
			<trkpt lat="54.710270" lon="20.499640"><ele>3.5</ele><time>1970-01-01T00:00:11Z</time></trkpt>
			<trkpt lat="54.710220" lon="20.500200"><ele>4.0</ele><time>1970-01-01T00:00:14Z</time></trkpt>
			<trkpt lat="54.710190" lon="20.500630"><ele>5.4</ele><time>1970-01-01T00:00:16Z</time></trkpt>
			<trkpt lat="54.710120" lon="20.501280"><ele>6.7</ele><time>1970-01-01T00:00:18Z</time></trkpt>
			<trkpt lat="54.710080" lon="20.501640"><ele>7.1</ele><time>1970-01-01T00:00:21Z</time></trkpt>
			<trkpt lat="54.710000" lon="20.502480"><ele>5.1</ele><time>1970-01-01T00:00:23Z</time></trkpt>
			<trkpt lat="54.709860" lon="20.503850"><ele>4.8</ele><time>1970-01-01T00:00:25Z</time></trkpt>
			<trkpt lat="54.709740" lon="20.504820"><ele>5.0</ele><time>1970-01-01T00:00:28Z</time></trkpt>
			<trkpt lat="54.709630" lon="20.505820"><ele>4.9</ele><time>1970-01-01T00:00:30Z</time></trkpt>
			<trkpt lat="54.709530" lon="20.505940"><ele>3.9</ele><time>1970-01-01T00:00:32Z</time></trkpt>
			<trkpt lat="54.709480" lon="20.505970"><ele>3.4</ele><time>1970-01-01T00:00:35Z</time></trkpt>
			<trkpt lat="54.709340" lon="20.506010"><ele>2.1</ele><time>1970-01-01T00:00:37Z</time></trkpt>
			<trkpt lat="54.709090" lon="20.505910"><ele>0.8</ele><time>1970-01-01T00:00:39Z</time></trkpt>
			<trkpt lat="54.709000" lon="20.505880"><ele>0.9</ele><time>1970-01-01T00:00:42Z</time></trkpt>
			<trkpt lat="54.708710" lon="20.505780"><ele>1.0</ele><time>1970-01-01T00:00:44Z</time></trkpt>
			<trkpt lat="54.708590" lon="20.505740"><ele>1.1</ele><time>1970-01-01T00:00:46Z</time></trkpt>
			<trkpt lat="54.708410" lon="20.505650"><ele>1.2</ele><time>1970-01-01T00:00:49Z</time></trkpt>
		</trkseg>
	</trk>
</gpx>